<?xml version="1.0" encoding="UTF-8" standalone="no" ?>
<gpx xmlns="http://www.topografix.com/GPX/1/1" xmlns:xsi="http://www.w3.org/2001/XMLSchema-instance" xsi:schemaLocation="http://www.topografix.com/GPX/1/1 http://www.topografix.com/GPX/1/1/gpx.xsd" version="1.1" creator="VisuGPX - https://www.visugpx.com">
  <metadata>
    <name>[06/04/2017] 1er entrainement le soir</name>
    <desc><![CDATA[Boucle de 31 Km en soirée.
2 montées et rien que du plat avec des portions joueuses dans la forêt communale d'Evreux et le bois de St Michel]]></desc>
  </metadata>
  <trk>
    <name><![CDATA[[06/04/2017] 1er entrainement le soir_1]]></name>
    <trkseg>
      <trkpt lat="49.00212" lon="1.13002">
        <ele>136.572647</ele>
        <time>2017-04-06T16:09:22Z</time>
      </trkpt>
      <trkpt lat="49.00212" lon="1.13002">
        <ele>136.572647</ele>
        <time>2017-04-06T16:09:23Z</time>
      </trkpt>
      <trkpt lat="49.00215" lon="1.13016">
        <ele>137</ele>
        <time>2017-04-06T16:10:05Z</time>
      </trkpt>
      <trkpt lat="49.00222" lon="1.13027">
        <ele>137</ele>
        <time>2017-04-06T16:10:10Z</time>
      </trkpt>
      <trkpt lat="49.00229" lon="1.13038">
        <ele>136.9</ele>
        <time>2017-04-06T16:10:15Z</time>
      </trkpt>
      <trkpt lat="49.0023" lon="1.13052">
        <ele>136.7</ele>
        <time>2017-04-06T16:10:19Z</time>
      </trkpt>
      <trkpt lat="49.00238" lon="1.13062">
        <ele>136.6</ele>
        <time>2017-04-06T16:10:24Z</time>
      </trkpt>
      <trkpt lat="49.0025" lon="1.1306">
        <ele>136.5</ele>
        <time>2017-04-06T16:10:27Z</time>
      </trkpt>
      <trkpt lat="49.00259" lon="1.13058">
        <ele>136.5</ele>
        <time>2017-04-06T16:10:29Z</time>
      </trkpt>
      <trkpt lat="49.00269" lon="1.13056">
        <ele>136.4</ele>
        <time>2017-04-06T16:10:31Z</time>
      </trkpt>
      <trkpt lat="49.00281" lon="1.13053">
        <ele>136.4</ele>
        <time>2017-04-06T16:10:34Z</time>
      </trkpt>
      <trkpt lat="49.0029" lon="1.13057">
        <ele>136.3</ele>
        <time>2017-04-06T16:10:37Z</time>
      </trkpt>
      <trkpt lat="49.00299" lon="1.1305">
        <ele>136.1</ele>
        <time>2017-04-06T16:10:41Z</time>
      </trkpt>
      <trkpt lat="49.00307" lon="1.13036">
        <ele>135.7</ele>
        <time>2017-04-06T16:10:45Z</time>
      </trkpt>
      <trkpt lat="49.00313" lon="1.13022">
        <ele>135.4</ele>
        <time>2017-04-06T16:10:49Z</time>
      </trkpt>
      <trkpt lat="49.00322" lon="1.13014">
        <ele>135.1</ele>
        <time>2017-04-06T16:10:52Z</time>
      </trkpt>
      <trkpt lat="49.00331" lon="1.13006">
        <ele>134.8</ele>
        <time>2017-04-06T16:10:55Z</time>
      </trkpt>
      <trkpt lat="49.00341" lon="1.12997">
        <ele>134.6</ele>
        <time>2017-04-06T16:10:58Z</time>
      </trkpt>
      <trkpt lat="49.00351" lon="1.12989">
        <ele>134.2</ele>
        <time>2017-04-06T16:11:01Z</time>
      </trkpt>
      <trkpt lat="49.0036" lon="1.12982">
        <ele>133.8</ele>
        <time>2017-04-06T16:11:03Z</time>
      </trkpt>
      <trkpt lat="49.00369" lon="1.1297">
        <ele>133.2</ele>
        <time>2017-04-06T16:11:06Z</time>
      </trkpt>
      <trkpt lat="49.00374" lon="1.12957">
        <ele>132.8</ele>
        <time>2017-04-06T16:11:09Z</time>
      </trkpt>
      <trkpt lat="49.00376" lon="1.12941">
        <ele>132.4</ele>
        <time>2017-04-06T16:11:12Z</time>
      </trkpt>
      <trkpt lat="49.00379" lon="1.12927">
        <ele>132.1</ele>
        <time>2017-04-06T16:11:15Z</time>
      </trkpt>
      <trkpt lat="49.00381" lon="1.1291">
        <ele>131.9</ele>
        <time>2017-04-06T16:11:18Z</time>
      </trkpt>
      <trkpt lat="49.00385" lon="1.12892">
        <ele>131.7</ele>
        <time>2017-04-06T16:11:21Z</time>
      </trkpt>
      <trkpt lat="49.00387" lon="1.12872">
        <ele>131.5</ele>
        <time>2017-04-06T16:11:24Z</time>
      </trkpt>
      <trkpt lat="49.00389" lon="1.12854">
        <ele>131.3</ele>
        <time>2017-04-06T16:11:27Z</time>
      </trkpt>
      <trkpt lat="49.00389" lon="1.12834">
        <ele>131.2</ele>
        <time>2017-04-06T16:11:30Z</time>
      </trkpt>
      <trkpt lat="49.00391" lon="1.12819">
        <ele>131.1</ele>
        <time>2017-04-06T16:11:32Z</time>
      </trkpt>
      <trkpt lat="49.00393" lon="1.12805">
        <ele>131</ele>
        <time>2017-04-06T16:11:34Z</time>
      </trkpt>
      <trkpt lat="49.00396" lon="1.12788">
        <ele>131</ele>
        <time>2017-04-06T16:11:36Z</time>
      </trkpt>
      <trkpt lat="49.00397" lon="1.12774">
        <ele>130.9</ele>
        <time>2017-04-06T16:11:38Z</time>
      </trkpt>
      <trkpt lat="49.004" lon="1.1276">
        <ele>130.9</ele>
        <time>2017-04-06T16:11:40Z</time>
      </trkpt>
      <trkpt lat="49.00402" lon="1.12746">
        <ele>130.9</ele>
        <time>2017-04-06T16:11:42Z</time>
      </trkpt>
      <trkpt lat="49.00404" lon="1.12731">
        <ele>130.8</ele>
        <time>2017-04-06T16:11:44Z</time>
      </trkpt>
      <trkpt lat="49.00404" lon="1.12717">
        <ele>130.8</ele>
        <time>2017-04-06T16:11:46Z</time>
      </trkpt>
      <trkpt lat="49.00406" lon="1.12703">
        <ele>130.8</ele>
        <time>2017-04-06T16:11:48Z</time>
      </trkpt>
      <trkpt lat="49.00407" lon="1.12688">
        <ele>130.7</ele>
        <time>2017-04-06T16:11:50Z</time>
      </trkpt>
      <trkpt lat="49.00409" lon="1.12674">
        <ele>130.7</ele>
        <time>2017-04-06T16:11:52Z</time>
      </trkpt>
      <trkpt lat="49.0041" lon="1.1266">
        <ele>130.7</ele>
        <time>2017-04-06T16:11:54Z</time>
      </trkpt>
      <trkpt lat="49.00411" lon="1.12645">
        <ele>130.7</ele>
        <time>2017-04-06T16:11:56Z</time>
      </trkpt>
      <trkpt lat="49.00414" lon="1.12624">
        <ele>130.7</ele>
        <time>2017-04-06T16:11:59Z</time>
      </trkpt>
      <trkpt lat="49.00415" lon="1.1261">
        <ele>130.7</ele>
        <time>2017-04-06T16:12:01Z</time>
      </trkpt>
      <trkpt lat="49.00418" lon="1.12592">
        <ele>130.9</ele>
        <time>2017-04-06T16:12:04Z</time>
      </trkpt>
      <trkpt lat="49.0043" lon="1.12586">
        <ele>131.1</ele>
        <time>2017-04-06T16:12:08Z</time>
      </trkpt>
      <trkpt lat="49.00441" lon="1.12586">
        <ele>131.2</ele>
        <time>2017-04-06T16:12:11Z</time>
      </trkpt>
      <trkpt lat="49.00453" lon="1.12583">
        <ele>131.3</ele>
        <time>2017-04-06T16:12:14Z</time>
      </trkpt>
      <trkpt lat="49.00464" lon="1.12589">
        <ele>131.5</ele>
        <time>2017-04-06T16:12:17Z</time>
      </trkpt>
      <trkpt lat="49.00473" lon="1.12598">
        <ele>131.7</ele>
        <time>2017-04-06T16:12:20Z</time>
      </trkpt>
      <trkpt lat="49.00483" lon="1.12606">
        <ele>131.8</ele>
        <time>2017-04-06T16:12:23Z</time>
      </trkpt>
      <trkpt lat="49.00495" lon="1.12608">
        <ele>131.9</ele>
        <time>2017-04-06T16:12:26Z</time>
      </trkpt>
      <trkpt lat="49.00505" lon="1.12611">
        <ele>132</ele>
        <time>2017-04-06T16:12:29Z</time>
      </trkpt>
      <trkpt lat="49.00517" lon="1.12619">
        <ele>132.1</ele>
        <time>2017-04-06T16:12:32Z</time>
      </trkpt>
      <trkpt lat="49.00529" lon="1.12627">
        <ele>132.1</ele>
        <time>2017-04-06T16:12:35Z</time>
      </trkpt>
      <trkpt lat="49.00538" lon="1.12631">
        <ele>132.2</ele>
        <time>2017-04-06T16:12:37Z</time>
      </trkpt>
      <trkpt lat="49.00549" lon="1.12636">
        <ele>132.1</ele>
        <time>2017-04-06T16:12:40Z</time>
      </trkpt>
      <trkpt lat="49.00558" lon="1.12639">
        <ele>132.1</ele>
        <time>2017-04-06T16:12:42Z</time>
      </trkpt>
      <trkpt lat="49.00568" lon="1.12642">
        <ele>132</ele>
        <time>2017-04-06T16:12:44Z</time>
      </trkpt>
      <trkpt lat="49.00577" lon="1.12647">
        <ele>131.8</ele>
        <time>2017-04-06T16:12:48Z</time>
      </trkpt>
      <trkpt lat="49.00587" lon="1.12636">
        <ele>131.7</ele>
        <time>2017-04-06T16:12:51Z</time>
      </trkpt>
      <trkpt lat="49.00596" lon="1.12625">
        <ele>131.6</ele>
        <time>2017-04-06T16:12:54Z</time>
      </trkpt>
      <trkpt lat="49.00599" lon="1.12609">
        <ele>131.5</ele>
        <time>2017-04-06T16:12:57Z</time>
      </trkpt>
      <trkpt lat="49.00606" lon="1.126">
        <ele>131.5</ele>
        <time>2017-04-06T16:13:00Z</time>
      </trkpt>
      <trkpt lat="49.00614" lon="1.12588">
        <ele>131.4</ele>
        <time>2017-04-06T16:13:04Z</time>
      </trkpt>
      <trkpt lat="49.00617" lon="1.12573">
        <ele>131.4</ele>
        <time>2017-04-06T16:13:07Z</time>
      </trkpt>
      <trkpt lat="49.00619" lon="1.12559">
        <ele>131.3</ele>
        <time>2017-04-06T16:13:10Z</time>
      </trkpt>
      <trkpt lat="49.00617" lon="1.12543">
        <ele>131.3</ele>
        <time>2017-04-06T16:13:13Z</time>
      </trkpt>
      <trkpt lat="49.0061" lon="1.12532">
        <ele>131.2</ele>
        <time>2017-04-06T16:13:17Z</time>
      </trkpt>
      <trkpt lat="49.00609" lon="1.12517">
        <ele>131.1</ele>
        <time>2017-04-06T16:13:21Z</time>
      </trkpt>
      <trkpt lat="49.00608" lon="1.12503">
        <ele>130.9</ele>
        <time>2017-04-06T16:13:26Z</time>
      </trkpt>
      <trkpt lat="49.00606" lon="1.12484">
        <ele>130.8</ele>
        <time>2017-04-06T16:13:30Z</time>
      </trkpt>
      <trkpt lat="49.00606" lon="1.12467">
        <ele>130.8</ele>
        <time>2017-04-06T16:13:33Z</time>
      </trkpt>
      <trkpt lat="49.00607" lon="1.12452">
        <ele>130.8</ele>
        <time>2017-04-06T16:13:36Z</time>
      </trkpt>
      <trkpt lat="49.00608" lon="1.12438">
        <ele>130.7</ele>
        <time>2017-04-06T16:13:38Z</time>
      </trkpt>
      <trkpt lat="49.00612" lon="1.12421">
        <ele>130.7</ele>
        <time>2017-04-06T16:13:42Z</time>
      </trkpt>
      <trkpt lat="49.00613" lon="1.12405">
        <ele>130.7</ele>
        <time>2017-04-06T16:13:46Z</time>
      </trkpt>
      <trkpt lat="49.00609" lon="1.12389">
        <ele>130.7</ele>
        <time>2017-04-06T16:13:49Z</time>
      </trkpt>
      <trkpt lat="49.00607" lon="1.12375">
        <ele>130.7</ele>
        <time>2017-04-06T16:13:51Z</time>
      </trkpt>
      <trkpt lat="49.00602" lon="1.12363">
        <ele>130.6</ele>
        <time>2017-04-06T16:13:53Z</time>
      </trkpt>
      <trkpt lat="49.006" lon="1.12342">
        <ele>130.6</ele>
        <time>2017-04-06T16:13:56Z</time>
      </trkpt>
      <trkpt lat="49.00597" lon="1.12324">
        <ele>130.6</ele>
        <time>2017-04-06T16:13:59Z</time>
      </trkpt>
      <trkpt lat="49.00594" lon="1.12308">
        <ele>130.5</ele>
        <time>2017-04-06T16:14:02Z</time>
      </trkpt>
      <trkpt lat="49.00587" lon="1.12293">
        <ele>130.5</ele>
        <time>2017-04-06T16:14:05Z</time>
      </trkpt>
      <trkpt lat="49.00579" lon="1.12278">
        <ele>130.3</ele>
        <time>2017-04-06T16:14:08Z</time>
      </trkpt>
      <trkpt lat="49.00573" lon="1.12263">
        <ele>130.2</ele>
        <time>2017-04-06T16:14:10Z</time>
      </trkpt>
      <trkpt lat="49.00564" lon="1.12252">
        <ele>130.1</ele>
        <time>2017-04-06T16:14:12Z</time>
      </trkpt>
      <trkpt lat="49.00555" lon="1.12243">
        <ele>130</ele>
        <time>2017-04-06T16:14:14Z</time>
      </trkpt>
      <trkpt lat="49.00548" lon="1.12233">
        <ele>129.7</ele>
        <time>2017-04-06T16:14:17Z</time>
      </trkpt>
      <trkpt lat="49.00551" lon="1.12219">
        <ele>129.3</ele>
        <time>2017-04-06T16:14:20Z</time>
      </trkpt>
      <trkpt lat="49.00555" lon="1.12205">
        <ele>129</ele>
        <time>2017-04-06T16:14:23Z</time>
      </trkpt>
      <trkpt lat="49.00563" lon="1.12194">
        <ele>128.7</ele>
        <time>2017-04-06T16:14:26Z</time>
      </trkpt>
      <trkpt lat="49.00573" lon="1.12187">
        <ele>128.5</ele>
        <time>2017-04-06T16:14:29Z</time>
      </trkpt>
      <trkpt lat="49.00585" lon="1.12188">
        <ele>128.4</ele>
        <time>2017-04-06T16:14:32Z</time>
      </trkpt>
      <trkpt lat="49.00594" lon="1.12176">
        <ele>128.3</ele>
        <time>2017-04-06T16:14:35Z</time>
      </trkpt>
      <trkpt lat="49.00602" lon="1.12163">
        <ele>128.2</ele>
        <time>2017-04-06T16:14:38Z</time>
      </trkpt>
      <trkpt lat="49.00611" lon="1.12149">
        <ele>128.3</ele>
        <time>2017-04-06T16:14:41Z</time>
      </trkpt>
      <trkpt lat="49.00618" lon="1.12135">
        <ele>128.5</ele>
        <time>2017-04-06T16:14:44Z</time>
      </trkpt>
      <trkpt lat="49.00623" lon="1.12124">
        <ele>128.6</ele>
        <time>2017-04-06T16:14:46Z</time>
      </trkpt>
      <trkpt lat="49.00631" lon="1.12109">
        <ele>128.6</ele>
        <time>2017-04-06T16:14:49Z</time>
      </trkpt>
      <trkpt lat="49.0064" lon="1.12097">
        <ele>128.6</ele>
        <time>2017-04-06T16:14:52Z</time>
      </trkpt>
      <trkpt lat="49.00648" lon="1.12081">
        <ele>128.6</ele>
        <time>2017-04-06T16:14:55Z</time>
      </trkpt>
      <trkpt lat="49.00652" lon="1.12065">
        <ele>128.6</ele>
        <time>2017-04-06T16:14:58Z</time>
      </trkpt>
      <trkpt lat="49.00658" lon="1.12047">
        <ele>128.9</ele>
        <time>2017-04-06T16:15:01Z</time>
      </trkpt>
      <trkpt lat="49.00663" lon="1.12035">
        <ele>129.3</ele>
        <time>2017-04-06T16:15:04Z</time>
      </trkpt>
      <trkpt lat="49.00671" lon="1.12026">
        <ele>129.5</ele>
        <time>2017-04-06T16:15:06Z</time>
      </trkpt>
      <trkpt lat="49.00681" lon="1.12014">
        <ele>129.8</ele>
        <time>2017-04-06T16:15:09Z</time>
      </trkpt>
      <trkpt lat="49.0069" lon="1.12">
        <ele>130</ele>
        <time>2017-04-06T16:15:12Z</time>
      </trkpt>
      <trkpt lat="49.00696" lon="1.11984">
        <ele>130.2</ele>
        <time>2017-04-06T16:15:15Z</time>
      </trkpt>
      <trkpt lat="49.00693" lon="1.11967">
        <ele>130.3</ele>
        <time>2017-04-06T16:15:18Z</time>
      </trkpt>
      <trkpt lat="49.00688" lon="1.1195">
        <ele>130.4</ele>
        <time>2017-04-06T16:15:21Z</time>
      </trkpt>
      <trkpt lat="49.00684" lon="1.11933">
        <ele>130.5</ele>
        <time>2017-04-06T16:15:24Z</time>
      </trkpt>
      <trkpt lat="49.00679" lon="1.11915">
        <ele>130.6</ele>
        <time>2017-04-06T16:15:27Z</time>
      </trkpt>
      <trkpt lat="49.00675" lon="1.11898">
        <ele>130.6</ele>
        <time>2017-04-06T16:15:30Z</time>
      </trkpt>
      <trkpt lat="49.00671" lon="1.11879">
        <ele>130.7</ele>
        <time>2017-04-06T16:15:33Z</time>
      </trkpt>
      <trkpt lat="49.00667" lon="1.11863">
        <ele>130.7</ele>
        <time>2017-04-06T16:15:36Z</time>
      </trkpt>
      <trkpt lat="49.00665" lon="1.11847">
        <ele>130.7</ele>
        <time>2017-04-06T16:15:38Z</time>
      </trkpt>
      <trkpt lat="49.0066" lon="1.11831">
        <ele>130.7</ele>
        <time>2017-04-06T16:15:41Z</time>
      </trkpt>
      <trkpt lat="49.00658" lon="1.11811">
        <ele>130.7</ele>
        <time>2017-04-06T16:15:44Z</time>
      </trkpt>
      <trkpt lat="49.00656" lon="1.11797">
        <ele>130.6</ele>
        <time>2017-04-06T16:15:46Z</time>
      </trkpt>
      <trkpt lat="49.00653" lon="1.11781">
        <ele>130.5</ele>
        <time>2017-04-06T16:15:48Z</time>
      </trkpt>
      <trkpt lat="49.00653" lon="1.11761">
        <ele>130.4</ele>
        <time>2017-04-06T16:15:51Z</time>
      </trkpt>
      <trkpt lat="49.00664" lon="1.1175">
        <ele>130</ele>
        <time>2017-04-06T16:15:54Z</time>
      </trkpt>
      <trkpt lat="49.00674" lon="1.11751">
        <ele>129.7</ele>
        <time>2017-04-06T16:15:56Z</time>
      </trkpt>
      <trkpt lat="49.00684" lon="1.11755">
        <ele>129.4</ele>
        <time>2017-04-06T16:15:58Z</time>
      </trkpt>
      <trkpt lat="49.00695" lon="1.11753">
        <ele>129</ele>
        <time>2017-04-06T16:16:00Z</time>
      </trkpt>
      <trkpt lat="49.00704" lon="1.11751">
        <ele>128.7</ele>
        <time>2017-04-06T16:16:02Z</time>
      </trkpt>
      <trkpt lat="49.00714" lon="1.11758">
        <ele>128.3</ele>
        <time>2017-04-06T16:16:05Z</time>
      </trkpt>
      <trkpt lat="49.00726" lon="1.11766">
        <ele>127.8</ele>
        <time>2017-04-06T16:16:09Z</time>
      </trkpt>
      <trkpt lat="49.00741" lon="1.11771">
        <ele>127.6</ele>
        <time>2017-04-06T16:16:11Z</time>
      </trkpt>
      <trkpt lat="49.00751" lon="1.11783">
        <ele>127.4</ele>
        <time>2017-04-06T16:16:13Z</time>
      </trkpt>
      <trkpt lat="49.00762" lon="1.1179">
        <ele>127.2</ele>
        <time>2017-04-06T16:16:15Z</time>
      </trkpt>
      <trkpt lat="49.00771" lon="1.11791">
        <ele>127.1</ele>
        <time>2017-04-06T16:16:17Z</time>
      </trkpt>
      <trkpt lat="49.00781" lon="1.1179">
        <ele>127.1</ele>
        <time>2017-04-06T16:16:19Z</time>
      </trkpt>
      <trkpt lat="49.0079" lon="1.11787">
        <ele>127.1</ele>
        <time>2017-04-06T16:16:21Z</time>
      </trkpt>
      <trkpt lat="49.00803" lon="1.11792">
        <ele>127.2</ele>
        <time>2017-04-06T16:16:24Z</time>
      </trkpt>
      <trkpt lat="49.00815" lon="1.11799">
        <ele>127.5</ele>
        <time>2017-04-06T16:16:27Z</time>
      </trkpt>
      <trkpt lat="49.00827" lon="1.11805">
        <ele>127.6</ele>
        <time>2017-04-06T16:16:30Z</time>
      </trkpt>
      <trkpt lat="49.00839" lon="1.11814">
        <ele>127.8</ele>
        <time>2017-04-06T16:16:33Z</time>
      </trkpt>
      <trkpt lat="49.00848" lon="1.11824">
        <ele>128</ele>
        <time>2017-04-06T16:16:36Z</time>
      </trkpt>
      <trkpt lat="49.00859" lon="1.11832">
        <ele>128.3</ele>
        <time>2017-04-06T16:16:39Z</time>
      </trkpt>
      <trkpt lat="49.00868" lon="1.11836">
        <ele>128.4</ele>
        <time>2017-04-06T16:16:41Z</time>
      </trkpt>
      <trkpt lat="49.00876" lon="1.11842">
        <ele>128.6</ele>
        <time>2017-04-06T16:16:43Z</time>
      </trkpt>
      <trkpt lat="49.00886" lon="1.11855">
        <ele>128.9</ele>
        <time>2017-04-06T16:16:46Z</time>
      </trkpt>
      <trkpt lat="49.00894" lon="1.11865">
        <ele>129.2</ele>
        <time>2017-04-06T16:16:49Z</time>
      </trkpt>
      <trkpt lat="49.00903" lon="1.11865">
        <ele>129.3</ele>
        <time>2017-04-06T16:16:51Z</time>
      </trkpt>
      <trkpt lat="49.00915" lon="1.11871">
        <ele>129.5</ele>
        <time>2017-04-06T16:16:54Z</time>
      </trkpt>
      <trkpt lat="49.00924" lon="1.11878">
        <ele>129.6</ele>
        <time>2017-04-06T16:16:56Z</time>
      </trkpt>
      <trkpt lat="49.00929" lon="1.11889">
        <ele>129.7</ele>
        <time>2017-04-06T16:16:58Z</time>
      </trkpt>
      <trkpt lat="49.00933" lon="1.11909">
        <ele>129.8</ele>
        <time>2017-04-06T16:17:01Z</time>
      </trkpt>
      <trkpt lat="49.00937" lon="1.11926">
        <ele>129.9</ele>
        <time>2017-04-06T16:17:04Z</time>
      </trkpt>
      <trkpt lat="49.00942" lon="1.11938">
        <ele>129.9</ele>
        <time>2017-04-06T16:17:06Z</time>
      </trkpt>
      <trkpt lat="49.00947" lon="1.11951">
        <ele>130</ele>
        <time>2017-04-06T16:17:08Z</time>
      </trkpt>
      <trkpt lat="49.00951" lon="1.11964">
        <ele>130</ele>
        <time>2017-04-06T16:17:10Z</time>
      </trkpt>
      <trkpt lat="49.00957" lon="1.11981">
        <ele>130.2</ele>
        <time>2017-04-06T16:17:13Z</time>
      </trkpt>
      <trkpt lat="49.00961" lon="1.12">
        <ele>130.3</ele>
        <time>2017-04-06T16:17:16Z</time>
      </trkpt>
      <trkpt lat="49.00963" lon="1.12018">
        <ele>130.4</ele>
        <time>2017-04-06T16:17:19Z</time>
      </trkpt>
      <trkpt lat="49.00966" lon="1.12038">
        <ele>130.5</ele>
        <time>2017-04-06T16:17:22Z</time>
      </trkpt>
      <trkpt lat="49.0097" lon="1.12056">
        <ele>130.6</ele>
        <time>2017-04-06T16:17:25Z</time>
      </trkpt>
      <trkpt lat="49.00975" lon="1.12074">
        <ele>130.6</ele>
        <time>2017-04-06T16:17:28Z</time>
      </trkpt>
      <trkpt lat="49.0098" lon="1.12086">
        <ele>130.7</ele>
        <time>2017-04-06T16:17:30Z</time>
      </trkpt>
      <trkpt lat="49.00984" lon="1.12102">
        <ele>130.6</ele>
        <time>2017-04-06T16:17:32Z</time>
      </trkpt>
      <trkpt lat="49.0099" lon="1.12117">
        <ele>130.5</ele>
        <time>2017-04-06T16:17:34Z</time>
      </trkpt>
      <trkpt lat="49.00995" lon="1.12132">
        <ele>130.4</ele>
        <time>2017-04-06T16:17:36Z</time>
      </trkpt>
      <trkpt lat="49.00999" lon="1.12146">
        <ele>130.4</ele>
        <time>2017-04-06T16:17:38Z</time>
      </trkpt>
      <trkpt lat="49.01004" lon="1.12162">
        <ele>130.3</ele>
        <time>2017-04-06T16:17:40Z</time>
      </trkpt>
      <trkpt lat="49.01009" lon="1.12176">
        <ele>130.2</ele>
        <time>2017-04-06T16:17:42Z</time>
      </trkpt>
      <trkpt lat="49.01012" lon="1.12191">
        <ele>130.2</ele>
        <time>2017-04-06T16:17:44Z</time>
      </trkpt>
      <trkpt lat="49.01017" lon="1.12206">
        <ele>130.1</ele>
        <time>2017-04-06T16:17:46Z</time>
      </trkpt>
      <trkpt lat="49.01019" lon="1.12222">
        <ele>130</ele>
        <time>2017-04-06T16:17:48Z</time>
      </trkpt>
      <trkpt lat="49.01021" lon="1.12239">
        <ele>129.9</ele>
        <time>2017-04-06T16:17:50Z</time>
      </trkpt>
      <trkpt lat="49.01025" lon="1.12255">
        <ele>129.9</ele>
        <time>2017-04-06T16:17:52Z</time>
      </trkpt>
      <trkpt lat="49.0103" lon="1.1227">
        <ele>129.8</ele>
        <time>2017-04-06T16:17:54Z</time>
      </trkpt>
      <trkpt lat="49.01033" lon="1.12283">
        <ele>129.7</ele>
        <time>2017-04-06T16:17:56Z</time>
      </trkpt>
      <trkpt lat="49.01036" lon="1.12299">
        <ele>129.6</ele>
        <time>2017-04-06T16:17:58Z</time>
      </trkpt>
      <trkpt lat="49.01039" lon="1.12315">
        <ele>129.5</ele>
        <time>2017-04-06T16:18:00Z</time>
      </trkpt>
      <trkpt lat="49.01044" lon="1.12331">
        <ele>129.5</ele>
        <time>2017-04-06T16:18:02Z</time>
      </trkpt>
      <trkpt lat="49.01048" lon="1.12346">
        <ele>129.4</ele>
        <time>2017-04-06T16:18:04Z</time>
      </trkpt>
      <trkpt lat="49.01052" lon="1.12361">
        <ele>129.4</ele>
        <time>2017-04-06T16:18:06Z</time>
      </trkpt>
      <trkpt lat="49.01057" lon="1.12376">
        <ele>129.3</ele>
        <time>2017-04-06T16:18:08Z</time>
      </trkpt>
      <trkpt lat="49.0106" lon="1.12391">
        <ele>129.3</ele>
        <time>2017-04-06T16:18:10Z</time>
      </trkpt>
      <trkpt lat="49.01063" lon="1.12406">
        <ele>129.3</ele>
        <time>2017-04-06T16:18:12Z</time>
      </trkpt>
      <trkpt lat="49.01067" lon="1.12421">
        <ele>129.3</ele>
        <time>2017-04-06T16:18:14Z</time>
      </trkpt>
      <trkpt lat="49.01071" lon="1.12434">
        <ele>129.4</ele>
        <time>2017-04-06T16:18:16Z</time>
      </trkpt>
      <trkpt lat="49.01074" lon="1.12448">
        <ele>129.4</ele>
        <time>2017-04-06T16:18:18Z</time>
      </trkpt>
      <trkpt lat="49.01077" lon="1.12464">
        <ele>129.4</ele>
        <time>2017-04-06T16:18:20Z</time>
      </trkpt>
      <trkpt lat="49.0108" lon="1.12478">
        <ele>129.5</ele>
        <time>2017-04-06T16:18:22Z</time>
      </trkpt>
      <trkpt lat="49.01082" lon="1.12493">
        <ele>129.6</ele>
        <time>2017-04-06T16:18:24Z</time>
      </trkpt>
      <trkpt lat="49.01084" lon="1.12507">
        <ele>129.7</ele>
        <time>2017-04-06T16:18:26Z</time>
      </trkpt>
      <trkpt lat="49.01085" lon="1.12523">
        <ele>129.8</ele>
        <time>2017-04-06T16:18:29Z</time>
      </trkpt>
      <trkpt lat="49.01087" lon="1.12537">
        <ele>129.9</ele>
        <time>2017-04-06T16:18:31Z</time>
      </trkpt>
      <trkpt lat="49.01087" lon="1.12552">
        <ele>130</ele>
        <time>2017-04-06T16:18:34Z</time>
      </trkpt>
      <trkpt lat="49.01086" lon="1.12567">
        <ele>130</ele>
        <time>2017-04-06T16:18:37Z</time>
      </trkpt>
      <trkpt lat="49.01085" lon="1.1258">
        <ele>130.1</ele>
        <time>2017-04-06T16:18:41Z</time>
      </trkpt>
      <trkpt lat="49.01087" lon="1.12597">
        <ele>130.3</ele>
        <time>2017-04-06T16:18:45Z</time>
      </trkpt>
      <trkpt lat="49.01091" lon="1.12611">
        <ele>130.5</ele>
        <time>2017-04-06T16:18:49Z</time>
      </trkpt>
      <trkpt lat="49.01093" lon="1.12627">
        <ele>130.6</ele>
        <time>2017-04-06T16:18:53Z</time>
      </trkpt>
      <trkpt lat="49.01096" lon="1.12643">
        <ele>130.8</ele>
        <time>2017-04-06T16:18:57Z</time>
      </trkpt>
      <trkpt lat="49.01095" lon="1.12658">
        <ele>130.9</ele>
        <time>2017-04-06T16:19:00Z</time>
      </trkpt>
      <trkpt lat="49.01097" lon="1.12676">
        <ele>130.9</ele>
        <time>2017-04-06T16:19:03Z</time>
      </trkpt>
      <trkpt lat="49.01098" lon="1.12695">
        <ele>131</ele>
        <time>2017-04-06T16:19:06Z</time>
      </trkpt>
      <trkpt lat="49.01093" lon="1.12708">
        <ele>131</ele>
        <time>2017-04-06T16:19:08Z</time>
      </trkpt>
      <trkpt lat="49.01086" lon="1.1272">
        <ele>131.1</ele>
        <time>2017-04-06T16:19:12Z</time>
      </trkpt>
      <trkpt lat="49.01078" lon="1.12733">
        <ele>131.1</ele>
        <time>2017-04-06T16:19:16Z</time>
      </trkpt>
      <trkpt lat="49.01069" lon="1.12747">
        <ele>131.1</ele>
        <time>2017-04-06T16:19:20Z</time>
      </trkpt>
      <trkpt lat="49.01061" lon="1.12762">
        <ele>131.3</ele>
        <time>2017-04-06T16:19:24Z</time>
      </trkpt>
      <trkpt lat="49.01054" lon="1.12775">
        <ele>131.4</ele>
        <time>2017-04-06T16:19:27Z</time>
      </trkpt>
      <trkpt lat="49.01056" lon="1.1279">
        <ele>131.5</ele>
        <time>2017-04-06T16:19:30Z</time>
      </trkpt>
      <trkpt lat="49.01065" lon="1.12806">
        <ele>131.6</ele>
        <time>2017-04-06T16:19:33Z</time>
      </trkpt>
      <trkpt lat="49.01073" lon="1.1282">
        <ele>131.6</ele>
        <time>2017-04-06T16:19:36Z</time>
      </trkpt>
      <trkpt lat="49.0108" lon="1.12836">
        <ele>131.5</ele>
        <time>2017-04-06T16:19:39Z</time>
      </trkpt>
      <trkpt lat="49.01089" lon="1.1285">
        <ele>131.5</ele>
        <time>2017-04-06T16:19:42Z</time>
      </trkpt>
      <trkpt lat="49.01096" lon="1.12863">
        <ele>131.4</ele>
        <time>2017-04-06T16:19:45Z</time>
      </trkpt>
      <trkpt lat="49.01102" lon="1.12879">
        <ele>131.3</ele>
        <time>2017-04-06T16:19:48Z</time>
      </trkpt>
      <trkpt lat="49.01113" lon="1.12887">
        <ele>131.3</ele>
        <time>2017-04-06T16:19:51Z</time>
      </trkpt>
      <trkpt lat="49.01124" lon="1.12896">
        <ele>131.2</ele>
        <time>2017-04-06T16:19:54Z</time>
      </trkpt>
      <trkpt lat="49.01135" lon="1.12892">
        <ele>131.1</ele>
        <time>2017-04-06T16:19:58Z</time>
      </trkpt>
      <trkpt lat="49.01144" lon="1.12878">
        <ele>131</ele>
        <time>2017-04-06T16:20:01Z</time>
      </trkpt>
      <trkpt lat="49.01155" lon="1.12865">
        <ele>130.9</ele>
        <time>2017-04-06T16:20:04Z</time>
      </trkpt>
      <trkpt lat="49.01162" lon="1.12855">
        <ele>130.8</ele>
        <time>2017-04-06T16:20:06Z</time>
      </trkpt>
      <trkpt lat="49.01168" lon="1.12845">
        <ele>130.7</ele>
        <time>2017-04-06T16:20:08Z</time>
      </trkpt>
      <trkpt lat="49.01174" lon="1.12834">
        <ele>130.7</ele>
        <time>2017-04-06T16:20:10Z</time>
      </trkpt>
      <trkpt lat="49.01182" lon="1.12823">
        <ele>130.5</ele>
        <time>2017-04-06T16:20:12Z</time>
      </trkpt>
      <trkpt lat="49.0119" lon="1.12815">
        <ele>130.4</ele>
        <time>2017-04-06T16:20:14Z</time>
      </trkpt>
      <trkpt lat="49.01199" lon="1.12809">
        <ele>130.2</ele>
        <time>2017-04-06T16:20:16Z</time>
      </trkpt>
      <trkpt lat="49.01209" lon="1.12805">
        <ele>130.1</ele>
        <time>2017-04-06T16:20:18Z</time>
      </trkpt>
      <trkpt lat="49.01218" lon="1.1281">
        <ele>129.9</ele>
        <time>2017-04-06T16:20:20Z</time>
      </trkpt>
      <trkpt lat="49.01221" lon="1.12828">
        <ele>129.6</ele>
        <time>2017-04-06T16:20:23Z</time>
      </trkpt>
      <trkpt lat="49.01227" lon="1.12846">
        <ele>129.3</ele>
        <time>2017-04-06T16:20:26Z</time>
      </trkpt>
      <trkpt lat="49.01234" lon="1.12864">
        <ele>129.1</ele>
        <time>2017-04-06T16:20:29Z</time>
      </trkpt>
      <trkpt lat="49.01238" lon="1.12877">
        <ele>128.9</ele>
        <time>2017-04-06T16:20:31Z</time>
      </trkpt>
      <trkpt lat="49.01243" lon="1.12891">
        <ele>128.8</ele>
        <time>2017-04-06T16:20:33Z</time>
      </trkpt>
      <trkpt lat="49.01249" lon="1.12905">
        <ele>128.7</ele>
        <time>2017-04-06T16:20:35Z</time>
      </trkpt>
      <trkpt lat="49.01253" lon="1.1292">
        <ele>128.5</ele>
        <time>2017-04-06T16:20:37Z</time>
      </trkpt>
      <trkpt lat="49.01256" lon="1.12936">
        <ele>128.2</ele>
        <time>2017-04-06T16:20:39Z</time>
      </trkpt>
      <trkpt lat="49.01262" lon="1.1295">
        <ele>127.9</ele>
        <time>2017-04-06T16:20:41Z</time>
      </trkpt>
      <trkpt lat="49.01268" lon="1.12967">
        <ele>127.5</ele>
        <time>2017-04-06T16:20:43Z</time>
      </trkpt>
      <trkpt lat="49.0127" lon="1.12984">
        <ele>127.1</ele>
        <time>2017-04-06T16:20:45Z</time>
      </trkpt>
      <trkpt lat="49.01274" lon="1.12999">
        <ele>126.5</ele>
        <time>2017-04-06T16:20:47Z</time>
      </trkpt>
      <trkpt lat="49.01276" lon="1.13016">
        <ele>125.8</ele>
        <time>2017-04-06T16:20:49Z</time>
      </trkpt>
      <trkpt lat="49.01279" lon="1.1303">
        <ele>124.9</ele>
        <time>2017-04-06T16:20:51Z</time>
      </trkpt>
      <trkpt lat="49.01283" lon="1.13047">
        <ele>124.2</ele>
        <time>2017-04-06T16:20:54Z</time>
      </trkpt>
      <trkpt lat="49.01285" lon="1.13062">
        <ele>123.8</ele>
        <time>2017-04-06T16:20:57Z</time>
      </trkpt>
      <trkpt lat="49.01287" lon="1.13077">
        <ele>123.6</ele>
        <time>2017-04-06T16:21:00Z</time>
      </trkpt>
      <trkpt lat="49.01291" lon="1.13093">
        <ele>123.6</ele>
        <time>2017-04-06T16:21:04Z</time>
      </trkpt>
      <trkpt lat="49.01295" lon="1.13108">
        <ele>123.7</ele>
        <time>2017-04-06T16:21:07Z</time>
      </trkpt>
      <trkpt lat="49.013" lon="1.13121">
        <ele>123.8</ele>
        <time>2017-04-06T16:21:10Z</time>
      </trkpt>
      <trkpt lat="49.01305" lon="1.13134">
        <ele>123.9</ele>
        <time>2017-04-06T16:21:13Z</time>
      </trkpt>
      <trkpt lat="49.01307" lon="1.13147">
        <ele>124.1</ele>
        <time>2017-04-06T16:21:16Z</time>
      </trkpt>
      <trkpt lat="49.01307" lon="1.13165">
        <ele>124.3</ele>
        <time>2017-04-06T16:21:20Z</time>
      </trkpt>
      <trkpt lat="49.01316" lon="1.13178">
        <ele>124.5</ele>
        <time>2017-04-06T16:21:23Z</time>
      </trkpt>
      <trkpt lat="49.01322" lon="1.1319">
        <ele>124.6</ele>
        <time>2017-04-06T16:21:26Z</time>
      </trkpt>
      <trkpt lat="49.01326" lon="1.13203">
        <ele>124.7</ele>
        <time>2017-04-06T16:21:29Z</time>
      </trkpt>
      <trkpt lat="49.01333" lon="1.1322">
        <ele>124.8</ele>
        <time>2017-04-06T16:21:32Z</time>
      </trkpt>
      <trkpt lat="49.01338" lon="1.13231">
        <ele>124.8</ele>
        <time>2017-04-06T16:21:34Z</time>
      </trkpt>
      <trkpt lat="49.01347" lon="1.13247">
        <ele>125</ele>
        <time>2017-04-06T16:21:37Z</time>
      </trkpt>
      <trkpt lat="49.01355" lon="1.13263">
        <ele>125.2</ele>
        <time>2017-04-06T16:21:40Z</time>
      </trkpt>
      <trkpt lat="49.0136" lon="1.13275">
        <ele>125.3</ele>
        <time>2017-04-06T16:21:42Z</time>
      </trkpt>
      <trkpt lat="49.01367" lon="1.13287">
        <ele>125.4</ele>
        <time>2017-04-06T16:21:44Z</time>
      </trkpt>
      <trkpt lat="49.01373" lon="1.13298">
        <ele>125.5</ele>
        <time>2017-04-06T16:21:46Z</time>
      </trkpt>
      <trkpt lat="49.01382" lon="1.13314">
        <ele>125.5</ele>
        <time>2017-04-06T16:21:49Z</time>
      </trkpt>
      <trkpt lat="49.01387" lon="1.13328">
        <ele>125.4</ele>
        <time>2017-04-06T16:21:52Z</time>
      </trkpt>
      <trkpt lat="49.01392" lon="1.13344">
        <ele>125.2</ele>
        <time>2017-04-06T16:21:56Z</time>
      </trkpt>
      <trkpt lat="49.014" lon="1.13357">
        <ele>125.1</ele>
        <time>2017-04-06T16:21:59Z</time>
      </trkpt>
      <trkpt lat="49.01409" lon="1.13369">
        <ele>124.9</ele>
        <time>2017-04-06T16:22:02Z</time>
      </trkpt>
      <trkpt lat="49.01415" lon="1.13383">
        <ele>124.7</ele>
        <time>2017-04-06T16:22:05Z</time>
      </trkpt>
      <trkpt lat="49.01425" lon="1.13397">
        <ele>124.4</ele>
        <time>2017-04-06T16:22:08Z</time>
      </trkpt>
      <trkpt lat="49.01432" lon="1.13408">
        <ele>124.2</ele>
        <time>2017-04-06T16:22:10Z</time>
      </trkpt>
      <trkpt lat="49.01439" lon="1.13422">
        <ele>123.8</ele>
        <time>2017-04-06T16:22:13Z</time>
      </trkpt>
      <trkpt lat="49.01449" lon="1.13436">
        <ele>123.5</ele>
        <time>2017-04-06T16:22:15Z</time>
      </trkpt>
      <trkpt lat="49.01456" lon="1.1345">
        <ele>123.1</ele>
        <time>2017-04-06T16:22:17Z</time>
      </trkpt>
      <trkpt lat="49.01465" lon="1.13453">
        <ele>121.5</ele>
        <time>2017-04-06T16:22:23Z</time>
      </trkpt>
      <trkpt lat="49.0147" lon="1.13439">
        <ele>120.7</ele>
        <time>2017-04-06T16:22:26Z</time>
      </trkpt>
      <trkpt lat="49.01472" lon="1.13422">
        <ele>120</ele>
        <time>2017-04-06T16:22:29Z</time>
      </trkpt>
      <trkpt lat="49.01472" lon="1.13404">
        <ele>119.4</ele>
        <time>2017-04-06T16:22:32Z</time>
      </trkpt>
      <trkpt lat="49.01481" lon="1.13403">
        <ele>118.7</ele>
        <time>2017-04-06T16:22:35Z</time>
      </trkpt>
      <trkpt lat="49.01493" lon="1.13409">
        <ele>118</ele>
        <time>2017-04-06T16:22:38Z</time>
      </trkpt>
      <trkpt lat="49.01503" lon="1.13416">
        <ele>117.5</ele>
        <time>2017-04-06T16:22:40Z</time>
      </trkpt>
      <trkpt lat="49.01509" lon="1.13427">
        <ele>116.9</ele>
        <time>2017-04-06T16:22:42Z</time>
      </trkpt>
      <trkpt lat="49.01513" lon="1.13445">
        <ele>116.1</ele>
        <time>2017-04-06T16:22:45Z</time>
      </trkpt>
      <trkpt lat="49.01517" lon="1.13457">
        <ele>115.7</ele>
        <time>2017-04-06T16:22:47Z</time>
      </trkpt>
      <trkpt lat="49.01519" lon="1.13472">
        <ele>115.3</ele>
        <time>2017-04-06T16:22:49Z</time>
      </trkpt>
      <trkpt lat="49.01524" lon="1.13489">
        <ele>114.8</ele>
        <time>2017-04-06T16:22:52Z</time>
      </trkpt>
      <trkpt lat="49.01525" lon="1.13505">
        <ele>114.5</ele>
        <time>2017-04-06T16:22:54Z</time>
      </trkpt>
      <trkpt lat="49.01529" lon="1.1352">
        <ele>114.2</ele>
        <time>2017-04-06T16:22:56Z</time>
      </trkpt>
      <trkpt lat="49.0153" lon="1.13539">
        <ele>114</ele>
        <time>2017-04-06T16:22:58Z</time>
      </trkpt>
      <trkpt lat="49.0153" lon="1.13556">
        <ele>113.8</ele>
        <time>2017-04-06T16:23:00Z</time>
      </trkpt>
      <trkpt lat="49.01528" lon="1.1357">
        <ele>113.5</ele>
        <time>2017-04-06T16:23:03Z</time>
      </trkpt>
      <trkpt lat="49.01531" lon="1.13583">
        <ele>112.6</ele>
        <time>2017-04-06T16:23:06Z</time>
      </trkpt>
      <trkpt lat="49.01542" lon="1.13593">
        <ele>110.7</ele>
        <time>2017-04-06T16:23:12Z</time>
      </trkpt>
      <trkpt lat="49.01547" lon="1.13611">
        <ele>109.1</ele>
        <time>2017-04-06T16:23:16Z</time>
      </trkpt>
      <trkpt lat="49.0155" lon="1.13627">
        <ele>108.3</ele>
        <time>2017-04-06T16:23:18Z</time>
      </trkpt>
      <trkpt lat="49.01555" lon="1.13639">
        <ele>107.5</ele>
        <time>2017-04-06T16:23:20Z</time>
      </trkpt>
      <trkpt lat="49.01558" lon="1.13656">
        <ele>106</ele>
        <time>2017-04-06T16:23:23Z</time>
      </trkpt>
      <trkpt lat="49.01573" lon="1.13659">
        <ele>104.3</ele>
        <time>2017-04-06T16:23:26Z</time>
      </trkpt>
      <trkpt lat="49.01584" lon="1.13657">
        <ele>103.2</ele>
        <time>2017-04-06T16:23:28Z</time>
      </trkpt>
      <trkpt lat="49.01599" lon="1.13664">
        <ele>102.2</ele>
        <time>2017-04-06T16:23:30Z</time>
      </trkpt>
      <trkpt lat="49.01614" lon="1.13671">
        <ele>101.1</ele>
        <time>2017-04-06T16:23:32Z</time>
      </trkpt>
      <trkpt lat="49.01631" lon="1.13671">
        <ele>99.8</ele>
        <time>2017-04-06T16:23:34Z</time>
      </trkpt>
      <trkpt lat="49.01642" lon="1.13667">
        <ele>98.7</ele>
        <time>2017-04-06T16:23:36Z</time>
      </trkpt>
      <trkpt lat="49.01649" lon="1.13657">
        <ele>97.7</ele>
        <time>2017-04-06T16:23:38Z</time>
      </trkpt>
      <trkpt lat="49.01651" lon="1.13637">
        <ele>96.4</ele>
        <time>2017-04-06T16:23:41Z</time>
      </trkpt>
      <trkpt lat="49.0165" lon="1.13619">
        <ele>95.4</ele>
        <time>2017-04-06T16:23:44Z</time>
      </trkpt>
      <trkpt lat="49.0165" lon="1.13599">
        <ele>94.5</ele>
        <time>2017-04-06T16:23:47Z</time>
      </trkpt>
      <trkpt lat="49.01651" lon="1.13579">
        <ele>93.8</ele>
        <time>2017-04-06T16:23:50Z</time>
      </trkpt>
      <trkpt lat="49.01651" lon="1.13559">
        <ele>93.2</ele>
        <time>2017-04-06T16:23:53Z</time>
      </trkpt>
      <trkpt lat="49.01652" lon="1.1354">
        <ele>92.7</ele>
        <time>2017-04-06T16:23:56Z</time>
      </trkpt>
      <trkpt lat="49.01651" lon="1.13521">
        <ele>92.3</ele>
        <time>2017-04-06T16:23:59Z</time>
      </trkpt>
      <trkpt lat="49.01651" lon="1.13501">
        <ele>92</ele>
        <time>2017-04-06T16:24:02Z</time>
      </trkpt>
      <trkpt lat="49.01652" lon="1.13487">
        <ele>91.8</ele>
        <time>2017-04-06T16:24:04Z</time>
      </trkpt>
      <trkpt lat="49.01653" lon="1.13471">
        <ele>91.6</ele>
        <time>2017-04-06T16:24:06Z</time>
      </trkpt>
      <trkpt lat="49.01655" lon="1.13452">
        <ele>91.5</ele>
        <time>2017-04-06T16:24:08Z</time>
      </trkpt>
      <trkpt lat="49.01657" lon="1.13434">
        <ele>91.3</ele>
        <time>2017-04-06T16:24:10Z</time>
      </trkpt>
      <trkpt lat="49.01659" lon="1.13415">
        <ele>91.2</ele>
        <time>2017-04-06T16:24:12Z</time>
      </trkpt>
      <trkpt lat="49.01663" lon="1.13396">
        <ele>91</ele>
        <time>2017-04-06T16:24:14Z</time>
      </trkpt>
      <trkpt lat="49.01667" lon="1.13378">
        <ele>90.8</ele>
        <time>2017-04-06T16:24:16Z</time>
      </trkpt>
      <trkpt lat="49.01671" lon="1.13359">
        <ele>90.7</ele>
        <time>2017-04-06T16:24:18Z</time>
      </trkpt>
      <trkpt lat="49.01675" lon="1.1334">
        <ele>90.5</ele>
        <time>2017-04-06T16:24:20Z</time>
      </trkpt>
      <trkpt lat="49.01679" lon="1.13321">
        <ele>90.3</ele>
        <time>2017-04-06T16:24:22Z</time>
      </trkpt>
      <trkpt lat="49.01684" lon="1.13304">
        <ele>90.2</ele>
        <time>2017-04-06T16:24:24Z</time>
      </trkpt>
      <trkpt lat="49.01689" lon="1.13284">
        <ele>90</ele>
        <time>2017-04-06T16:24:26Z</time>
      </trkpt>
      <trkpt lat="49.01695" lon="1.13267">
        <ele>89.9</ele>
        <time>2017-04-06T16:24:28Z</time>
      </trkpt>
      <trkpt lat="49.01701" lon="1.13249">
        <ele>89.8</ele>
        <time>2017-04-06T16:24:30Z</time>
      </trkpt>
      <trkpt lat="49.01707" lon="1.13232">
        <ele>89.6</ele>
        <time>2017-04-06T16:24:32Z</time>
      </trkpt>
      <trkpt lat="49.01713" lon="1.13216">
        <ele>89.5</ele>
        <time>2017-04-06T16:24:34Z</time>
      </trkpt>
      <trkpt lat="49.01718" lon="1.13199">
        <ele>89.4</ele>
        <time>2017-04-06T16:24:36Z</time>
      </trkpt>
      <trkpt lat="49.01723" lon="1.13185">
        <ele>89.2</ele>
        <time>2017-04-06T16:24:38Z</time>
      </trkpt>
      <trkpt lat="49.01729" lon="1.13173">
        <ele>89</ele>
        <time>2017-04-06T16:24:40Z</time>
      </trkpt>
      <trkpt lat="49.01736" lon="1.13161">
        <ele>88.9</ele>
        <time>2017-04-06T16:24:42Z</time>
      </trkpt>
      <trkpt lat="49.01743" lon="1.13145">
        <ele>88.7</ele>
        <time>2017-04-06T16:24:44Z</time>
      </trkpt>
      <trkpt lat="49.01751" lon="1.13128">
        <ele>88.5</ele>
        <time>2017-04-06T16:24:46Z</time>
      </trkpt>
      <trkpt lat="49.01759" lon="1.13112">
        <ele>88.4</ele>
        <time>2017-04-06T16:24:48Z</time>
      </trkpt>
      <trkpt lat="49.01768" lon="1.13097">
        <ele>88.2</ele>
        <time>2017-04-06T16:24:50Z</time>
      </trkpt>
      <trkpt lat="49.01778" lon="1.13082">
        <ele>88.1</ele>
        <time>2017-04-06T16:24:52Z</time>
      </trkpt>
      <trkpt lat="49.01787" lon="1.13069">
        <ele>87.9</ele>
        <time>2017-04-06T16:24:54Z</time>
      </trkpt>
      <trkpt lat="49.01797" lon="1.13055">
        <ele>87.8</ele>
        <time>2017-04-06T16:24:56Z</time>
      </trkpt>
      <trkpt lat="49.01807" lon="1.13041">
        <ele>87.7</ele>
        <time>2017-04-06T16:24:58Z</time>
      </trkpt>
      <trkpt lat="49.01817" lon="1.13028">
        <ele>87.6</ele>
        <time>2017-04-06T16:25:00Z</time>
      </trkpt>
      <trkpt lat="49.01827" lon="1.13015">
        <ele>87.6</ele>
        <time>2017-04-06T16:25:02Z</time>
      </trkpt>
      <trkpt lat="49.01838" lon="1.13003">
        <ele>87.4</ele>
        <time>2017-04-06T16:25:04Z</time>
      </trkpt>
      <trkpt lat="49.01848" lon="1.1299">
        <ele>87.3</ele>
        <time>2017-04-06T16:25:06Z</time>
      </trkpt>
      <trkpt lat="49.01859" lon="1.12978">
        <ele>87.2</ele>
        <time>2017-04-06T16:25:08Z</time>
      </trkpt>
      <trkpt lat="49.0187" lon="1.12967">
        <ele>87.1</ele>
        <time>2017-04-06T16:25:10Z</time>
      </trkpt>
      <trkpt lat="49.01881" lon="1.12957">
        <ele>87</ele>
        <time>2017-04-06T16:25:12Z</time>
      </trkpt>
      <trkpt lat="49.01892" lon="1.12947">
        <ele>86.8</ele>
        <time>2017-04-06T16:25:14Z</time>
      </trkpt>
      <trkpt lat="49.01904" lon="1.12938">
        <ele>86.7</ele>
        <time>2017-04-06T16:25:16Z</time>
      </trkpt>
      <trkpt lat="49.01915" lon="1.12928">
        <ele>86.6</ele>
        <time>2017-04-06T16:25:18Z</time>
      </trkpt>
      <trkpt lat="49.01926" lon="1.1292">
        <ele>86.5</ele>
        <time>2017-04-06T16:25:20Z</time>
      </trkpt>
      <trkpt lat="49.01938" lon="1.1291">
        <ele>86.3</ele>
        <time>2017-04-06T16:25:22Z</time>
      </trkpt>
      <trkpt lat="49.01949" lon="1.129">
        <ele>86.2</ele>
        <time>2017-04-06T16:25:24Z</time>
      </trkpt>
      <trkpt lat="49.0196" lon="1.12891">
        <ele>86.1</ele>
        <time>2017-04-06T16:25:26Z</time>
      </trkpt>
      <trkpt lat="49.01972" lon="1.12881">
        <ele>85.9</ele>
        <time>2017-04-06T16:25:28Z</time>
      </trkpt>
      <trkpt lat="49.01982" lon="1.12872">
        <ele>85.8</ele>
        <time>2017-04-06T16:25:30Z</time>
      </trkpt>
      <trkpt lat="49.01993" lon="1.12862">
        <ele>85.6</ele>
        <time>2017-04-06T16:25:32Z</time>
      </trkpt>
      <trkpt lat="49.02004" lon="1.12852">
        <ele>85.5</ele>
        <time>2017-04-06T16:25:34Z</time>
      </trkpt>
      <trkpt lat="49.02015" lon="1.12841">
        <ele>85.3</ele>
        <time>2017-04-06T16:25:36Z</time>
      </trkpt>
      <trkpt lat="49.02025" lon="1.12831">
        <ele>85.2</ele>
        <time>2017-04-06T16:25:38Z</time>
      </trkpt>
      <trkpt lat="49.02038" lon="1.12821">
        <ele>85</ele>
        <time>2017-04-06T16:25:40Z</time>
      </trkpt>
      <trkpt lat="49.02049" lon="1.12811">
        <ele>84.8</ele>
        <time>2017-04-06T16:25:42Z</time>
      </trkpt>
      <trkpt lat="49.02061" lon="1.128">
        <ele>84.6</ele>
        <time>2017-04-06T16:25:44Z</time>
      </trkpt>
      <trkpt lat="49.02072" lon="1.12787">
        <ele>84.4</ele>
        <time>2017-04-06T16:25:46Z</time>
      </trkpt>
      <trkpt lat="49.02083" lon="1.12773">
        <ele>84.2</ele>
        <time>2017-04-06T16:25:48Z</time>
      </trkpt>
      <trkpt lat="49.02094" lon="1.12759">
        <ele>84</ele>
        <time>2017-04-06T16:25:50Z</time>
      </trkpt>
      <trkpt lat="49.02105" lon="1.12747">
        <ele>83.9</ele>
        <time>2017-04-06T16:25:52Z</time>
      </trkpt>
      <trkpt lat="49.02115" lon="1.12733">
        <ele>83.7</ele>
        <time>2017-04-06T16:25:54Z</time>
      </trkpt>
      <trkpt lat="49.02125" lon="1.12721">
        <ele>83.6</ele>
        <time>2017-04-06T16:25:56Z</time>
      </trkpt>
      <trkpt lat="49.02134" lon="1.12707">
        <ele>83.4</ele>
        <time>2017-04-06T16:25:58Z</time>
      </trkpt>
      <trkpt lat="49.02144" lon="1.12693">
        <ele>83.3</ele>
        <time>2017-04-06T16:26:00Z</time>
      </trkpt>
      <trkpt lat="49.02153" lon="1.12679">
        <ele>83.2</ele>
        <time>2017-04-06T16:26:02Z</time>
      </trkpt>
      <trkpt lat="49.02162" lon="1.12665">
        <ele>83.1</ele>
        <time>2017-04-06T16:26:04Z</time>
      </trkpt>
      <trkpt lat="49.02171" lon="1.12652">
        <ele>83</ele>
        <time>2017-04-06T16:26:06Z</time>
      </trkpt>
      <trkpt lat="49.02181" lon="1.12638">
        <ele>83</ele>
        <time>2017-04-06T16:26:08Z</time>
      </trkpt>
      <trkpt lat="49.0219" lon="1.12624">
        <ele>82.9</ele>
        <time>2017-04-06T16:26:10Z</time>
      </trkpt>
      <trkpt lat="49.02199" lon="1.12609">
        <ele>82.9</ele>
        <time>2017-04-06T16:26:12Z</time>
      </trkpt>
      <trkpt lat="49.02208" lon="1.12595">
        <ele>82.8</ele>
        <time>2017-04-06T16:26:14Z</time>
      </trkpt>
      <trkpt lat="49.02216" lon="1.12582">
        <ele>82.8</ele>
        <time>2017-04-06T16:26:16Z</time>
      </trkpt>
      <trkpt lat="49.02224" lon="1.12568">
        <ele>82.7</ele>
        <time>2017-04-06T16:26:18Z</time>
      </trkpt>
      <trkpt lat="49.02233" lon="1.12555">
        <ele>82.7</ele>
        <time>2017-04-06T16:26:20Z</time>
      </trkpt>
      <trkpt lat="49.02241" lon="1.12542">
        <ele>82.7</ele>
        <time>2017-04-06T16:26:22Z</time>
      </trkpt>
      <trkpt lat="49.02249" lon="1.12529">
        <ele>82.7</ele>
        <time>2017-04-06T16:26:24Z</time>
      </trkpt>
      <trkpt lat="49.02258" lon="1.12517">
        <ele>82.6</ele>
        <time>2017-04-06T16:26:26Z</time>
      </trkpt>
      <trkpt lat="49.02267" lon="1.12505">
        <ele>82.6</ele>
        <time>2017-04-06T16:26:28Z</time>
      </trkpt>
      <trkpt lat="49.02276" lon="1.12491">
        <ele>82.6</ele>
        <time>2017-04-06T16:26:30Z</time>
      </trkpt>
      <trkpt lat="49.02285" lon="1.12479">
        <ele>82.6</ele>
        <time>2017-04-06T16:26:32Z</time>
      </trkpt>
      <trkpt lat="49.02295" lon="1.12467">
        <ele>82.6</ele>
        <time>2017-04-06T16:26:34Z</time>
      </trkpt>
      <trkpt lat="49.02305" lon="1.12455">
        <ele>82.6</ele>
        <time>2017-04-06T16:26:36Z</time>
      </trkpt>
      <trkpt lat="49.02315" lon="1.12442">
        <ele>82.6</ele>
        <time>2017-04-06T16:26:38Z</time>
      </trkpt>
      <trkpt lat="49.02324" lon="1.12431">
        <ele>82.7</ele>
        <time>2017-04-06T16:26:40Z</time>
      </trkpt>
      <trkpt lat="49.02334" lon="1.1242">
        <ele>82.9</ele>
        <time>2017-04-06T16:26:42Z</time>
      </trkpt>
      <trkpt lat="49.02346" lon="1.12412">
        <ele>83</ele>
        <time>2017-04-06T16:26:44Z</time>
      </trkpt>
      <trkpt lat="49.02356" lon="1.12402">
        <ele>83.1</ele>
        <time>2017-04-06T16:26:46Z</time>
      </trkpt>
      <trkpt lat="49.02365" lon="1.12391">
        <ele>83.2</ele>
        <time>2017-04-06T16:26:48Z</time>
      </trkpt>
      <trkpt lat="49.02375" lon="1.12381">
        <ele>83.2</ele>
        <time>2017-04-06T16:26:50Z</time>
      </trkpt>
      <trkpt lat="49.02386" lon="1.12373">
        <ele>83.3</ele>
        <time>2017-04-06T16:26:52Z</time>
      </trkpt>
      <trkpt lat="49.02396" lon="1.12366">
        <ele>83.4</ele>
        <time>2017-04-06T16:26:54Z</time>
      </trkpt>
      <trkpt lat="49.02407" lon="1.12359">
        <ele>83.5</ele>
        <time>2017-04-06T16:26:56Z</time>
      </trkpt>
      <trkpt lat="49.02417" lon="1.12353">
        <ele>83.6</ele>
        <time>2017-04-06T16:26:58Z</time>
      </trkpt>
      <trkpt lat="49.02426" lon="1.12347">
        <ele>83.7</ele>
        <time>2017-04-06T16:27:00Z</time>
      </trkpt>
      <trkpt lat="49.02435" lon="1.12342">
        <ele>83.8</ele>
        <time>2017-04-06T16:27:02Z</time>
      </trkpt>
      <trkpt lat="49.02444" lon="1.12338">
        <ele>83.9</ele>
        <time>2017-04-06T16:27:04Z</time>
      </trkpt>
      <trkpt lat="49.02455" lon="1.12332">
        <ele>84</ele>
        <time>2017-04-06T16:27:06Z</time>
      </trkpt>
      <trkpt lat="49.02465" lon="1.12327">
        <ele>84.1</ele>
        <time>2017-04-06T16:27:08Z</time>
      </trkpt>
      <trkpt lat="49.02477" lon="1.12323">
        <ele>84.2</ele>
        <time>2017-04-06T16:27:10Z</time>
      </trkpt>
      <trkpt lat="49.02488" lon="1.12319">
        <ele>84.3</ele>
        <time>2017-04-06T16:27:12Z</time>
      </trkpt>
      <trkpt lat="49.02499" lon="1.12316">
        <ele>84.4</ele>
        <time>2017-04-06T16:27:14Z</time>
      </trkpt>
      <trkpt lat="49.0251" lon="1.12313">
        <ele>84.5</ele>
        <time>2017-04-06T16:27:16Z</time>
      </trkpt>
      <trkpt lat="49.02522" lon="1.1231">
        <ele>84.6</ele>
        <time>2017-04-06T16:27:18Z</time>
      </trkpt>
      <trkpt lat="49.02534" lon="1.12308">
        <ele>84.8</ele>
        <time>2017-04-06T16:27:20Z</time>
      </trkpt>
      <trkpt lat="49.02545" lon="1.12306">
        <ele>84.9</ele>
        <time>2017-04-06T16:27:22Z</time>
      </trkpt>
      <trkpt lat="49.02558" lon="1.12305">
        <ele>85</ele>
        <time>2017-04-06T16:27:24Z</time>
      </trkpt>
      <trkpt lat="49.0257" lon="1.12304">
        <ele>85.2</ele>
        <time>2017-04-06T16:27:26Z</time>
      </trkpt>
      <trkpt lat="49.02582" lon="1.12304">
        <ele>85.3</ele>
        <time>2017-04-06T16:27:28Z</time>
      </trkpt>
      <trkpt lat="49.02594" lon="1.12304">
        <ele>85.5</ele>
        <time>2017-04-06T16:27:30Z</time>
      </trkpt>
      <trkpt lat="49.02606" lon="1.12305">
        <ele>85.6</ele>
        <time>2017-04-06T16:27:32Z</time>
      </trkpt>
      <trkpt lat="49.02617" lon="1.12306">
        <ele>85.7</ele>
        <time>2017-04-06T16:27:34Z</time>
      </trkpt>
      <trkpt lat="49.02628" lon="1.12308">
        <ele>85.8</ele>
        <time>2017-04-06T16:27:36Z</time>
      </trkpt>
      <trkpt lat="49.02639" lon="1.1231">
        <ele>85.9</ele>
        <time>2017-04-06T16:27:38Z</time>
      </trkpt>
      <trkpt lat="49.0265" lon="1.12311">
        <ele>86.1</ele>
        <time>2017-04-06T16:27:40Z</time>
      </trkpt>
      <trkpt lat="49.02662" lon="1.12313">
        <ele>86.2</ele>
        <time>2017-04-06T16:27:42Z</time>
      </trkpt>
      <trkpt lat="49.02673" lon="1.12316">
        <ele>86.3</ele>
        <time>2017-04-06T16:27:44Z</time>
      </trkpt>
      <trkpt lat="49.02685" lon="1.12318">
        <ele>86.4</ele>
        <time>2017-04-06T16:27:46Z</time>
      </trkpt>
      <trkpt lat="49.02697" lon="1.1232">
        <ele>86.5</ele>
        <time>2017-04-06T16:27:48Z</time>
      </trkpt>
      <trkpt lat="49.02709" lon="1.12322">
        <ele>86.6</ele>
        <time>2017-04-06T16:27:50Z</time>
      </trkpt>
      <trkpt lat="49.0272" lon="1.12324">
        <ele>86.8</ele>
        <time>2017-04-06T16:27:52Z</time>
      </trkpt>
      <trkpt lat="49.02731" lon="1.12325">
        <ele>86.8</ele>
        <time>2017-04-06T16:27:54Z</time>
      </trkpt>
      <trkpt lat="49.02743" lon="1.12327">
        <ele>87</ele>
        <time>2017-04-06T16:27:56Z</time>
      </trkpt>
      <trkpt lat="49.02754" lon="1.12329">
        <ele>87.1</ele>
        <time>2017-04-06T16:27:58Z</time>
      </trkpt>
      <trkpt lat="49.02765" lon="1.12331">
        <ele>87.3</ele>
        <time>2017-04-06T16:28:00Z</time>
      </trkpt>
      <trkpt lat="49.02777" lon="1.12333">
        <ele>87.4</ele>
        <time>2017-04-06T16:28:02Z</time>
      </trkpt>
      <trkpt lat="49.02788" lon="1.12334">
        <ele>87.5</ele>
        <time>2017-04-06T16:28:04Z</time>
      </trkpt>
      <trkpt lat="49.02799" lon="1.12336">
        <ele>87.6</ele>
        <time>2017-04-06T16:28:06Z</time>
      </trkpt>
      <trkpt lat="49.0281" lon="1.12337">
        <ele>87.8</ele>
        <time>2017-04-06T16:28:08Z</time>
      </trkpt>
      <trkpt lat="49.02821" lon="1.12339">
        <ele>87.9</ele>
        <time>2017-04-06T16:28:10Z</time>
      </trkpt>
      <trkpt lat="49.02833" lon="1.12341">
        <ele>88</ele>
        <time>2017-04-06T16:28:12Z</time>
      </trkpt>
      <trkpt lat="49.02845" lon="1.12344">
        <ele>88.1</ele>
        <time>2017-04-06T16:28:14Z</time>
      </trkpt>
      <trkpt lat="49.02857" lon="1.12346">
        <ele>88.3</ele>
        <time>2017-04-06T16:28:16Z</time>
      </trkpt>
      <trkpt lat="49.02869" lon="1.12348">
        <ele>88.4</ele>
        <time>2017-04-06T16:28:18Z</time>
      </trkpt>
      <trkpt lat="49.02881" lon="1.1235">
        <ele>88.5</ele>
        <time>2017-04-06T16:28:20Z</time>
      </trkpt>
      <trkpt lat="49.02893" lon="1.12352">
        <ele>88.7</ele>
        <time>2017-04-06T16:28:22Z</time>
      </trkpt>
      <trkpt lat="49.02905" lon="1.12354">
        <ele>88.8</ele>
        <time>2017-04-06T16:28:24Z</time>
      </trkpt>
      <trkpt lat="49.02917" lon="1.12357">
        <ele>88.9</ele>
        <time>2017-04-06T16:28:26Z</time>
      </trkpt>
      <trkpt lat="49.0293" lon="1.12358">
        <ele>89</ele>
        <time>2017-04-06T16:28:28Z</time>
      </trkpt>
      <trkpt lat="49.02942" lon="1.1236">
        <ele>89.2</ele>
        <time>2017-04-06T16:28:30Z</time>
      </trkpt>
      <trkpt lat="49.02953" lon="1.12363">
        <ele>89.3</ele>
        <time>2017-04-06T16:28:32Z</time>
      </trkpt>
      <trkpt lat="49.02965" lon="1.12365">
        <ele>89.4</ele>
        <time>2017-04-06T16:28:34Z</time>
      </trkpt>
      <trkpt lat="49.02976" lon="1.12366">
        <ele>89.6</ele>
        <time>2017-04-06T16:28:36Z</time>
      </trkpt>
      <trkpt lat="49.02988" lon="1.12369">
        <ele>89.7</ele>
        <time>2017-04-06T16:28:38Z</time>
      </trkpt>
      <trkpt lat="49.03" lon="1.12371">
        <ele>89.9</ele>
        <time>2017-04-06T16:28:40Z</time>
      </trkpt>
      <trkpt lat="49.03012" lon="1.12373">
        <ele>90.1</ele>
        <time>2017-04-06T16:28:42Z</time>
      </trkpt>
      <trkpt lat="49.03023" lon="1.12374">
        <ele>90.3</ele>
        <time>2017-04-06T16:28:44Z</time>
      </trkpt>
      <trkpt lat="49.03035" lon="1.12376">
        <ele>90.4</ele>
        <time>2017-04-06T16:28:46Z</time>
      </trkpt>
      <trkpt lat="49.03047" lon="1.12377">
        <ele>90.6</ele>
        <time>2017-04-06T16:28:48Z</time>
      </trkpt>
      <trkpt lat="49.03059" lon="1.12378">
        <ele>90.7</ele>
        <time>2017-04-06T16:28:50Z</time>
      </trkpt>
      <trkpt lat="49.03069" lon="1.12378">
        <ele>90.9</ele>
        <time>2017-04-06T16:28:52Z</time>
      </trkpt>
      <trkpt lat="49.0308" lon="1.12378">
        <ele>91</ele>
        <time>2017-04-06T16:28:54Z</time>
      </trkpt>
      <trkpt lat="49.03091" lon="1.12378">
        <ele>91.2</ele>
        <time>2017-04-06T16:28:56Z</time>
      </trkpt>
      <trkpt lat="49.03103" lon="1.12377">
        <ele>91.3</ele>
        <time>2017-04-06T16:28:58Z</time>
      </trkpt>
      <trkpt lat="49.03115" lon="1.12375">
        <ele>91.5</ele>
        <time>2017-04-06T16:29:00Z</time>
      </trkpt>
      <trkpt lat="49.03127" lon="1.12372">
        <ele>91.6</ele>
        <time>2017-04-06T16:29:02Z</time>
      </trkpt>
      <trkpt lat="49.03139" lon="1.1237">
        <ele>91.7</ele>
        <time>2017-04-06T16:29:04Z</time>
      </trkpt>
      <trkpt lat="49.03153" lon="1.12367">
        <ele>91.8</ele>
        <time>2017-04-06T16:29:06Z</time>
      </trkpt>
      <trkpt lat="49.03165" lon="1.12364">
        <ele>91.9</ele>
        <time>2017-04-06T16:29:08Z</time>
      </trkpt>
      <trkpt lat="49.03177" lon="1.12359">
        <ele>92</ele>
        <time>2017-04-06T16:29:10Z</time>
      </trkpt>
      <trkpt lat="49.03189" lon="1.12356">
        <ele>92.1</ele>
        <time>2017-04-06T16:29:12Z</time>
      </trkpt>
      <trkpt lat="49.032" lon="1.1235">
        <ele>92.2</ele>
        <time>2017-04-06T16:29:14Z</time>
      </trkpt>
      <trkpt lat="49.03212" lon="1.12344">
        <ele>92.3</ele>
        <time>2017-04-06T16:29:16Z</time>
      </trkpt>
      <trkpt lat="49.03224" lon="1.12338">
        <ele>92.4</ele>
        <time>2017-04-06T16:29:18Z</time>
      </trkpt>
      <trkpt lat="49.03236" lon="1.12331">
        <ele>92.5</ele>
        <time>2017-04-06T16:29:20Z</time>
      </trkpt>
      <trkpt lat="49.03247" lon="1.12323">
        <ele>92.6</ele>
        <time>2017-04-06T16:29:22Z</time>
      </trkpt>
      <trkpt lat="49.03259" lon="1.12316">
        <ele>92.7</ele>
        <time>2017-04-06T16:29:24Z</time>
      </trkpt>
      <trkpt lat="49.0327" lon="1.12308">
        <ele>92.8</ele>
        <time>2017-04-06T16:29:26Z</time>
      </trkpt>
      <trkpt lat="49.03282" lon="1.12299">
        <ele>93</ele>
        <time>2017-04-06T16:29:28Z</time>
      </trkpt>
      <trkpt lat="49.03293" lon="1.1229">
        <ele>93.1</ele>
        <time>2017-04-06T16:29:30Z</time>
      </trkpt>
      <trkpt lat="49.03305" lon="1.12281">
        <ele>93.2</ele>
        <time>2017-04-06T16:29:32Z</time>
      </trkpt>
      <trkpt lat="49.03315" lon="1.1227">
        <ele>93.3</ele>
        <time>2017-04-06T16:29:34Z</time>
      </trkpt>
      <trkpt lat="49.03326" lon="1.1226">
        <ele>93.3</ele>
        <time>2017-04-06T16:29:36Z</time>
      </trkpt>
      <trkpt lat="49.03337" lon="1.1225">
        <ele>93.5</ele>
        <time>2017-04-06T16:29:38Z</time>
      </trkpt>
      <trkpt lat="49.03347" lon="1.12238">
        <ele>93.6</ele>
        <time>2017-04-06T16:29:40Z</time>
      </trkpt>
      <trkpt lat="49.03356" lon="1.12225">
        <ele>93.8</ele>
        <time>2017-04-06T16:29:42Z</time>
      </trkpt>
      <trkpt lat="49.03366" lon="1.12213">
        <ele>93.9</ele>
        <time>2017-04-06T16:29:44Z</time>
      </trkpt>
      <trkpt lat="49.03376" lon="1.12201">
        <ele>94</ele>
        <time>2017-04-06T16:29:46Z</time>
      </trkpt>
      <trkpt lat="49.03385" lon="1.12188">
        <ele>94.1</ele>
        <time>2017-04-06T16:29:48Z</time>
      </trkpt>
      <trkpt lat="49.03394" lon="1.12174">
        <ele>94.3</ele>
        <time>2017-04-06T16:29:50Z</time>
      </trkpt>
      <trkpt lat="49.03403" lon="1.1216">
        <ele>94.4</ele>
        <time>2017-04-06T16:29:52Z</time>
      </trkpt>
      <trkpt lat="49.03412" lon="1.12147">
        <ele>94.5</ele>
        <time>2017-04-06T16:29:54Z</time>
      </trkpt>
      <trkpt lat="49.0342" lon="1.12132">
        <ele>94.7</ele>
        <time>2017-04-06T16:29:56Z</time>
      </trkpt>
      <trkpt lat="49.03428" lon="1.12118">
        <ele>94.8</ele>
        <time>2017-04-06T16:29:58Z</time>
      </trkpt>
      <trkpt lat="49.03436" lon="1.12103">
        <ele>94.9</ele>
        <time>2017-04-06T16:30:00Z</time>
      </trkpt>
      <trkpt lat="49.03443" lon="1.12088">
        <ele>95.1</ele>
        <time>2017-04-06T16:30:02Z</time>
      </trkpt>
      <trkpt lat="49.0345" lon="1.12074">
        <ele>95.2</ele>
        <time>2017-04-06T16:30:04Z</time>
      </trkpt>
      <trkpt lat="49.03458" lon="1.12059">
        <ele>95.4</ele>
        <time>2017-04-06T16:30:06Z</time>
      </trkpt>
      <trkpt lat="49.03466" lon="1.12046">
        <ele>95.5</ele>
        <time>2017-04-06T16:30:08Z</time>
      </trkpt>
      <trkpt lat="49.03471" lon="1.12031">
        <ele>95.7</ele>
        <time>2017-04-06T16:30:10Z</time>
      </trkpt>
      <trkpt lat="49.03472" lon="1.12014">
        <ele>95.9</ele>
        <time>2017-04-06T16:30:12Z</time>
      </trkpt>
      <trkpt lat="49.03471" lon="1.11997">
        <ele>96.1</ele>
        <time>2017-04-06T16:30:14Z</time>
      </trkpt>
      <trkpt lat="49.03472" lon="1.11982">
        <ele>96.4</ele>
        <time>2017-04-06T16:30:16Z</time>
      </trkpt>
      <trkpt lat="49.03472" lon="1.11968">
        <ele>96.6</ele>
        <time>2017-04-06T16:30:18Z</time>
      </trkpt>
      <trkpt lat="49.03471" lon="1.11954">
        <ele>96.9</ele>
        <time>2017-04-06T16:30:20Z</time>
      </trkpt>
      <trkpt lat="49.03465" lon="1.11936">
        <ele>97.4</ele>
        <time>2017-04-06T16:30:23Z</time>
      </trkpt>
      <trkpt lat="49.03457" lon="1.11921">
        <ele>98</ele>
        <time>2017-04-06T16:30:26Z</time>
      </trkpt>
      <trkpt lat="49.03451" lon="1.11903">
        <ele>98.6</ele>
        <time>2017-04-06T16:30:29Z</time>
      </trkpt>
      <trkpt lat="49.03448" lon="1.1189">
        <ele>99</ele>
        <time>2017-04-06T16:30:31Z</time>
      </trkpt>
      <trkpt lat="49.03444" lon="1.11871">
        <ele>99.7</ele>
        <time>2017-04-06T16:30:34Z</time>
      </trkpt>
      <trkpt lat="49.03438" lon="1.11852">
        <ele>100.3</ele>
        <time>2017-04-06T16:30:37Z</time>
      </trkpt>
      <trkpt lat="49.03433" lon="1.11841">
        <ele>100.7</ele>
        <time>2017-04-06T16:30:39Z</time>
      </trkpt>
      <trkpt lat="49.03421" lon="1.11832">
        <ele>101.2</ele>
        <time>2017-04-06T16:30:42Z</time>
      </trkpt>
      <trkpt lat="49.03411" lon="1.11833">
        <ele>101.6</ele>
        <time>2017-04-06T16:30:44Z</time>
      </trkpt>
      <trkpt lat="49.034" lon="1.11831">
        <ele>101.9</ele>
        <time>2017-04-06T16:30:46Z</time>
      </trkpt>
      <trkpt lat="49.03391" lon="1.11825">
        <ele>102.1</ele>
        <time>2017-04-06T16:30:48Z</time>
      </trkpt>
      <trkpt lat="49.03382" lon="1.11818">
        <ele>102.4</ele>
        <time>2017-04-06T16:30:50Z</time>
      </trkpt>
      <trkpt lat="49.03382" lon="1.118">
        <ele>102.8</ele>
        <time>2017-04-06T16:30:53Z</time>
      </trkpt>
      <trkpt lat="49.03388" lon="1.11782">
        <ele>103.3</ele>
        <time>2017-04-06T16:30:56Z</time>
      </trkpt>
      <trkpt lat="49.03395" lon="1.11765">
        <ele>103.8</ele>
        <time>2017-04-06T16:30:59Z</time>
      </trkpt>
      <trkpt lat="49.034" lon="1.11753">
        <ele>104.1</ele>
        <time>2017-04-06T16:31:01Z</time>
      </trkpt>
      <trkpt lat="49.03406" lon="1.11742">
        <ele>104.4</ele>
        <time>2017-04-06T16:31:03Z</time>
      </trkpt>
      <trkpt lat="49.03411" lon="1.11731">
        <ele>104.7</ele>
        <time>2017-04-06T16:31:05Z</time>
      </trkpt>
      <trkpt lat="49.03418" lon="1.11714">
        <ele>105.1</ele>
        <time>2017-04-06T16:31:08Z</time>
      </trkpt>
      <trkpt lat="49.03417" lon="1.11694">
        <ele>105.5</ele>
        <time>2017-04-06T16:31:11Z</time>
      </trkpt>
      <trkpt lat="49.03414" lon="1.11676">
        <ele>106.1</ele>
        <time>2017-04-06T16:31:14Z</time>
      </trkpt>
      <trkpt lat="49.03412" lon="1.11659">
        <ele>106.6</ele>
        <time>2017-04-06T16:31:17Z</time>
      </trkpt>
      <trkpt lat="49.0341" lon="1.11642">
        <ele>107.1</ele>
        <time>2017-04-06T16:31:20Z</time>
      </trkpt>
      <trkpt lat="49.03408" lon="1.11626">
        <ele>107.7</ele>
        <time>2017-04-06T16:31:23Z</time>
      </trkpt>
      <trkpt lat="49.03407" lon="1.11612">
        <ele>108.2</ele>
        <time>2017-04-06T16:31:26Z</time>
      </trkpt>
      <trkpt lat="49.03407" lon="1.11597">
        <ele>108.8</ele>
        <time>2017-04-06T16:31:29Z</time>
      </trkpt>
      <trkpt lat="49.03406" lon="1.11582">
        <ele>109.5</ele>
        <time>2017-04-06T16:31:32Z</time>
      </trkpt>
      <trkpt lat="49.03406" lon="1.11567">
        <ele>110.1</ele>
        <time>2017-04-06T16:31:35Z</time>
      </trkpt>
      <trkpt lat="49.03406" lon="1.11552">
        <ele>110.7</ele>
        <time>2017-04-06T16:31:38Z</time>
      </trkpt>
      <trkpt lat="49.03406" lon="1.11538">
        <ele>111.4</ele>
        <time>2017-04-06T16:31:41Z</time>
      </trkpt>
      <trkpt lat="49.03405" lon="1.11523">
        <ele>112</ele>
        <time>2017-04-06T16:31:44Z</time>
      </trkpt>
      <trkpt lat="49.03405" lon="1.11507">
        <ele>112.7</ele>
        <time>2017-04-06T16:31:47Z</time>
      </trkpt>
      <trkpt lat="49.03404" lon="1.11492">
        <ele>113.4</ele>
        <time>2017-04-06T16:31:50Z</time>
      </trkpt>
      <trkpt lat="49.03404" lon="1.11477">
        <ele>114</ele>
        <time>2017-04-06T16:31:53Z</time>
      </trkpt>
      <trkpt lat="49.03404" lon="1.11462">
        <ele>114.6</ele>
        <time>2017-04-06T16:31:56Z</time>
      </trkpt>
      <trkpt lat="49.03402" lon="1.11447">
        <ele>115.3</ele>
        <time>2017-04-06T16:31:59Z</time>
      </trkpt>
      <trkpt lat="49.034" lon="1.11431">
        <ele>115.9</ele>
        <time>2017-04-06T16:32:02Z</time>
      </trkpt>
      <trkpt lat="49.034" lon="1.11415">
        <ele>116.5</ele>
        <time>2017-04-06T16:32:05Z</time>
      </trkpt>
      <trkpt lat="49.03403" lon="1.114">
        <ele>117.1</ele>
        <time>2017-04-06T16:32:08Z</time>
      </trkpt>
      <trkpt lat="49.03405" lon="1.11384">
        <ele>117.8</ele>
        <time>2017-04-06T16:32:11Z</time>
      </trkpt>
      <trkpt lat="49.03407" lon="1.11369">
        <ele>118.5</ele>
        <time>2017-04-06T16:32:14Z</time>
      </trkpt>
      <trkpt lat="49.03408" lon="1.11353">
        <ele>119.1</ele>
        <time>2017-04-06T16:32:17Z</time>
      </trkpt>
      <trkpt lat="49.03408" lon="1.11337">
        <ele>119.8</ele>
        <time>2017-04-06T16:32:20Z</time>
      </trkpt>
      <trkpt lat="49.03407" lon="1.1132">
        <ele>120.4</ele>
        <time>2017-04-06T16:32:23Z</time>
      </trkpt>
      <trkpt lat="49.03407" lon="1.11304">
        <ele>121.1</ele>
        <time>2017-04-06T16:32:26Z</time>
      </trkpt>
      <trkpt lat="49.03405" lon="1.11288">
        <ele>121.8</ele>
        <time>2017-04-06T16:32:29Z</time>
      </trkpt>
      <trkpt lat="49.03403" lon="1.11272">
        <ele>122.5</ele>
        <time>2017-04-06T16:32:32Z</time>
      </trkpt>
      <trkpt lat="49.03402" lon="1.11258">
        <ele>123.2</ele>
        <time>2017-04-06T16:32:35Z</time>
      </trkpt>
      <trkpt lat="49.034" lon="1.11243">
        <ele>124</ele>
        <time>2017-04-06T16:32:39Z</time>
      </trkpt>
      <trkpt lat="49.03396" lon="1.11227">
        <ele>124.8</ele>
        <time>2017-04-06T16:32:43Z</time>
      </trkpt>
      <trkpt lat="49.03392" lon="1.1121">
        <ele>125.5</ele>
        <time>2017-04-06T16:32:47Z</time>
      </trkpt>
      <trkpt lat="49.03387" lon="1.11194">
        <ele>126.3</ele>
        <time>2017-04-06T16:32:51Z</time>
      </trkpt>
      <trkpt lat="49.03383" lon="1.11181">
        <ele>126.8</ele>
        <time>2017-04-06T16:32:54Z</time>
      </trkpt>
      <trkpt lat="49.03379" lon="1.11167">
        <ele>127.4</ele>
        <time>2017-04-06T16:32:57Z</time>
      </trkpt>
      <trkpt lat="49.03374" lon="1.11155">
        <ele>127.9</ele>
        <time>2017-04-06T16:33:00Z</time>
      </trkpt>
      <trkpt lat="49.0337" lon="1.11142">
        <ele>128.4</ele>
        <time>2017-04-06T16:33:03Z</time>
      </trkpt>
      <trkpt lat="49.03365" lon="1.1113">
        <ele>129</ele>
        <time>2017-04-06T16:33:06Z</time>
      </trkpt>
      <trkpt lat="49.0336" lon="1.11117">
        <ele>129.5</ele>
        <time>2017-04-06T16:33:09Z</time>
      </trkpt>
      <trkpt lat="49.03355" lon="1.11104">
        <ele>130.1</ele>
        <time>2017-04-06T16:33:12Z</time>
      </trkpt>
      <trkpt lat="49.03349" lon="1.11091">
        <ele>130.6</ele>
        <time>2017-04-06T16:33:15Z</time>
      </trkpt>
      <trkpt lat="49.03343" lon="1.11078">
        <ele>131.3</ele>
        <time>2017-04-06T16:33:18Z</time>
      </trkpt>
      <trkpt lat="49.03338" lon="1.11065">
        <ele>131.9</ele>
        <time>2017-04-06T16:33:21Z</time>
      </trkpt>
      <trkpt lat="49.03334" lon="1.1105">
        <ele>132.4</ele>
        <time>2017-04-06T16:33:24Z</time>
      </trkpt>
      <trkpt lat="49.03334" lon="1.11036">
        <ele>133</ele>
        <time>2017-04-06T16:33:27Z</time>
      </trkpt>
      <trkpt lat="49.0334" lon="1.11023">
        <ele>133.5</ele>
        <time>2017-04-06T16:33:30Z</time>
      </trkpt>
      <trkpt lat="49.03348" lon="1.11012">
        <ele>134</ele>
        <time>2017-04-06T16:33:33Z</time>
      </trkpt>
      <trkpt lat="49.03356" lon="1.11001">
        <ele>134.5</ele>
        <time>2017-04-06T16:33:36Z</time>
      </trkpt>
      <trkpt lat="49.03365" lon="1.10989">
        <ele>134.8</ele>
        <time>2017-04-06T16:33:39Z</time>
      </trkpt>
      <trkpt lat="49.03373" lon="1.10977">
        <ele>135.1</ele>
        <time>2017-04-06T16:33:42Z</time>
      </trkpt>
      <trkpt lat="49.03381" lon="1.10966">
        <ele>135.3</ele>
        <time>2017-04-06T16:33:45Z</time>
      </trkpt>
      <trkpt lat="49.03388" lon="1.10953">
        <ele>135.5</ele>
        <time>2017-04-06T16:33:48Z</time>
      </trkpt>
      <trkpt lat="49.03397" lon="1.10941">
        <ele>135.7</ele>
        <time>2017-04-06T16:33:51Z</time>
      </trkpt>
      <trkpt lat="49.03406" lon="1.10929">
        <ele>135.9</ele>
        <time>2017-04-06T16:33:54Z</time>
      </trkpt>
      <trkpt lat="49.03413" lon="1.10914">
        <ele>136.1</ele>
        <time>2017-04-06T16:33:57Z</time>
      </trkpt>
      <trkpt lat="49.0342" lon="1.10898">
        <ele>136.2</ele>
        <time>2017-04-06T16:34:00Z</time>
      </trkpt>
      <trkpt lat="49.03426" lon="1.1088">
        <ele>136.4</ele>
        <time>2017-04-06T16:34:03Z</time>
      </trkpt>
      <trkpt lat="49.03435" lon="1.10866">
        <ele>136.5</ele>
        <time>2017-04-06T16:34:06Z</time>
      </trkpt>
      <trkpt lat="49.03439" lon="1.10851">
        <ele>136.5</ele>
        <time>2017-04-06T16:34:09Z</time>
      </trkpt>
      <trkpt lat="49.03445" lon="1.10836">
        <ele>136.7</ele>
        <time>2017-04-06T16:34:12Z</time>
      </trkpt>
      <trkpt lat="49.03449" lon="1.10822">
        <ele>136.8</ele>
        <time>2017-04-06T16:34:15Z</time>
      </trkpt>
      <trkpt lat="49.03452" lon="1.10808">
        <ele>137</ele>
        <time>2017-04-06T16:34:18Z</time>
      </trkpt>
      <trkpt lat="49.03456" lon="1.10795">
        <ele>137.1</ele>
        <time>2017-04-06T16:34:21Z</time>
      </trkpt>
      <trkpt lat="49.03461" lon="1.10779">
        <ele>137.2</ele>
        <time>2017-04-06T16:34:24Z</time>
      </trkpt>
      <trkpt lat="49.03467" lon="1.10763">
        <ele>137.2</ele>
        <time>2017-04-06T16:34:27Z</time>
      </trkpt>
      <trkpt lat="49.03473" lon="1.10748">
        <ele>137.3</ele>
        <time>2017-04-06T16:34:30Z</time>
      </trkpt>
      <trkpt lat="49.03478" lon="1.10729">
        <ele>137.3</ele>
        <time>2017-04-06T16:34:33Z</time>
      </trkpt>
      <trkpt lat="49.03483" lon="1.10712">
        <ele>137.4</ele>
        <time>2017-04-06T16:34:36Z</time>
      </trkpt>
      <trkpt lat="49.03488" lon="1.10697">
        <ele>137.4</ele>
        <time>2017-04-06T16:34:39Z</time>
      </trkpt>
      <trkpt lat="49.03493" lon="1.1068">
        <ele>137.4</ele>
        <time>2017-04-06T16:34:42Z</time>
      </trkpt>
      <trkpt lat="49.03498" lon="1.10662">
        <ele>137.5</ele>
        <time>2017-04-06T16:34:45Z</time>
      </trkpt>
      <trkpt lat="49.03503" lon="1.10643">
        <ele>137.5</ele>
        <time>2017-04-06T16:34:48Z</time>
      </trkpt>
      <trkpt lat="49.03508" lon="1.10625">
        <ele>137.5</ele>
        <time>2017-04-06T16:34:51Z</time>
      </trkpt>
      <trkpt lat="49.03514" lon="1.10609">
        <ele>137.5</ele>
        <time>2017-04-06T16:34:54Z</time>
      </trkpt>
      <trkpt lat="49.0352" lon="1.10593">
        <ele>137.5</ele>
        <time>2017-04-06T16:34:57Z</time>
      </trkpt>
      <trkpt lat="49.03527" lon="1.10577">
        <ele>137.4</ele>
        <time>2017-04-06T16:35:00Z</time>
      </trkpt>
      <trkpt lat="49.03532" lon="1.10565">
        <ele>137.3</ele>
        <time>2017-04-06T16:35:02Z</time>
      </trkpt>
      <trkpt lat="49.03537" lon="1.10551">
        <ele>137.3</ele>
        <time>2017-04-06T16:35:04Z</time>
      </trkpt>
      <trkpt lat="49.03544" lon="1.10539">
        <ele>137.2</ele>
        <time>2017-04-06T16:35:06Z</time>
      </trkpt>
      <trkpt lat="49.0355" lon="1.10526">
        <ele>137.2</ele>
        <time>2017-04-06T16:35:08Z</time>
      </trkpt>
      <trkpt lat="49.03557" lon="1.10513">
        <ele>137.1</ele>
        <time>2017-04-06T16:35:10Z</time>
      </trkpt>
      <trkpt lat="49.03564" lon="1.105">
        <ele>137</ele>
        <time>2017-04-06T16:35:12Z</time>
      </trkpt>
      <trkpt lat="49.03571" lon="1.10487">
        <ele>136.9</ele>
        <time>2017-04-06T16:35:14Z</time>
      </trkpt>
      <trkpt lat="49.03577" lon="1.10474">
        <ele>136.8</ele>
        <time>2017-04-06T16:35:16Z</time>
      </trkpt>
      <trkpt lat="49.03584" lon="1.10461">
        <ele>136.7</ele>
        <time>2017-04-06T16:35:18Z</time>
      </trkpt>
      <trkpt lat="49.03592" lon="1.10449">
        <ele>136.6</ele>
        <time>2017-04-06T16:35:20Z</time>
      </trkpt>
      <trkpt lat="49.036" lon="1.10438">
        <ele>136.5</ele>
        <time>2017-04-06T16:35:22Z</time>
      </trkpt>
      <trkpt lat="49.03609" lon="1.10428">
        <ele>136.4</ele>
        <time>2017-04-06T16:35:24Z</time>
      </trkpt>
      <trkpt lat="49.03617" lon="1.10418">
        <ele>136.3</ele>
        <time>2017-04-06T16:35:26Z</time>
      </trkpt>
      <trkpt lat="49.03625" lon="1.10409">
        <ele>136.2</ele>
        <time>2017-04-06T16:35:28Z</time>
      </trkpt>
      <trkpt lat="49.03632" lon="1.10399">
        <ele>136</ele>
        <time>2017-04-06T16:35:30Z</time>
      </trkpt>
      <trkpt lat="49.0364" lon="1.1039">
        <ele>135.9</ele>
        <time>2017-04-06T16:35:32Z</time>
      </trkpt>
      <trkpt lat="49.03647" lon="1.10381">
        <ele>135.8</ele>
        <time>2017-04-06T16:35:34Z</time>
      </trkpt>
      <trkpt lat="49.03654" lon="1.10372">
        <ele>135.7</ele>
        <time>2017-04-06T16:35:36Z</time>
      </trkpt>
      <trkpt lat="49.03662" lon="1.10363">
        <ele>135.6</ele>
        <time>2017-04-06T16:35:38Z</time>
      </trkpt>
      <trkpt lat="49.0367" lon="1.10355">
        <ele>135.5</ele>
        <time>2017-04-06T16:35:40Z</time>
      </trkpt>
      <trkpt lat="49.03679" lon="1.10347">
        <ele>135.4</ele>
        <time>2017-04-06T16:35:42Z</time>
      </trkpt>
      <trkpt lat="49.03687" lon="1.10338">
        <ele>135.3</ele>
        <time>2017-04-06T16:35:44Z</time>
      </trkpt>
      <trkpt lat="49.03696" lon="1.10331">
        <ele>135.3</ele>
        <time>2017-04-06T16:35:46Z</time>
      </trkpt>
      <trkpt lat="49.03704" lon="1.10323">
        <ele>135.2</ele>
        <time>2017-04-06T16:35:48Z</time>
      </trkpt>
      <trkpt lat="49.03713" lon="1.10314">
        <ele>135.2</ele>
        <time>2017-04-06T16:35:50Z</time>
      </trkpt>
      <trkpt lat="49.03721" lon="1.10306">
        <ele>135.1</ele>
        <time>2017-04-06T16:35:52Z</time>
      </trkpt>
      <trkpt lat="49.03729" lon="1.10298">
        <ele>135.1</ele>
        <time>2017-04-06T16:35:54Z</time>
      </trkpt>
      <trkpt lat="49.03737" lon="1.1029">
        <ele>135.1</ele>
        <time>2017-04-06T16:35:56Z</time>
      </trkpt>
      <trkpt lat="49.03745" lon="1.10282">
        <ele>135</ele>
        <time>2017-04-06T16:35:58Z</time>
      </trkpt>
      <trkpt lat="49.03753" lon="1.10274">
        <ele>135</ele>
        <time>2017-04-06T16:36:00Z</time>
      </trkpt>
      <trkpt lat="49.03762" lon="1.10267">
        <ele>135</ele>
        <time>2017-04-06T16:36:02Z</time>
      </trkpt>
      <trkpt lat="49.0377" lon="1.10259">
        <ele>135.1</ele>
        <time>2017-04-06T16:36:04Z</time>
      </trkpt>
      <trkpt lat="49.03778" lon="1.1025">
        <ele>135.1</ele>
        <time>2017-04-06T16:36:06Z</time>
      </trkpt>
      <trkpt lat="49.03785" lon="1.10241">
        <ele>135.2</ele>
        <time>2017-04-06T16:36:08Z</time>
      </trkpt>
      <trkpt lat="49.03792" lon="1.10232">
        <ele>135.3</ele>
        <time>2017-04-06T16:36:10Z</time>
      </trkpt>
      <trkpt lat="49.03801" lon="1.10218">
        <ele>135.5</ele>
        <time>2017-04-06T16:36:13Z</time>
      </trkpt>
      <trkpt lat="49.03809" lon="1.10202">
        <ele>135.7</ele>
        <time>2017-04-06T16:36:16Z</time>
      </trkpt>
      <trkpt lat="49.03816" lon="1.10185">
        <ele>136</ele>
        <time>2017-04-06T16:36:19Z</time>
      </trkpt>
      <trkpt lat="49.03819" lon="1.10172">
        <ele>136.2</ele>
        <time>2017-04-06T16:36:21Z</time>
      </trkpt>
      <trkpt lat="49.03822" lon="1.10152">
        <ele>136.6</ele>
        <time>2017-04-06T16:36:24Z</time>
      </trkpt>
      <trkpt lat="49.03825" lon="1.10133">
        <ele>136.9</ele>
        <time>2017-04-06T16:36:27Z</time>
      </trkpt>
      <trkpt lat="49.03828" lon="1.10119">
        <ele>137.1</ele>
        <time>2017-04-06T16:36:29Z</time>
      </trkpt>
      <trkpt lat="49.0383" lon="1.10105">
        <ele>137.3</ele>
        <time>2017-04-06T16:36:31Z</time>
      </trkpt>
      <trkpt lat="49.03832" lon="1.10092">
        <ele>137.5</ele>
        <time>2017-04-06T16:36:33Z</time>
      </trkpt>
      <trkpt lat="49.03835" lon="1.10078">
        <ele>137.8</ele>
        <time>2017-04-06T16:36:35Z</time>
      </trkpt>
      <trkpt lat="49.03837" lon="1.10064">
        <ele>138</ele>
        <time>2017-04-06T16:36:37Z</time>
      </trkpt>
      <trkpt lat="49.0384" lon="1.10051">
        <ele>138.2</ele>
        <time>2017-04-06T16:36:39Z</time>
      </trkpt>
      <trkpt lat="49.03844" lon="1.10037">
        <ele>138.5</ele>
        <time>2017-04-06T16:36:41Z</time>
      </trkpt>
      <trkpt lat="49.03848" lon="1.10025">
        <ele>138.6</ele>
        <time>2017-04-06T16:36:43Z</time>
      </trkpt>
      <trkpt lat="49.03854" lon="1.10013">
        <ele>138.8</ele>
        <time>2017-04-06T16:36:45Z</time>
      </trkpt>
      <trkpt lat="49.03859" lon="1.10001">
        <ele>139.1</ele>
        <time>2017-04-06T16:36:47Z</time>
      </trkpt>
      <trkpt lat="49.03865" lon="1.0999">
        <ele>139.3</ele>
        <time>2017-04-06T16:36:49Z</time>
      </trkpt>
      <trkpt lat="49.03871" lon="1.09979">
        <ele>139.5</ele>
        <time>2017-04-06T16:36:51Z</time>
      </trkpt>
      <trkpt lat="49.03877" lon="1.09967">
        <ele>139.7</ele>
        <time>2017-04-06T16:36:53Z</time>
      </trkpt>
      <trkpt lat="49.03883" lon="1.09956">
        <ele>139.8</ele>
        <time>2017-04-06T16:36:55Z</time>
      </trkpt>
      <trkpt lat="49.03889" lon="1.09945">
        <ele>140</ele>
        <time>2017-04-06T16:36:57Z</time>
      </trkpt>
      <trkpt lat="49.03896" lon="1.09933">
        <ele>140.1</ele>
        <time>2017-04-06T16:36:59Z</time>
      </trkpt>
      <trkpt lat="49.03902" lon="1.09922">
        <ele>140.3</ele>
        <time>2017-04-06T16:37:01Z</time>
      </trkpt>
      <trkpt lat="49.03908" lon="1.09911">
        <ele>140.4</ele>
        <time>2017-04-06T16:37:03Z</time>
      </trkpt>
      <trkpt lat="49.03914" lon="1.09899">
        <ele>140.5</ele>
        <time>2017-04-06T16:37:05Z</time>
      </trkpt>
      <trkpt lat="49.03921" lon="1.09888">
        <ele>140.6</ele>
        <time>2017-04-06T16:37:07Z</time>
      </trkpt>
      <trkpt lat="49.03927" lon="1.09876">
        <ele>140.7</ele>
        <time>2017-04-06T16:37:09Z</time>
      </trkpt>
      <trkpt lat="49.03934" lon="1.09865">
        <ele>140.8</ele>
        <time>2017-04-06T16:37:11Z</time>
      </trkpt>
      <trkpt lat="49.03941" lon="1.09853">
        <ele>140.9</ele>
        <time>2017-04-06T16:37:13Z</time>
      </trkpt>
      <trkpt lat="49.03947" lon="1.09841">
        <ele>141</ele>
        <time>2017-04-06T16:37:15Z</time>
      </trkpt>
      <trkpt lat="49.03954" lon="1.09829">
        <ele>141.1</ele>
        <time>2017-04-06T16:37:17Z</time>
      </trkpt>
      <trkpt lat="49.03961" lon="1.09816">
        <ele>141.2</ele>
        <time>2017-04-06T16:37:19Z</time>
      </trkpt>
      <trkpt lat="49.03966" lon="1.09803">
        <ele>141.2</ele>
        <time>2017-04-06T16:37:21Z</time>
      </trkpt>
      <trkpt lat="49.03972" lon="1.0979">
        <ele>141.3</ele>
        <time>2017-04-06T16:37:23Z</time>
      </trkpt>
      <trkpt lat="49.03977" lon="1.09777">
        <ele>141.3</ele>
        <time>2017-04-06T16:37:25Z</time>
      </trkpt>
      <trkpt lat="49.03982" lon="1.09764">
        <ele>141.3</ele>
        <time>2017-04-06T16:37:27Z</time>
      </trkpt>
      <trkpt lat="49.03987" lon="1.0975">
        <ele>141.4</ele>
        <time>2017-04-06T16:37:29Z</time>
      </trkpt>
      <trkpt lat="49.03992" lon="1.09737">
        <ele>141.4</ele>
        <time>2017-04-06T16:37:31Z</time>
      </trkpt>
      <trkpt lat="49.03997" lon="1.09723">
        <ele>141.4</ele>
        <time>2017-04-06T16:37:33Z</time>
      </trkpt>
      <trkpt lat="49.04003" lon="1.0971">
        <ele>141.5</ele>
        <time>2017-04-06T16:37:35Z</time>
      </trkpt>
      <trkpt lat="49.04008" lon="1.09696">
        <ele>141.5</ele>
        <time>2017-04-06T16:37:37Z</time>
      </trkpt>
      <trkpt lat="49.04013" lon="1.09683">
        <ele>141.5</ele>
        <time>2017-04-06T16:37:39Z</time>
      </trkpt>
      <trkpt lat="49.04018" lon="1.09669">
        <ele>141.4</ele>
        <time>2017-04-06T16:37:41Z</time>
      </trkpt>
      <trkpt lat="49.04024" lon="1.09656">
        <ele>141.4</ele>
        <time>2017-04-06T16:37:43Z</time>
      </trkpt>
      <trkpt lat="49.04029" lon="1.09643">
        <ele>141.4</ele>
        <time>2017-04-06T16:37:45Z</time>
      </trkpt>
      <trkpt lat="49.04035" lon="1.0963">
        <ele>141.3</ele>
        <time>2017-04-06T16:37:47Z</time>
      </trkpt>
      <trkpt lat="49.0404" lon="1.09616">
        <ele>141.3</ele>
        <time>2017-04-06T16:37:49Z</time>
      </trkpt>
      <trkpt lat="49.04047" lon="1.09603">
        <ele>141.3</ele>
        <time>2017-04-06T16:37:51Z</time>
      </trkpt>
      <trkpt lat="49.04053" lon="1.0959">
        <ele>141.2</ele>
        <time>2017-04-06T16:37:53Z</time>
      </trkpt>
      <trkpt lat="49.0406" lon="1.09577">
        <ele>141</ele>
        <time>2017-04-06T16:37:55Z</time>
      </trkpt>
      <trkpt lat="49.04067" lon="1.09564">
        <ele>140.9</ele>
        <time>2017-04-06T16:37:57Z</time>
      </trkpt>
      <trkpt lat="49.04073" lon="1.09551">
        <ele>140.8</ele>
        <time>2017-04-06T16:37:59Z</time>
      </trkpt>
      <trkpt lat="49.0408" lon="1.09537">
        <ele>140.6</ele>
        <time>2017-04-06T16:38:01Z</time>
      </trkpt>
      <trkpt lat="49.04084" lon="1.09521">
        <ele>140.4</ele>
        <time>2017-04-06T16:38:03Z</time>
      </trkpt>
      <trkpt lat="49.04089" lon="1.09505">
        <ele>140.2</ele>
        <time>2017-04-06T16:38:05Z</time>
      </trkpt>
      <trkpt lat="49.04093" lon="1.09489">
        <ele>140.1</ele>
        <time>2017-04-06T16:38:07Z</time>
      </trkpt>
      <trkpt lat="49.04098" lon="1.09473">
        <ele>140</ele>
        <time>2017-04-06T16:38:09Z</time>
      </trkpt>
      <trkpt lat="49.04103" lon="1.09457">
        <ele>139.9</ele>
        <time>2017-04-06T16:38:11Z</time>
      </trkpt>
      <trkpt lat="49.0411" lon="1.09442">
        <ele>139.8</ele>
        <time>2017-04-06T16:38:13Z</time>
      </trkpt>
      <trkpt lat="49.04115" lon="1.09427">
        <ele>139.7</ele>
        <time>2017-04-06T16:38:15Z</time>
      </trkpt>
      <trkpt lat="49.04121" lon="1.09411">
        <ele>139.6</ele>
        <time>2017-04-06T16:38:17Z</time>
      </trkpt>
      <trkpt lat="49.04126" lon="1.09396">
        <ele>139.5</ele>
        <time>2017-04-06T16:38:19Z</time>
      </trkpt>
      <trkpt lat="49.04131" lon="1.09382">
        <ele>139.4</ele>
        <time>2017-04-06T16:38:21Z</time>
      </trkpt>
      <trkpt lat="49.04136" lon="1.09368">
        <ele>139.3</ele>
        <time>2017-04-06T16:38:23Z</time>
      </trkpt>
      <trkpt lat="49.04141" lon="1.09353">
        <ele>139.3</ele>
        <time>2017-04-06T16:38:25Z</time>
      </trkpt>
      <trkpt lat="49.04146" lon="1.09338">
        <ele>139.2</ele>
        <time>2017-04-06T16:38:27Z</time>
      </trkpt>
      <trkpt lat="49.04151" lon="1.09323">
        <ele>139.2</ele>
        <time>2017-04-06T16:38:29Z</time>
      </trkpt>
      <trkpt lat="49.04156" lon="1.09308">
        <ele>139.1</ele>
        <time>2017-04-06T16:38:31Z</time>
      </trkpt>
      <trkpt lat="49.04161" lon="1.09293">
        <ele>139.1</ele>
        <time>2017-04-06T16:38:33Z</time>
      </trkpt>
      <trkpt lat="49.04166" lon="1.09277">
        <ele>139</ele>
        <time>2017-04-06T16:38:35Z</time>
      </trkpt>
      <trkpt lat="49.04172" lon="1.09262">
        <ele>139</ele>
        <time>2017-04-06T16:38:37Z</time>
      </trkpt>
      <trkpt lat="49.04177" lon="1.09247">
        <ele>138.9</ele>
        <time>2017-04-06T16:38:39Z</time>
      </trkpt>
      <trkpt lat="49.04183" lon="1.09232">
        <ele>138.9</ele>
        <time>2017-04-06T16:38:41Z</time>
      </trkpt>
      <trkpt lat="49.04189" lon="1.09218">
        <ele>138.8</ele>
        <time>2017-04-06T16:38:43Z</time>
      </trkpt>
      <trkpt lat="49.04196" lon="1.09205">
        <ele>138.8</ele>
        <time>2017-04-06T16:38:45Z</time>
      </trkpt>
      <trkpt lat="49.04202" lon="1.09191">
        <ele>138.8</ele>
        <time>2017-04-06T16:38:47Z</time>
      </trkpt>
      <trkpt lat="49.04209" lon="1.09178">
        <ele>138.7</ele>
        <time>2017-04-06T16:38:49Z</time>
      </trkpt>
      <trkpt lat="49.04214" lon="1.09166">
        <ele>138.7</ele>
        <time>2017-04-06T16:38:51Z</time>
      </trkpt>
      <trkpt lat="49.04221" lon="1.09153">
        <ele>138.7</ele>
        <time>2017-04-06T16:38:53Z</time>
      </trkpt>
      <trkpt lat="49.04227" lon="1.0914">
        <ele>138.7</ele>
        <time>2017-04-06T16:38:55Z</time>
      </trkpt>
      <trkpt lat="49.04233" lon="1.09127">
        <ele>138.7</ele>
        <time>2017-04-06T16:38:57Z</time>
      </trkpt>
      <trkpt lat="49.04239" lon="1.09114">
        <ele>138.7</ele>
        <time>2017-04-06T16:38:59Z</time>
      </trkpt>
      <trkpt lat="49.04245" lon="1.09101">
        <ele>138.7</ele>
        <time>2017-04-06T16:39:01Z</time>
      </trkpt>
      <trkpt lat="49.04252" lon="1.09088">
        <ele>138.9</ele>
        <time>2017-04-06T16:39:03Z</time>
      </trkpt>
      <trkpt lat="49.04258" lon="1.09076">
        <ele>139</ele>
        <time>2017-04-06T16:39:05Z</time>
      </trkpt>
      <trkpt lat="49.04266" lon="1.09063">
        <ele>139.1</ele>
        <time>2017-04-06T16:39:07Z</time>
      </trkpt>
      <trkpt lat="49.04273" lon="1.0905">
        <ele>139.2</ele>
        <time>2017-04-06T16:39:09Z</time>
      </trkpt>
      <trkpt lat="49.0428" lon="1.09037">
        <ele>139.2</ele>
        <time>2017-04-06T16:39:11Z</time>
      </trkpt>
      <trkpt lat="49.04288" lon="1.09023">
        <ele>139.3</ele>
        <time>2017-04-06T16:39:13Z</time>
      </trkpt>
      <trkpt lat="49.04295" lon="1.0901">
        <ele>139.3</ele>
        <time>2017-04-06T16:39:15Z</time>
      </trkpt>
      <trkpt lat="49.04302" lon="1.08997">
        <ele>139.3</ele>
        <time>2017-04-06T16:39:17Z</time>
      </trkpt>
      <trkpt lat="49.0431" lon="1.08983">
        <ele>139.4</ele>
        <time>2017-04-06T16:39:19Z</time>
      </trkpt>
      <trkpt lat="49.04317" lon="1.0897">
        <ele>139.4</ele>
        <time>2017-04-06T16:39:21Z</time>
      </trkpt>
      <trkpt lat="49.04325" lon="1.08956">
        <ele>139.4</ele>
        <time>2017-04-06T16:39:23Z</time>
      </trkpt>
      <trkpt lat="49.04333" lon="1.08941">
        <ele>139.3</ele>
        <time>2017-04-06T16:39:25Z</time>
      </trkpt>
      <trkpt lat="49.04341" lon="1.08926">
        <ele>139.2</ele>
        <time>2017-04-06T16:39:27Z</time>
      </trkpt>
      <trkpt lat="49.04349" lon="1.08911">
        <ele>139.2</ele>
        <time>2017-04-06T16:39:29Z</time>
      </trkpt>
      <trkpt lat="49.04357" lon="1.08896">
        <ele>139</ele>
        <time>2017-04-06T16:39:31Z</time>
      </trkpt>
      <trkpt lat="49.04364" lon="1.08882">
        <ele>138.8</ele>
        <time>2017-04-06T16:39:33Z</time>
      </trkpt>
      <trkpt lat="49.04372" lon="1.08868">
        <ele>138.6</ele>
        <time>2017-04-06T16:39:35Z</time>
      </trkpt>
      <trkpt lat="49.0438" lon="1.08853">
        <ele>138.4</ele>
        <time>2017-04-06T16:39:37Z</time>
      </trkpt>
      <trkpt lat="49.04389" lon="1.0884">
        <ele>138.3</ele>
        <time>2017-04-06T16:39:39Z</time>
      </trkpt>
      <trkpt lat="49.04401" lon="1.0883">
        <ele>138</ele>
        <time>2017-04-06T16:39:41Z</time>
      </trkpt>
      <trkpt lat="49.04412" lon="1.08818">
        <ele>137.8</ele>
        <time>2017-04-06T16:39:43Z</time>
      </trkpt>
      <trkpt lat="49.04423" lon="1.08805">
        <ele>137.5</ele>
        <time>2017-04-06T16:39:45Z</time>
      </trkpt>
      <trkpt lat="49.04434" lon="1.08793">
        <ele>137</ele>
        <time>2017-04-06T16:39:47Z</time>
      </trkpt>
      <trkpt lat="49.04444" lon="1.0878">
        <ele>136.5</ele>
        <time>2017-04-06T16:39:49Z</time>
      </trkpt>
      <trkpt lat="49.04454" lon="1.08769">
        <ele>136.1</ele>
        <time>2017-04-06T16:39:51Z</time>
      </trkpt>
      <trkpt lat="49.04465" lon="1.08761">
        <ele>135.6</ele>
        <time>2017-04-06T16:39:54Z</time>
      </trkpt>
      <trkpt lat="49.04475" lon="1.08765">
        <ele>134.9</ele>
        <time>2017-04-06T16:39:58Z</time>
      </trkpt>
      <trkpt lat="49.04486" lon="1.0877">
        <ele>134.4</ele>
        <time>2017-04-06T16:40:01Z</time>
      </trkpt>
      <trkpt lat="49.04498" lon="1.08779">
        <ele>133.9</ele>
        <time>2017-04-06T16:40:04Z</time>
      </trkpt>
      <trkpt lat="49.04508" lon="1.08784">
        <ele>133.6</ele>
        <time>2017-04-06T16:40:06Z</time>
      </trkpt>
      <trkpt lat="49.04517" lon="1.08789">
        <ele>133.4</ele>
        <time>2017-04-06T16:40:08Z</time>
      </trkpt>
      <trkpt lat="49.04527" lon="1.08792">
        <ele>133.1</ele>
        <time>2017-04-06T16:40:10Z</time>
      </trkpt>
      <trkpt lat="49.04536" lon="1.08794">
        <ele>133.1</ele>
        <time>2017-04-06T16:40:12Z</time>
      </trkpt>
      <trkpt lat="49.04546" lon="1.08795">
        <ele>133.1</ele>
        <time>2017-04-06T16:40:14Z</time>
      </trkpt>
      <trkpt lat="49.04555" lon="1.08795">
        <ele>133.1</ele>
        <time>2017-04-06T16:40:16Z</time>
      </trkpt>
      <trkpt lat="49.04564" lon="1.08804">
        <ele>133.1</ele>
        <time>2017-04-06T16:40:19Z</time>
      </trkpt>
      <trkpt lat="49.04557" lon="1.0882">
        <ele>133.3</ele>
        <time>2017-04-06T16:40:22Z</time>
      </trkpt>
      <trkpt lat="49.0455" lon="1.0883">
        <ele>133.5</ele>
        <time>2017-04-06T16:40:24Z</time>
      </trkpt>
      <trkpt lat="49.04544" lon="1.0884">
        <ele>133.7</ele>
        <time>2017-04-06T16:40:26Z</time>
      </trkpt>
      <trkpt lat="49.04538" lon="1.08851">
        <ele>133.9</ele>
        <time>2017-04-06T16:40:28Z</time>
      </trkpt>
      <trkpt lat="49.04532" lon="1.08863">
        <ele>134.1</ele>
        <time>2017-04-06T16:40:30Z</time>
      </trkpt>
      <trkpt lat="49.04527" lon="1.08875">
        <ele>134.4</ele>
        <time>2017-04-06T16:40:32Z</time>
      </trkpt>
      <trkpt lat="49.04524" lon="1.08889">
        <ele>134.6</ele>
        <time>2017-04-06T16:40:34Z</time>
      </trkpt>
      <trkpt lat="49.04523" lon="1.08903">
        <ele>134.9</ele>
        <time>2017-04-06T16:40:36Z</time>
      </trkpt>
      <trkpt lat="49.04523" lon="1.08917">
        <ele>135.2</ele>
        <time>2017-04-06T16:40:38Z</time>
      </trkpt>
      <trkpt lat="49.04524" lon="1.08931">
        <ele>135.4</ele>
        <time>2017-04-06T16:40:40Z</time>
      </trkpt>
      <trkpt lat="49.04526" lon="1.08945">
        <ele>135.7</ele>
        <time>2017-04-06T16:40:42Z</time>
      </trkpt>
      <trkpt lat="49.04528" lon="1.08959">
        <ele>135.9</ele>
        <time>2017-04-06T16:40:44Z</time>
      </trkpt>
      <trkpt lat="49.04529" lon="1.08973">
        <ele>136.2</ele>
        <time>2017-04-06T16:40:46Z</time>
      </trkpt>
      <trkpt lat="49.04531" lon="1.08987">
        <ele>136.5</ele>
        <time>2017-04-06T16:40:48Z</time>
      </trkpt>
      <trkpt lat="49.04533" lon="1.09001">
        <ele>136.7</ele>
        <time>2017-04-06T16:40:50Z</time>
      </trkpt>
      <trkpt lat="49.04535" lon="1.09015">
        <ele>136.9</ele>
        <time>2017-04-06T16:40:52Z</time>
      </trkpt>
      <trkpt lat="49.04537" lon="1.09029">
        <ele>137.2</ele>
        <time>2017-04-06T16:40:54Z</time>
      </trkpt>
      <trkpt lat="49.04539" lon="1.09044">
        <ele>137.5</ele>
        <time>2017-04-06T16:40:56Z</time>
      </trkpt>
      <trkpt lat="49.04541" lon="1.09058">
        <ele>137.7</ele>
        <time>2017-04-06T16:40:58Z</time>
      </trkpt>
      <trkpt lat="49.04543" lon="1.09072">
        <ele>138</ele>
        <time>2017-04-06T16:41:00Z</time>
      </trkpt>
      <trkpt lat="49.04545" lon="1.09086">
        <ele>138.2</ele>
        <time>2017-04-06T16:41:02Z</time>
      </trkpt>
      <trkpt lat="49.04548" lon="1.091">
        <ele>138.4</ele>
        <time>2017-04-06T16:41:04Z</time>
      </trkpt>
      <trkpt lat="49.0455" lon="1.09114">
        <ele>138.7</ele>
        <time>2017-04-06T16:41:06Z</time>
      </trkpt>
      <trkpt lat="49.04552" lon="1.09128">
        <ele>139</ele>
        <time>2017-04-06T16:41:08Z</time>
      </trkpt>
      <trkpt lat="49.04554" lon="1.09142">
        <ele>139.3</ele>
        <time>2017-04-06T16:41:10Z</time>
      </trkpt>
      <trkpt lat="49.04556" lon="1.09156">
        <ele>139.5</ele>
        <time>2017-04-06T16:41:12Z</time>
      </trkpt>
      <trkpt lat="49.04558" lon="1.09171">
        <ele>139.8</ele>
        <time>2017-04-06T16:41:14Z</time>
      </trkpt>
      <trkpt lat="49.04559" lon="1.09186">
        <ele>140.1</ele>
        <time>2017-04-06T16:41:16Z</time>
      </trkpt>
      <trkpt lat="49.04562" lon="1.09201">
        <ele>140.4</ele>
        <time>2017-04-06T16:41:18Z</time>
      </trkpt>
      <trkpt lat="49.04563" lon="1.09216">
        <ele>140.7</ele>
        <time>2017-04-06T16:41:20Z</time>
      </trkpt>
      <trkpt lat="49.04564" lon="1.09232">
        <ele>140.9</ele>
        <time>2017-04-06T16:41:22Z</time>
      </trkpt>
      <trkpt lat="49.04566" lon="1.09247">
        <ele>141.2</ele>
        <time>2017-04-06T16:41:24Z</time>
      </trkpt>
      <trkpt lat="49.04567" lon="1.09262">
        <ele>141.4</ele>
        <time>2017-04-06T16:41:26Z</time>
      </trkpt>
      <trkpt lat="49.04569" lon="1.09277">
        <ele>141.6</ele>
        <time>2017-04-06T16:41:28Z</time>
      </trkpt>
      <trkpt lat="49.04572" lon="1.09292">
        <ele>141.9</ele>
        <time>2017-04-06T16:41:30Z</time>
      </trkpt>
      <trkpt lat="49.04574" lon="1.09307">
        <ele>142.1</ele>
        <time>2017-04-06T16:41:32Z</time>
      </trkpt>
      <trkpt lat="49.04576" lon="1.09323">
        <ele>142.3</ele>
        <time>2017-04-06T16:41:34Z</time>
      </trkpt>
      <trkpt lat="49.04578" lon="1.09339">
        <ele>142.5</ele>
        <time>2017-04-06T16:41:36Z</time>
      </trkpt>
      <trkpt lat="49.0458" lon="1.09355">
        <ele>142.6</ele>
        <time>2017-04-06T16:41:38Z</time>
      </trkpt>
      <trkpt lat="49.04583" lon="1.09372">
        <ele>142.8</ele>
        <time>2017-04-06T16:41:40Z</time>
      </trkpt>
      <trkpt lat="49.04585" lon="1.09388">
        <ele>143</ele>
        <time>2017-04-06T16:41:42Z</time>
      </trkpt>
      <trkpt lat="49.04587" lon="1.09405">
        <ele>143.1</ele>
        <time>2017-04-06T16:41:44Z</time>
      </trkpt>
      <trkpt lat="49.04589" lon="1.09421">
        <ele>143.2</ele>
        <time>2017-04-06T16:41:46Z</time>
      </trkpt>
      <trkpt lat="49.04591" lon="1.09437">
        <ele>143.3</ele>
        <time>2017-04-06T16:41:48Z</time>
      </trkpt>
      <trkpt lat="49.04593" lon="1.09453">
        <ele>143.5</ele>
        <time>2017-04-06T16:41:50Z</time>
      </trkpt>
      <trkpt lat="49.04595" lon="1.09468">
        <ele>143.5</ele>
        <time>2017-04-06T16:41:52Z</time>
      </trkpt>
      <trkpt lat="49.04597" lon="1.09482">
        <ele>143.6</ele>
        <time>2017-04-06T16:41:54Z</time>
      </trkpt>
      <trkpt lat="49.04599" lon="1.09497">
        <ele>143.7</ele>
        <time>2017-04-06T16:41:56Z</time>
      </trkpt>
      <trkpt lat="49.04601" lon="1.09512">
        <ele>143.8</ele>
        <time>2017-04-06T16:41:58Z</time>
      </trkpt>
      <trkpt lat="49.04603" lon="1.09527">
        <ele>143.8</ele>
        <time>2017-04-06T16:42:00Z</time>
      </trkpt>
      <trkpt lat="49.04606" lon="1.09543">
        <ele>143.9</ele>
        <time>2017-04-06T16:42:02Z</time>
      </trkpt>
      <trkpt lat="49.04617" lon="1.0954">
        <ele>144</ele>
        <time>2017-04-06T16:42:08Z</time>
      </trkpt>
      <trkpt lat="49.04623" lon="1.09524">
        <ele>144.1</ele>
        <time>2017-04-06T16:42:11Z</time>
      </trkpt>
      <trkpt lat="49.0463" lon="1.09506">
        <ele>144.1</ele>
        <time>2017-04-06T16:42:14Z</time>
      </trkpt>
      <trkpt lat="49.04635" lon="1.09493">
        <ele>144.2</ele>
        <time>2017-04-06T16:42:16Z</time>
      </trkpt>
      <trkpt lat="49.0464" lon="1.09481">
        <ele>144.2</ele>
        <time>2017-04-06T16:42:18Z</time>
      </trkpt>
      <trkpt lat="49.04645" lon="1.09467">
        <ele>144.2</ele>
        <time>2017-04-06T16:42:20Z</time>
      </trkpt>
      <trkpt lat="49.04649" lon="1.09454">
        <ele>144.3</ele>
        <time>2017-04-06T16:42:22Z</time>
      </trkpt>
      <trkpt lat="49.04654" lon="1.0944">
        <ele>144.3</ele>
        <time>2017-04-06T16:42:24Z</time>
      </trkpt>
      <trkpt lat="49.04658" lon="1.09427">
        <ele>144.4</ele>
        <time>2017-04-06T16:42:26Z</time>
      </trkpt>
      <trkpt lat="49.04663" lon="1.09413">
        <ele>144.5</ele>
        <time>2017-04-06T16:42:28Z</time>
      </trkpt>
      <trkpt lat="49.04668" lon="1.09398">
        <ele>144.6</ele>
        <time>2017-04-06T16:42:30Z</time>
      </trkpt>
      <trkpt lat="49.04673" lon="1.09384">
        <ele>144.7</ele>
        <time>2017-04-06T16:42:32Z</time>
      </trkpt>
      <trkpt lat="49.04678" lon="1.0937">
        <ele>144.7</ele>
        <time>2017-04-06T16:42:34Z</time>
      </trkpt>
      <trkpt lat="49.04682" lon="1.09355">
        <ele>144.8</ele>
        <time>2017-04-06T16:42:36Z</time>
      </trkpt>
      <trkpt lat="49.04688" lon="1.09341">
        <ele>144.9</ele>
        <time>2017-04-06T16:42:38Z</time>
      </trkpt>
      <trkpt lat="49.04692" lon="1.09326">
        <ele>145</ele>
        <time>2017-04-06T16:42:40Z</time>
      </trkpt>
      <trkpt lat="49.04697" lon="1.09311">
        <ele>145.1</ele>
        <time>2017-04-06T16:42:42Z</time>
      </trkpt>
      <trkpt lat="49.04701" lon="1.09295">
        <ele>145.2</ele>
        <time>2017-04-06T16:42:44Z</time>
      </trkpt>
      <trkpt lat="49.04706" lon="1.0928">
        <ele>145.2</ele>
        <time>2017-04-06T16:42:46Z</time>
      </trkpt>
      <trkpt lat="49.04711" lon="1.09264">
        <ele>145.3</ele>
        <time>2017-04-06T16:42:48Z</time>
      </trkpt>
      <trkpt lat="49.04717" lon="1.09249">
        <ele>145.4</ele>
        <time>2017-04-06T16:42:50Z</time>
      </trkpt>
      <trkpt lat="49.04723" lon="1.09234">
        <ele>145.4</ele>
        <time>2017-04-06T16:42:52Z</time>
      </trkpt>
      <trkpt lat="49.04728" lon="1.09218">
        <ele>145.5</ele>
        <time>2017-04-06T16:42:54Z</time>
      </trkpt>
      <trkpt lat="49.04733" lon="1.09202">
        <ele>145.5</ele>
        <time>2017-04-06T16:42:56Z</time>
      </trkpt>
      <trkpt lat="49.04738" lon="1.09186">
        <ele>145.5</ele>
        <time>2017-04-06T16:42:58Z</time>
      </trkpt>
      <trkpt lat="49.04744" lon="1.09171">
        <ele>145.6</ele>
        <time>2017-04-06T16:43:00Z</time>
      </trkpt>
      <trkpt lat="49.04749" lon="1.09155">
        <ele>145.6</ele>
        <time>2017-04-06T16:43:02Z</time>
      </trkpt>
      <trkpt lat="49.04754" lon="1.0914">
        <ele>145.6</ele>
        <time>2017-04-06T16:43:04Z</time>
      </trkpt>
      <trkpt lat="49.04758" lon="1.09124">
        <ele>145.6</ele>
        <time>2017-04-06T16:43:06Z</time>
      </trkpt>
      <trkpt lat="49.04762" lon="1.09109">
        <ele>145.7</ele>
        <time>2017-04-06T16:43:08Z</time>
      </trkpt>
      <trkpt lat="49.04768" lon="1.09096">
        <ele>145.7</ele>
        <time>2017-04-06T16:43:10Z</time>
      </trkpt>
      <trkpt lat="49.04776" lon="1.09083">
        <ele>145.6</ele>
        <time>2017-04-06T16:43:14Z</time>
      </trkpt>
      <trkpt lat="49.04782" lon="1.09064">
        <ele>145.4</ele>
        <time>2017-04-06T16:43:17Z</time>
      </trkpt>
      <trkpt lat="49.04788" lon="1.09052">
        <ele>145.3</ele>
        <time>2017-04-06T16:43:19Z</time>
      </trkpt>
      <trkpt lat="49.04797" lon="1.09043">
        <ele>145.3</ele>
        <time>2017-04-06T16:43:21Z</time>
      </trkpt>
      <trkpt lat="49.04806" lon="1.09033">
        <ele>145.2</ele>
        <time>2017-04-06T16:43:23Z</time>
      </trkpt>
      <trkpt lat="49.04814" lon="1.09022">
        <ele>145.1</ele>
        <time>2017-04-06T16:43:25Z</time>
      </trkpt>
      <trkpt lat="49.0482" lon="1.09008">
        <ele>145.1</ele>
        <time>2017-04-06T16:43:27Z</time>
      </trkpt>
      <trkpt lat="49.04826" lon="1.08993">
        <ele>145</ele>
        <time>2017-04-06T16:43:29Z</time>
      </trkpt>
      <trkpt lat="49.04832" lon="1.08979">
        <ele>145</ele>
        <time>2017-04-06T16:43:31Z</time>
      </trkpt>
      <trkpt lat="49.04838" lon="1.08965">
        <ele>144.9</ele>
        <time>2017-04-06T16:43:33Z</time>
      </trkpt>
      <trkpt lat="49.04844" lon="1.08951">
        <ele>144.9</ele>
        <time>2017-04-06T16:43:35Z</time>
      </trkpt>
      <trkpt lat="49.0485" lon="1.08938">
        <ele>144.8</ele>
        <time>2017-04-06T16:43:37Z</time>
      </trkpt>
      <trkpt lat="49.04856" lon="1.08924">
        <ele>144.7</ele>
        <time>2017-04-06T16:43:39Z</time>
      </trkpt>
      <trkpt lat="49.04862" lon="1.0891">
        <ele>144.7</ele>
        <time>2017-04-06T16:43:41Z</time>
      </trkpt>
      <trkpt lat="49.0487" lon="1.08897">
        <ele>144.6</ele>
        <time>2017-04-06T16:43:43Z</time>
      </trkpt>
      <trkpt lat="49.04878" lon="1.08885">
        <ele>144.5</ele>
        <time>2017-04-06T16:43:45Z</time>
      </trkpt>
      <trkpt lat="49.04886" lon="1.08873">
        <ele>144.3</ele>
        <time>2017-04-06T16:43:47Z</time>
      </trkpt>
      <trkpt lat="49.04894" lon="1.08861">
        <ele>144.2</ele>
        <time>2017-04-06T16:43:49Z</time>
      </trkpt>
      <trkpt lat="49.04902" lon="1.08849">
        <ele>144.2</ele>
        <time>2017-04-06T16:43:51Z</time>
      </trkpt>
      <trkpt lat="49.04911" lon="1.08837">
        <ele>144.1</ele>
        <time>2017-04-06T16:43:53Z</time>
      </trkpt>
      <trkpt lat="49.0492" lon="1.08827">
        <ele>144</ele>
        <time>2017-04-06T16:43:55Z</time>
      </trkpt>
      <trkpt lat="49.04928" lon="1.08817">
        <ele>144</ele>
        <time>2017-04-06T16:43:57Z</time>
      </trkpt>
      <trkpt lat="49.04937" lon="1.08807">
        <ele>143.9</ele>
        <time>2017-04-06T16:43:59Z</time>
      </trkpt>
      <trkpt lat="49.04946" lon="1.08798">
        <ele>143.9</ele>
        <time>2017-04-06T16:44:01Z</time>
      </trkpt>
      <trkpt lat="49.04955" lon="1.0879">
        <ele>143.8</ele>
        <time>2017-04-06T16:44:03Z</time>
      </trkpt>
      <trkpt lat="49.04964" lon="1.08782">
        <ele>143.8</ele>
        <time>2017-04-06T16:44:05Z</time>
      </trkpt>
      <trkpt lat="49.04972" lon="1.08773">
        <ele>143.8</ele>
        <time>2017-04-06T16:44:07Z</time>
      </trkpt>
      <trkpt lat="49.04981" lon="1.08763">
        <ele>143.7</ele>
        <time>2017-04-06T16:44:09Z</time>
      </trkpt>
      <trkpt lat="49.04991" lon="1.08755">
        <ele>143.7</ele>
        <time>2017-04-06T16:44:11Z</time>
      </trkpt>
      <trkpt lat="49.05001" lon="1.08748">
        <ele>143.7</ele>
        <time>2017-04-06T16:44:13Z</time>
      </trkpt>
      <trkpt lat="49.0501" lon="1.08742">
        <ele>143.7</ele>
        <time>2017-04-06T16:44:15Z</time>
      </trkpt>
      <trkpt lat="49.05021" lon="1.08737">
        <ele>143.7</ele>
        <time>2017-04-06T16:44:17Z</time>
      </trkpt>
      <trkpt lat="49.05031" lon="1.08734">
        <ele>143.6</ele>
        <time>2017-04-06T16:44:19Z</time>
      </trkpt>
      <trkpt lat="49.05042" lon="1.08732">
        <ele>143.5</ele>
        <time>2017-04-06T16:44:21Z</time>
      </trkpt>
      <trkpt lat="49.05053" lon="1.0873">
        <ele>143.5</ele>
        <time>2017-04-06T16:44:23Z</time>
      </trkpt>
      <trkpt lat="49.05065" lon="1.0873">
        <ele>143.4</ele>
        <time>2017-04-06T16:44:25Z</time>
      </trkpt>
      <trkpt lat="49.05076" lon="1.08729">
        <ele>143.4</ele>
        <time>2017-04-06T16:44:27Z</time>
      </trkpt>
      <trkpt lat="49.05087" lon="1.08729">
        <ele>143.2</ele>
        <time>2017-04-06T16:44:29Z</time>
      </trkpt>
      <trkpt lat="49.05098" lon="1.08728">
        <ele>143.1</ele>
        <time>2017-04-06T16:44:31Z</time>
      </trkpt>
      <trkpt lat="49.05108" lon="1.08726">
        <ele>143</ele>
        <time>2017-04-06T16:44:33Z</time>
      </trkpt>
      <trkpt lat="49.05118" lon="1.08725">
        <ele>142.9</ele>
        <time>2017-04-06T16:44:35Z</time>
      </trkpt>
      <trkpt lat="49.05131" lon="1.08725">
        <ele>142.8</ele>
        <time>2017-04-06T16:44:38Z</time>
      </trkpt>
      <trkpt lat="49.05138" lon="1.08716">
        <ele>142.6</ele>
        <time>2017-04-06T16:44:41Z</time>
      </trkpt>
      <trkpt lat="49.05137" lon="1.08701">
        <ele>142.4</ele>
        <time>2017-04-06T16:44:44Z</time>
      </trkpt>
      <trkpt lat="49.05135" lon="1.08681">
        <ele>142.2</ele>
        <time>2017-04-06T16:44:47Z</time>
      </trkpt>
      <trkpt lat="49.05134" lon="1.08666">
        <ele>142.1</ele>
        <time>2017-04-06T16:44:49Z</time>
      </trkpt>
      <trkpt lat="49.05133" lon="1.0865">
        <ele>142</ele>
        <time>2017-04-06T16:44:51Z</time>
      </trkpt>
      <trkpt lat="49.05132" lon="1.08634">
        <ele>142</ele>
        <time>2017-04-06T16:44:53Z</time>
      </trkpt>
      <trkpt lat="49.05134" lon="1.0862">
        <ele>141.9</ele>
        <time>2017-04-06T16:44:55Z</time>
      </trkpt>
      <trkpt lat="49.05144" lon="1.08609">
        <ele>141.8</ele>
        <time>2017-04-06T16:44:58Z</time>
      </trkpt>
      <trkpt lat="49.05154" lon="1.08596">
        <ele>141.7</ele>
        <time>2017-04-06T16:45:01Z</time>
      </trkpt>
      <trkpt lat="49.05164" lon="1.08589">
        <ele>141.7</ele>
        <time>2017-04-06T16:45:03Z</time>
      </trkpt>
      <trkpt lat="49.05176" lon="1.08587">
        <ele>141.6</ele>
        <time>2017-04-06T16:45:05Z</time>
      </trkpt>
      <trkpt lat="49.05188" lon="1.08586">
        <ele>141.6</ele>
        <time>2017-04-06T16:45:07Z</time>
      </trkpt>
      <trkpt lat="49.05201" lon="1.08586">
        <ele>141.6</ele>
        <time>2017-04-06T16:45:09Z</time>
      </trkpt>
      <trkpt lat="49.05213" lon="1.08585">
        <ele>141.6</ele>
        <time>2017-04-06T16:45:11Z</time>
      </trkpt>
      <trkpt lat="49.05226" lon="1.08586">
        <ele>141.5</ele>
        <time>2017-04-06T16:45:13Z</time>
      </trkpt>
      <trkpt lat="49.05237" lon="1.08584">
        <ele>141.5</ele>
        <time>2017-04-06T16:45:15Z</time>
      </trkpt>
      <trkpt lat="49.05248" lon="1.08578">
        <ele>141.4</ele>
        <time>2017-04-06T16:45:17Z</time>
      </trkpt>
      <trkpt lat="49.05259" lon="1.0857">
        <ele>141.3</ele>
        <time>2017-04-06T16:45:19Z</time>
      </trkpt>
      <trkpt lat="49.05269" lon="1.08562">
        <ele>141.3</ele>
        <time>2017-04-06T16:45:21Z</time>
      </trkpt>
      <trkpt lat="49.0528" lon="1.08554">
        <ele>141.2</ele>
        <time>2017-04-06T16:45:23Z</time>
      </trkpt>
      <trkpt lat="49.05288" lon="1.08543">
        <ele>141.2</ele>
        <time>2017-04-06T16:45:25Z</time>
      </trkpt>
      <trkpt lat="49.05291" lon="1.08524">
        <ele>141.1</ele>
        <time>2017-04-06T16:45:27Z</time>
      </trkpt>
      <trkpt lat="49.0529" lon="1.08504">
        <ele>140.9</ele>
        <time>2017-04-06T16:45:29Z</time>
      </trkpt>
      <trkpt lat="49.0529" lon="1.08483">
        <ele>140.8</ele>
        <time>2017-04-06T16:45:31Z</time>
      </trkpt>
      <trkpt lat="49.0529" lon="1.08462">
        <ele>140.6</ele>
        <time>2017-04-06T16:45:33Z</time>
      </trkpt>
      <trkpt lat="49.0529" lon="1.08442">
        <ele>140.4</ele>
        <time>2017-04-06T16:45:35Z</time>
      </trkpt>
      <trkpt lat="49.0529" lon="1.08423">
        <ele>140.2</ele>
        <time>2017-04-06T16:45:37Z</time>
      </trkpt>
      <trkpt lat="49.0529" lon="1.08404">
        <ele>140</ele>
        <time>2017-04-06T16:45:39Z</time>
      </trkpt>
      <trkpt lat="49.0529" lon="1.08387">
        <ele>139.8</ele>
        <time>2017-04-06T16:45:41Z</time>
      </trkpt>
      <trkpt lat="49.0529" lon="1.0837">
        <ele>139.6</ele>
        <time>2017-04-06T16:45:43Z</time>
      </trkpt>
      <trkpt lat="49.0529" lon="1.08353">
        <ele>139.5</ele>
        <time>2017-04-06T16:45:45Z</time>
      </trkpt>
      <trkpt lat="49.05291" lon="1.08335">
        <ele>139.1</ele>
        <time>2017-04-06T16:45:47Z</time>
      </trkpt>
      <trkpt lat="49.05292" lon="1.08316">
        <ele>138.8</ele>
        <time>2017-04-06T16:45:49Z</time>
      </trkpt>
      <trkpt lat="49.05294" lon="1.08298">
        <ele>138.6</ele>
        <time>2017-04-06T16:45:51Z</time>
      </trkpt>
      <trkpt lat="49.05298" lon="1.08282">
        <ele>138.4</ele>
        <time>2017-04-06T16:45:53Z</time>
      </trkpt>
      <trkpt lat="49.05305" lon="1.0827">
        <ele>138.3</ele>
        <time>2017-04-06T16:45:55Z</time>
      </trkpt>
      <trkpt lat="49.05312" lon="1.08258">
        <ele>138.2</ele>
        <time>2017-04-06T16:45:57Z</time>
      </trkpt>
      <trkpt lat="49.05319" lon="1.08248">
        <ele>138.1</ele>
        <time>2017-04-06T16:45:59Z</time>
      </trkpt>
      <trkpt lat="49.05326" lon="1.08237">
        <ele>138</ele>
        <time>2017-04-06T16:46:01Z</time>
      </trkpt>
      <trkpt lat="49.05332" lon="1.08225">
        <ele>137.9</ele>
        <time>2017-04-06T16:46:03Z</time>
      </trkpt>
      <trkpt lat="49.05339" lon="1.08214">
        <ele>137.9</ele>
        <time>2017-04-06T16:46:05Z</time>
      </trkpt>
      <trkpt lat="49.05344" lon="1.08201">
        <ele>137.8</ele>
        <time>2017-04-06T16:46:07Z</time>
      </trkpt>
      <trkpt lat="49.0535" lon="1.08188">
        <ele>137.9</ele>
        <time>2017-04-06T16:46:09Z</time>
      </trkpt>
      <trkpt lat="49.05355" lon="1.08173">
        <ele>137.9</ele>
        <time>2017-04-06T16:46:11Z</time>
      </trkpt>
      <trkpt lat="49.05359" lon="1.0816">
        <ele>137.9</ele>
        <time>2017-04-06T16:46:13Z</time>
      </trkpt>
      <trkpt lat="49.05363" lon="1.08146">
        <ele>137.9</ele>
        <time>2017-04-06T16:46:15Z</time>
      </trkpt>
      <trkpt lat="49.05366" lon="1.08132">
        <ele>137.9</ele>
        <time>2017-04-06T16:46:17Z</time>
      </trkpt>
      <trkpt lat="49.05368" lon="1.08117">
        <ele>137.9</ele>
        <time>2017-04-06T16:46:19Z</time>
      </trkpt>
      <trkpt lat="49.0537" lon="1.08102">
        <ele>137.9</ele>
        <time>2017-04-06T16:46:21Z</time>
      </trkpt>
      <trkpt lat="49.05371" lon="1.08085">
        <ele>138</ele>
        <time>2017-04-06T16:46:23Z</time>
      </trkpt>
      <trkpt lat="49.05372" lon="1.0807">
        <ele>138</ele>
        <time>2017-04-06T16:46:25Z</time>
      </trkpt>
      <trkpt lat="49.05373" lon="1.08054">
        <ele>138</ele>
        <time>2017-04-06T16:46:27Z</time>
      </trkpt>
      <trkpt lat="49.05374" lon="1.08038">
        <ele>138</ele>
        <time>2017-04-06T16:46:29Z</time>
      </trkpt>
      <trkpt lat="49.05374" lon="1.08022">
        <ele>138</ele>
        <time>2017-04-06T16:46:31Z</time>
      </trkpt>
      <trkpt lat="49.05374" lon="1.08006">
        <ele>138.1</ele>
        <time>2017-04-06T16:46:33Z</time>
      </trkpt>
      <trkpt lat="49.05373" lon="1.07991">
        <ele>138.1</ele>
        <time>2017-04-06T16:46:35Z</time>
      </trkpt>
      <trkpt lat="49.05372" lon="1.07975">
        <ele>138.1</ele>
        <time>2017-04-06T16:46:37Z</time>
      </trkpt>
      <trkpt lat="49.0537" lon="1.07959">
        <ele>138.1</ele>
        <time>2017-04-06T16:46:39Z</time>
      </trkpt>
      <trkpt lat="49.05369" lon="1.07944">
        <ele>138.1</ele>
        <time>2017-04-06T16:46:41Z</time>
      </trkpt>
      <trkpt lat="49.05366" lon="1.07928">
        <ele>138.1</ele>
        <time>2017-04-06T16:46:43Z</time>
      </trkpt>
      <trkpt lat="49.05365" lon="1.07912">
        <ele>138.1</ele>
        <time>2017-04-06T16:46:45Z</time>
      </trkpt>
      <trkpt lat="49.05363" lon="1.07896">
        <ele>138.1</ele>
        <time>2017-04-06T16:46:47Z</time>
      </trkpt>
      <trkpt lat="49.05361" lon="1.0788">
        <ele>138.2</ele>
        <time>2017-04-06T16:46:49Z</time>
      </trkpt>
      <trkpt lat="49.05359" lon="1.07864">
        <ele>138.2</ele>
        <time>2017-04-06T16:46:51Z</time>
      </trkpt>
      <trkpt lat="49.05358" lon="1.07851">
        <ele>138.2</ele>
        <time>2017-04-06T16:46:53Z</time>
      </trkpt>
      <trkpt lat="49.05356" lon="1.07835">
        <ele>138.2</ele>
        <time>2017-04-06T16:46:56Z</time>
      </trkpt>
      <trkpt lat="49.05352" lon="1.0782">
        <ele>138.1</ele>
        <time>2017-04-06T16:46:59Z</time>
      </trkpt>
      <trkpt lat="49.05347" lon="1.07808">
        <ele>138.1</ele>
        <time>2017-04-06T16:47:01Z</time>
      </trkpt>
      <trkpt lat="49.05341" lon="1.07797">
        <ele>138</ele>
        <time>2017-04-06T16:47:03Z</time>
      </trkpt>
      <trkpt lat="49.05334" lon="1.07784">
        <ele>138</ele>
        <time>2017-04-06T16:47:05Z</time>
      </trkpt>
      <trkpt lat="49.05326" lon="1.07769">
        <ele>137.9</ele>
        <time>2017-04-06T16:47:07Z</time>
      </trkpt>
      <trkpt lat="49.05319" lon="1.07753">
        <ele>137.9</ele>
        <time>2017-04-06T16:47:09Z</time>
      </trkpt>
      <trkpt lat="49.05313" lon="1.07739">
        <ele>137.9</ele>
        <time>2017-04-06T16:47:11Z</time>
      </trkpt>
      <trkpt lat="49.05318" lon="1.07721">
        <ele>137.8</ele>
        <time>2017-04-06T16:47:14Z</time>
      </trkpt>
      <trkpt lat="49.05329" lon="1.07713">
        <ele>137.7</ele>
        <time>2017-04-06T16:47:17Z</time>
      </trkpt>
      <trkpt lat="49.05342" lon="1.07703">
        <ele>137.5</ele>
        <time>2017-04-06T16:47:20Z</time>
      </trkpt>
      <trkpt lat="49.0535" lon="1.07695">
        <ele>137.4</ele>
        <time>2017-04-06T16:47:22Z</time>
      </trkpt>
      <trkpt lat="49.05358" lon="1.07689">
        <ele>137.3</ele>
        <time>2017-04-06T16:47:24Z</time>
      </trkpt>
      <trkpt lat="49.05368" lon="1.07677">
        <ele>137.2</ele>
        <time>2017-04-06T16:47:27Z</time>
      </trkpt>
      <trkpt lat="49.05378" lon="1.07667">
        <ele>137.1</ele>
        <time>2017-04-06T16:47:30Z</time>
      </trkpt>
      <trkpt lat="49.05387" lon="1.07657">
        <ele>137.1</ele>
        <time>2017-04-06T16:47:33Z</time>
      </trkpt>
      <trkpt lat="49.05397" lon="1.07648">
        <ele>137</ele>
        <time>2017-04-06T16:47:36Z</time>
      </trkpt>
      <trkpt lat="49.05406" lon="1.07643">
        <ele>137</ele>
        <time>2017-04-06T16:47:38Z</time>
      </trkpt>
      <trkpt lat="49.05417" lon="1.07634">
        <ele>136.9</ele>
        <time>2017-04-06T16:47:41Z</time>
      </trkpt>
      <trkpt lat="49.05426" lon="1.07628">
        <ele>136.9</ele>
        <time>2017-04-06T16:47:43Z</time>
      </trkpt>
      <trkpt lat="49.05435" lon="1.07617">
        <ele>136.9</ele>
        <time>2017-04-06T16:47:46Z</time>
      </trkpt>
      <trkpt lat="49.05443" lon="1.07609">
        <ele>136.9</ele>
        <time>2017-04-06T16:47:48Z</time>
      </trkpt>
      <trkpt lat="49.05453" lon="1.07599">
        <ele>136.8</ele>
        <time>2017-04-06T16:47:51Z</time>
      </trkpt>
      <trkpt lat="49.05461" lon="1.07591">
        <ele>136.8</ele>
        <time>2017-04-06T16:47:53Z</time>
      </trkpt>
      <trkpt lat="49.05471" lon="1.07585">
        <ele>136.8</ele>
        <time>2017-04-06T16:47:55Z</time>
      </trkpt>
      <trkpt lat="49.05481" lon="1.07578">
        <ele>136.8</ele>
        <time>2017-04-06T16:47:57Z</time>
      </trkpt>
      <trkpt lat="49.05493" lon="1.07572">
        <ele>136.8</ele>
        <time>2017-04-06T16:47:59Z</time>
      </trkpt>
      <trkpt lat="49.05503" lon="1.07565">
        <ele>136.8</ele>
        <time>2017-04-06T16:48:01Z</time>
      </trkpt>
      <trkpt lat="49.05512" lon="1.07558">
        <ele>136.8</ele>
        <time>2017-04-06T16:48:03Z</time>
      </trkpt>
      <trkpt lat="49.05523" lon="1.07552">
        <ele>136.8</ele>
        <time>2017-04-06T16:48:05Z</time>
      </trkpt>
      <trkpt lat="49.05533" lon="1.07546">
        <ele>136.8</ele>
        <time>2017-04-06T16:48:07Z</time>
      </trkpt>
      <trkpt lat="49.05541" lon="1.07539">
        <ele>136.8</ele>
        <time>2017-04-06T16:48:09Z</time>
      </trkpt>
      <trkpt lat="49.0555" lon="1.07531">
        <ele>136.8</ele>
        <time>2017-04-06T16:48:11Z</time>
      </trkpt>
      <trkpt lat="49.05561" lon="1.07524">
        <ele>136.8</ele>
        <time>2017-04-06T16:48:13Z</time>
      </trkpt>
      <trkpt lat="49.05574" lon="1.07512">
        <ele>136.7</ele>
        <time>2017-04-06T16:48:16Z</time>
      </trkpt>
      <trkpt lat="49.05585" lon="1.07505">
        <ele>136.7</ele>
        <time>2017-04-06T16:48:18Z</time>
      </trkpt>
      <trkpt lat="49.05596" lon="1.07498">
        <ele>136.7</ele>
        <time>2017-04-06T16:48:20Z</time>
      </trkpt>
      <trkpt lat="49.05603" lon="1.0749">
        <ele>136.8</ele>
        <time>2017-04-06T16:48:22Z</time>
      </trkpt>
      <trkpt lat="49.05615" lon="1.07483">
        <ele>136.8</ele>
        <time>2017-04-06T16:48:24Z</time>
      </trkpt>
      <trkpt lat="49.05624" lon="1.07475">
        <ele>136.9</ele>
        <time>2017-04-06T16:48:26Z</time>
      </trkpt>
      <trkpt lat="49.05636" lon="1.07468">
        <ele>137</ele>
        <time>2017-04-06T16:48:28Z</time>
      </trkpt>
      <trkpt lat="49.05646" lon="1.0746">
        <ele>137</ele>
        <time>2017-04-06T16:48:30Z</time>
      </trkpt>
      <trkpt lat="49.05661" lon="1.07453">
        <ele>137.1</ele>
        <time>2017-04-06T16:48:32Z</time>
      </trkpt>
      <trkpt lat="49.05674" lon="1.07447">
        <ele>137.2</ele>
        <time>2017-04-06T16:48:34Z</time>
      </trkpt>
      <trkpt lat="49.05688" lon="1.0744">
        <ele>137</ele>
        <time>2017-04-06T16:48:36Z</time>
      </trkpt>
      <trkpt lat="49.05705" lon="1.07428">
        <ele>137.4</ele>
        <time>2017-04-06T16:48:39Z</time>
      </trkpt>
      <trkpt lat="49.05715" lon="1.07423">
        <ele>137.5</ele>
        <time>2017-04-06T16:48:41Z</time>
      </trkpt>
      <trkpt lat="49.05729" lon="1.07416">
        <ele>137.6</ele>
        <time>2017-04-06T16:48:43Z</time>
      </trkpt>
      <trkpt lat="49.05744" lon="1.07409">
        <ele>137.6</ele>
        <time>2017-04-06T16:48:45Z</time>
      </trkpt>
      <trkpt lat="49.05755" lon="1.07401">
        <ele>137.7</ele>
        <time>2017-04-06T16:48:47Z</time>
      </trkpt>
      <trkpt lat="49.05766" lon="1.07393">
        <ele>137.8</ele>
        <time>2017-04-06T16:48:49Z</time>
      </trkpt>
      <trkpt lat="49.05774" lon="1.07385">
        <ele>137.9</ele>
        <time>2017-04-06T16:48:51Z</time>
      </trkpt>
      <trkpt lat="49.05785" lon="1.07377">
        <ele>138</ele>
        <time>2017-04-06T16:48:53Z</time>
      </trkpt>
      <trkpt lat="49.05793" lon="1.07368">
        <ele>138.1</ele>
        <time>2017-04-06T16:48:55Z</time>
      </trkpt>
      <trkpt lat="49.05802" lon="1.07359">
        <ele>138.2</ele>
        <time>2017-04-06T16:48:57Z</time>
      </trkpt>
      <trkpt lat="49.05812" lon="1.0735">
        <ele>138.4</ele>
        <time>2017-04-06T16:48:59Z</time>
      </trkpt>
      <trkpt lat="49.05824" lon="1.07343">
        <ele>138.5</ele>
        <time>2017-04-06T16:49:01Z</time>
      </trkpt>
      <trkpt lat="49.05833" lon="1.07335">
        <ele>138.6</ele>
        <time>2017-04-06T16:49:03Z</time>
      </trkpt>
      <trkpt lat="49.05843" lon="1.07326">
        <ele>138.8</ele>
        <time>2017-04-06T16:49:05Z</time>
      </trkpt>
      <trkpt lat="49.05853" lon="1.07319">
        <ele>138.9</ele>
        <time>2017-04-06T16:49:07Z</time>
      </trkpt>
      <trkpt lat="49.05868" lon="1.0731">
        <ele>139</ele>
        <time>2017-04-06T16:49:09Z</time>
      </trkpt>
      <trkpt lat="49.05878" lon="1.07302">
        <ele>139.1</ele>
        <time>2017-04-06T16:49:11Z</time>
      </trkpt>
      <trkpt lat="49.05889" lon="1.07293">
        <ele>139.2</ele>
        <time>2017-04-06T16:49:13Z</time>
      </trkpt>
      <trkpt lat="49.05901" lon="1.07284">
        <ele>139.4</ele>
        <time>2017-04-06T16:49:15Z</time>
      </trkpt>
      <trkpt lat="49.05914" lon="1.07275">
        <ele>139.5</ele>
        <time>2017-04-06T16:49:17Z</time>
      </trkpt>
      <trkpt lat="49.05925" lon="1.07266">
        <ele>139.7</ele>
        <time>2017-04-06T16:49:19Z</time>
      </trkpt>
      <trkpt lat="49.05938" lon="1.07258">
        <ele>139.8</ele>
        <time>2017-04-06T16:49:21Z</time>
      </trkpt>
      <trkpt lat="49.05952" lon="1.0725">
        <ele>139.9</ele>
        <time>2017-04-06T16:49:23Z</time>
      </trkpt>
      <trkpt lat="49.05967" lon="1.07242">
        <ele>140.1</ele>
        <time>2017-04-06T16:49:25Z</time>
      </trkpt>
      <trkpt lat="49.05978" lon="1.07234">
        <ele>140.2</ele>
        <time>2017-04-06T16:49:27Z</time>
      </trkpt>
      <trkpt lat="49.05989" lon="1.07224">
        <ele>140.3</ele>
        <time>2017-04-06T16:49:29Z</time>
      </trkpt>
      <trkpt lat="49.05999" lon="1.07216">
        <ele>140.4</ele>
        <time>2017-04-06T16:49:31Z</time>
      </trkpt>
      <trkpt lat="49.0601" lon="1.07207">
        <ele>140.6</ele>
        <time>2017-04-06T16:49:33Z</time>
      </trkpt>
      <trkpt lat="49.06021" lon="1.07198">
        <ele>140.8</ele>
        <time>2017-04-06T16:49:35Z</time>
      </trkpt>
      <trkpt lat="49.06033" lon="1.0719">
        <ele>140.9</ele>
        <time>2017-04-06T16:49:37Z</time>
      </trkpt>
      <trkpt lat="49.06045" lon="1.07181">
        <ele>141.1</ele>
        <time>2017-04-06T16:49:39Z</time>
      </trkpt>
      <trkpt lat="49.06056" lon="1.07172">
        <ele>141.2</ele>
        <time>2017-04-06T16:49:41Z</time>
      </trkpt>
      <trkpt lat="49.06066" lon="1.07163">
        <ele>141.4</ele>
        <time>2017-04-06T16:49:43Z</time>
      </trkpt>
      <trkpt lat="49.06075" lon="1.07155">
        <ele>141.5</ele>
        <time>2017-04-06T16:49:45Z</time>
      </trkpt>
      <trkpt lat="49.06083" lon="1.07146">
        <ele>141.7</ele>
        <time>2017-04-06T16:49:47Z</time>
      </trkpt>
      <trkpt lat="49.0609" lon="1.07136">
        <ele>141.8</ele>
        <time>2017-04-06T16:49:49Z</time>
      </trkpt>
      <trkpt lat="49.06097" lon="1.07121">
        <ele>142</ele>
        <time>2017-04-06T16:49:52Z</time>
      </trkpt>
      <trkpt lat="49.06107" lon="1.07112">
        <ele>142.1</ele>
        <time>2017-04-06T16:49:54Z</time>
      </trkpt>
      <trkpt lat="49.06117" lon="1.07105">
        <ele>142.2</ele>
        <time>2017-04-06T16:49:56Z</time>
      </trkpt>
      <trkpt lat="49.06129" lon="1.07098">
        <ele>142.4</ele>
        <time>2017-04-06T16:49:58Z</time>
      </trkpt>
      <trkpt lat="49.0614" lon="1.0709">
        <ele>142.5</ele>
        <time>2017-04-06T16:50:00Z</time>
      </trkpt>
      <trkpt lat="49.0615" lon="1.07081">
        <ele>142.6</ele>
        <time>2017-04-06T16:50:02Z</time>
      </trkpt>
      <trkpt lat="49.06162" lon="1.07073">
        <ele>142.7</ele>
        <time>2017-04-06T16:50:04Z</time>
      </trkpt>
      <trkpt lat="49.06175" lon="1.07064">
        <ele>142.8</ele>
        <time>2017-04-06T16:50:06Z</time>
      </trkpt>
      <trkpt lat="49.06184" lon="1.07056">
        <ele>142.9</ele>
        <time>2017-04-06T16:50:08Z</time>
      </trkpt>
      <trkpt lat="49.06194" lon="1.07047">
        <ele>143</ele>
        <time>2017-04-06T16:50:10Z</time>
      </trkpt>
      <trkpt lat="49.06206" lon="1.07039">
        <ele>143.1</ele>
        <time>2017-04-06T16:50:12Z</time>
      </trkpt>
      <trkpt lat="49.06217" lon="1.0703">
        <ele>143.2</ele>
        <time>2017-04-06T16:50:14Z</time>
      </trkpt>
      <trkpt lat="49.06229" lon="1.07022">
        <ele>143.3</ele>
        <time>2017-04-06T16:50:16Z</time>
      </trkpt>
      <trkpt lat="49.06241" lon="1.07014">
        <ele>143.4</ele>
        <time>2017-04-06T16:50:18Z</time>
      </trkpt>
      <trkpt lat="49.06252" lon="1.07005">
        <ele>143.4</ele>
        <time>2017-04-06T16:50:20Z</time>
      </trkpt>
      <trkpt lat="49.06262" lon="1.06997">
        <ele>143.5</ele>
        <time>2017-04-06T16:50:22Z</time>
      </trkpt>
      <trkpt lat="49.06273" lon="1.06988">
        <ele>143.6</ele>
        <time>2017-04-06T16:50:24Z</time>
      </trkpt>
      <trkpt lat="49.06283" lon="1.06979">
        <ele>143.8</ele>
        <time>2017-04-06T16:50:26Z</time>
      </trkpt>
      <trkpt lat="49.06295" lon="1.0697">
        <ele>143.9</ele>
        <time>2017-04-06T16:50:28Z</time>
      </trkpt>
      <trkpt lat="49.06306" lon="1.06962">
        <ele>144</ele>
        <time>2017-04-06T16:50:30Z</time>
      </trkpt>
      <trkpt lat="49.06316" lon="1.06954">
        <ele>144.1</ele>
        <time>2017-04-06T16:50:32Z</time>
      </trkpt>
      <trkpt lat="49.06326" lon="1.06948">
        <ele>144.1</ele>
        <time>2017-04-06T16:50:34Z</time>
      </trkpt>
      <trkpt lat="49.06335" lon="1.06941">
        <ele>144.2</ele>
        <time>2017-04-06T16:50:36Z</time>
      </trkpt>
      <trkpt lat="49.06345" lon="1.06934">
        <ele>144.3</ele>
        <time>2017-04-06T16:50:38Z</time>
      </trkpt>
      <trkpt lat="49.06356" lon="1.06926">
        <ele>144.4</ele>
        <time>2017-04-06T16:50:40Z</time>
      </trkpt>
      <trkpt lat="49.06365" lon="1.06917">
        <ele>144.5</ele>
        <time>2017-04-06T16:50:42Z</time>
      </trkpt>
      <trkpt lat="49.06376" lon="1.06909">
        <ele>144.5</ele>
        <time>2017-04-06T16:50:44Z</time>
      </trkpt>
      <trkpt lat="49.06386" lon="1.069">
        <ele>144.6</ele>
        <time>2017-04-06T16:50:46Z</time>
      </trkpt>
      <trkpt lat="49.06396" lon="1.06891">
        <ele>144.6</ele>
        <time>2017-04-06T16:50:48Z</time>
      </trkpt>
      <trkpt lat="49.06407" lon="1.06883">
        <ele>144.7</ele>
        <time>2017-04-06T16:50:50Z</time>
      </trkpt>
      <trkpt lat="49.06418" lon="1.06874">
        <ele>144.7</ele>
        <time>2017-04-06T16:50:52Z</time>
      </trkpt>
      <trkpt lat="49.06429" lon="1.06865">
        <ele>144.8</ele>
        <time>2017-04-06T16:50:54Z</time>
      </trkpt>
      <trkpt lat="49.0644" lon="1.06857">
        <ele>144.8</ele>
        <time>2017-04-06T16:50:56Z</time>
      </trkpt>
      <trkpt lat="49.06451" lon="1.06848">
        <ele>144.8</ele>
        <time>2017-04-06T16:50:58Z</time>
      </trkpt>
      <trkpt lat="49.06462" lon="1.06839">
        <ele>144.8</ele>
        <time>2017-04-06T16:51:00Z</time>
      </trkpt>
      <trkpt lat="49.06472" lon="1.0683">
        <ele>144.9</ele>
        <time>2017-04-06T16:51:02Z</time>
      </trkpt>
      <trkpt lat="49.06483" lon="1.06822">
        <ele>144.9</ele>
        <time>2017-04-06T16:51:04Z</time>
      </trkpt>
      <trkpt lat="49.06493" lon="1.06813">
        <ele>145</ele>
        <time>2017-04-06T16:51:06Z</time>
      </trkpt>
      <trkpt lat="49.06503" lon="1.06804">
        <ele>145</ele>
        <time>2017-04-06T16:51:08Z</time>
      </trkpt>
      <trkpt lat="49.06513" lon="1.06795">
        <ele>145</ele>
        <time>2017-04-06T16:51:10Z</time>
      </trkpt>
      <trkpt lat="49.06524" lon="1.06786">
        <ele>145</ele>
        <time>2017-04-06T16:51:12Z</time>
      </trkpt>
      <trkpt lat="49.06535" lon="1.06778">
        <ele>145.1</ele>
        <time>2017-04-06T16:51:14Z</time>
      </trkpt>
      <trkpt lat="49.06544" lon="1.06769">
        <ele>145.1</ele>
        <time>2017-04-06T16:51:16Z</time>
      </trkpt>
      <trkpt lat="49.06554" lon="1.0676">
        <ele>145.1</ele>
        <time>2017-04-06T16:51:18Z</time>
      </trkpt>
      <trkpt lat="49.06565" lon="1.06751">
        <ele>145.1</ele>
        <time>2017-04-06T16:51:20Z</time>
      </trkpt>
      <trkpt lat="49.06575" lon="1.06742">
        <ele>145.1</ele>
        <time>2017-04-06T16:51:22Z</time>
      </trkpt>
      <trkpt lat="49.06585" lon="1.06733">
        <ele>145.1</ele>
        <time>2017-04-06T16:51:24Z</time>
      </trkpt>
      <trkpt lat="49.06595" lon="1.06724">
        <ele>145.2</ele>
        <time>2017-04-06T16:51:26Z</time>
      </trkpt>
      <trkpt lat="49.06607" lon="1.06715">
        <ele>145.2</ele>
        <time>2017-04-06T16:51:28Z</time>
      </trkpt>
      <trkpt lat="49.06618" lon="1.06706">
        <ele>145.2</ele>
        <time>2017-04-06T16:51:30Z</time>
      </trkpt>
      <trkpt lat="49.06629" lon="1.06698">
        <ele>145.2</ele>
        <time>2017-04-06T16:51:32Z</time>
      </trkpt>
      <trkpt lat="49.06641" lon="1.06688">
        <ele>145.2</ele>
        <time>2017-04-06T16:51:34Z</time>
      </trkpt>
      <trkpt lat="49.06653" lon="1.06679">
        <ele>145.3</ele>
        <time>2017-04-06T16:51:36Z</time>
      </trkpt>
      <trkpt lat="49.06663" lon="1.0667">
        <ele>145.3</ele>
        <time>2017-04-06T16:51:38Z</time>
      </trkpt>
      <trkpt lat="49.06672" lon="1.06662">
        <ele>145.3</ele>
        <time>2017-04-06T16:51:40Z</time>
      </trkpt>
      <trkpt lat="49.06682" lon="1.06653">
        <ele>145.4</ele>
        <time>2017-04-06T16:51:42Z</time>
      </trkpt>
      <trkpt lat="49.06693" lon="1.06644">
        <ele>145.4</ele>
        <time>2017-04-06T16:51:44Z</time>
      </trkpt>
      <trkpt lat="49.06704" lon="1.06635">
        <ele>145.5</ele>
        <time>2017-04-06T16:51:46Z</time>
      </trkpt>
      <trkpt lat="49.06715" lon="1.06627">
        <ele>145.5</ele>
        <time>2017-04-06T16:51:48Z</time>
      </trkpt>
      <trkpt lat="49.06728" lon="1.06618">
        <ele>145.5</ele>
        <time>2017-04-06T16:51:50Z</time>
      </trkpt>
      <trkpt lat="49.06738" lon="1.0661">
        <ele>145.6</ele>
        <time>2017-04-06T16:51:52Z</time>
      </trkpt>
      <trkpt lat="49.0675" lon="1.06602">
        <ele>145.6</ele>
        <time>2017-04-06T16:51:54Z</time>
      </trkpt>
      <trkpt lat="49.06761" lon="1.06593">
        <ele>145.6</ele>
        <time>2017-04-06T16:51:56Z</time>
      </trkpt>
      <trkpt lat="49.06772" lon="1.06584">
        <ele>145.6</ele>
        <time>2017-04-06T16:51:58Z</time>
      </trkpt>
      <trkpt lat="49.06783" lon="1.06575">
        <ele>145.7</ele>
        <time>2017-04-06T16:52:00Z</time>
      </trkpt>
      <trkpt lat="49.06794" lon="1.06567">
        <ele>145.7</ele>
        <time>2017-04-06T16:52:02Z</time>
      </trkpt>
      <trkpt lat="49.06804" lon="1.06558">
        <ele>145.7</ele>
        <time>2017-04-06T16:52:04Z</time>
      </trkpt>
      <trkpt lat="49.06815" lon="1.0655">
        <ele>145.7</ele>
        <time>2017-04-06T16:52:06Z</time>
      </trkpt>
      <trkpt lat="49.06825" lon="1.06541">
        <ele>145.8</ele>
        <time>2017-04-06T16:52:08Z</time>
      </trkpt>
      <trkpt lat="49.06836" lon="1.06533">
        <ele>145.8</ele>
        <time>2017-04-06T16:52:10Z</time>
      </trkpt>
      <trkpt lat="49.06846" lon="1.06526">
        <ele>145.9</ele>
        <time>2017-04-06T16:52:12Z</time>
      </trkpt>
      <trkpt lat="49.06857" lon="1.06521">
        <ele>145.9</ele>
        <time>2017-04-06T16:52:15Z</time>
      </trkpt>
      <trkpt lat="49.06858" lon="1.06538">
        <ele>146</ele>
        <time>2017-04-06T16:52:19Z</time>
      </trkpt>
      <trkpt lat="49.06865" lon="1.0655">
        <ele>146</ele>
        <time>2017-04-06T16:52:22Z</time>
      </trkpt>
      <trkpt lat="49.06877" lon="1.06552">
        <ele>146</ele>
        <time>2017-04-06T16:52:25Z</time>
      </trkpt>
      <trkpt lat="49.06889" lon="1.06547">
        <ele>146</ele>
        <time>2017-04-06T16:52:28Z</time>
      </trkpt>
      <trkpt lat="49.06899" lon="1.06545">
        <ele>146.1</ele>
        <time>2017-04-06T16:52:30Z</time>
      </trkpt>
      <trkpt lat="49.06912" lon="1.06546">
        <ele>146.1</ele>
        <time>2017-04-06T16:52:33Z</time>
      </trkpt>
      <trkpt lat="49.06923" lon="1.06555">
        <ele>146.2</ele>
        <time>2017-04-06T16:52:36Z</time>
      </trkpt>
      <trkpt lat="49.06934" lon="1.06568">
        <ele>146.3</ele>
        <time>2017-04-06T16:52:39Z</time>
      </trkpt>
      <trkpt lat="49.0694" lon="1.06578">
        <ele>146.4</ele>
        <time>2017-04-06T16:52:41Z</time>
      </trkpt>
      <trkpt lat="49.06946" lon="1.06588">
        <ele>146.5</ele>
        <time>2017-04-06T16:52:43Z</time>
      </trkpt>
      <trkpt lat="49.06952" lon="1.06598">
        <ele>146.5</ele>
        <time>2017-04-06T16:52:45Z</time>
      </trkpt>
      <trkpt lat="49.06961" lon="1.06613">
        <ele>146.7</ele>
        <time>2017-04-06T16:52:48Z</time>
      </trkpt>
      <trkpt lat="49.06969" lon="1.06628">
        <ele>146.9</ele>
        <time>2017-04-06T16:52:51Z</time>
      </trkpt>
      <trkpt lat="49.06977" lon="1.06644">
        <ele>147</ele>
        <time>2017-04-06T16:52:54Z</time>
      </trkpt>
      <trkpt lat="49.06986" lon="1.0666">
        <ele>147.1</ele>
        <time>2017-04-06T16:52:57Z</time>
      </trkpt>
      <trkpt lat="49.06994" lon="1.06675">
        <ele>147.3</ele>
        <time>2017-04-06T16:53:00Z</time>
      </trkpt>
      <trkpt lat="49.07" lon="1.06686">
        <ele>147.4</ele>
        <time>2017-04-06T16:53:02Z</time>
      </trkpt>
      <trkpt lat="49.07006" lon="1.06697">
        <ele>147.5</ele>
        <time>2017-04-06T16:53:04Z</time>
      </trkpt>
      <trkpt lat="49.07011" lon="1.06708">
        <ele>147.6</ele>
        <time>2017-04-06T16:53:06Z</time>
      </trkpt>
      <trkpt lat="49.07017" lon="1.06719">
        <ele>147.6</ele>
        <time>2017-04-06T16:53:08Z</time>
      </trkpt>
      <trkpt lat="49.07025" lon="1.06735">
        <ele>147.7</ele>
        <time>2017-04-06T16:53:11Z</time>
      </trkpt>
      <trkpt lat="49.07032" lon="1.06753">
        <ele>147.8</ele>
        <time>2017-04-06T16:53:14Z</time>
      </trkpt>
      <trkpt lat="49.07036" lon="1.06766">
        <ele>147.9</ele>
        <time>2017-04-06T16:53:16Z</time>
      </trkpt>
      <trkpt lat="49.07041" lon="1.06778">
        <ele>147.9</ele>
        <time>2017-04-06T16:53:18Z</time>
      </trkpt>
      <trkpt lat="49.07045" lon="1.06791">
        <ele>148</ele>
        <time>2017-04-06T16:53:20Z</time>
      </trkpt>
      <trkpt lat="49.0705" lon="1.06804">
        <ele>148</ele>
        <time>2017-04-06T16:53:22Z</time>
      </trkpt>
      <trkpt lat="49.07056" lon="1.06817">
        <ele>148</ele>
        <time>2017-04-06T16:53:24Z</time>
      </trkpt>
      <trkpt lat="49.07061" lon="1.06831">
        <ele>148.1</ele>
        <time>2017-04-06T16:53:26Z</time>
      </trkpt>
      <trkpt lat="49.07067" lon="1.06844">
        <ele>148.1</ele>
        <time>2017-04-06T16:53:28Z</time>
      </trkpt>
      <trkpt lat="49.07072" lon="1.06858">
        <ele>148.1</ele>
        <time>2017-04-06T16:53:30Z</time>
      </trkpt>
      <trkpt lat="49.07077" lon="1.06872">
        <ele>148.2</ele>
        <time>2017-04-06T16:53:32Z</time>
      </trkpt>
      <trkpt lat="49.07082" lon="1.06886">
        <ele>148.2</ele>
        <time>2017-04-06T16:53:34Z</time>
      </trkpt>
      <trkpt lat="49.07088" lon="1.069">
        <ele>148.2</ele>
        <time>2017-04-06T16:53:36Z</time>
      </trkpt>
      <trkpt lat="49.07093" lon="1.06915">
        <ele>148.2</ele>
        <time>2017-04-06T16:53:38Z</time>
      </trkpt>
      <trkpt lat="49.07098" lon="1.06929">
        <ele>148.2</ele>
        <time>2017-04-06T16:53:40Z</time>
      </trkpt>
      <trkpt lat="49.07102" lon="1.06943">
        <ele>148.2</ele>
        <time>2017-04-06T16:53:42Z</time>
      </trkpt>
      <trkpt lat="49.07107" lon="1.0696">
        <ele>148.2</ele>
        <time>2017-04-06T16:53:45Z</time>
      </trkpt>
      <trkpt lat="49.07111" lon="1.06972">
        <ele>148.2</ele>
        <time>2017-04-06T16:53:48Z</time>
      </trkpt>
      <trkpt lat="49.07117" lon="1.0699">
        <ele>148.2</ele>
        <time>2017-04-06T16:53:51Z</time>
      </trkpt>
      <trkpt lat="49.0712" lon="1.07004">
        <ele>148.3</ele>
        <time>2017-04-06T16:53:53Z</time>
      </trkpt>
      <trkpt lat="49.07124" lon="1.07019">
        <ele>148.2</ele>
        <time>2017-04-06T16:53:55Z</time>
      </trkpt>
      <trkpt lat="49.07128" lon="1.07034">
        <ele>148.1</ele>
        <time>2017-04-06T16:53:57Z</time>
      </trkpt>
      <trkpt lat="49.07132" lon="1.07049">
        <ele>148</ele>
        <time>2017-04-06T16:53:59Z</time>
      </trkpt>
      <trkpt lat="49.07136" lon="1.07063">
        <ele>148</ele>
        <time>2017-04-06T16:54:01Z</time>
      </trkpt>
      <trkpt lat="49.0714" lon="1.07078">
        <ele>148</ele>
        <time>2017-04-06T16:54:03Z</time>
      </trkpt>
      <trkpt lat="49.07144" lon="1.07092">
        <ele>148</ele>
        <time>2017-04-06T16:54:05Z</time>
      </trkpt>
      <trkpt lat="49.07148" lon="1.07107">
        <ele>148</ele>
        <time>2017-04-06T16:54:07Z</time>
      </trkpt>
      <trkpt lat="49.07152" lon="1.07122">
        <ele>148</ele>
        <time>2017-04-06T16:54:09Z</time>
      </trkpt>
      <trkpt lat="49.07157" lon="1.07136">
        <ele>148</ele>
        <time>2017-04-06T16:54:11Z</time>
      </trkpt>
      <trkpt lat="49.07161" lon="1.07151">
        <ele>148</ele>
        <time>2017-04-06T16:54:13Z</time>
      </trkpt>
      <trkpt lat="49.07165" lon="1.07166">
        <ele>148</ele>
        <time>2017-04-06T16:54:15Z</time>
      </trkpt>
      <trkpt lat="49.07169" lon="1.07181">
        <ele>148</ele>
        <time>2017-04-06T16:54:17Z</time>
      </trkpt>
      <trkpt lat="49.07173" lon="1.07195">
        <ele>148</ele>
        <time>2017-04-06T16:54:19Z</time>
      </trkpt>
      <trkpt lat="49.07177" lon="1.07209">
        <ele>148</ele>
        <time>2017-04-06T16:54:21Z</time>
      </trkpt>
      <trkpt lat="49.07182" lon="1.07224">
        <ele>148</ele>
        <time>2017-04-06T16:54:23Z</time>
      </trkpt>
      <trkpt lat="49.07186" lon="1.07238">
        <ele>148</ele>
        <time>2017-04-06T16:54:25Z</time>
      </trkpt>
      <trkpt lat="49.0719" lon="1.07252">
        <ele>148</ele>
        <time>2017-04-06T16:54:27Z</time>
      </trkpt>
      <trkpt lat="49.07195" lon="1.07266">
        <ele>148</ele>
        <time>2017-04-06T16:54:29Z</time>
      </trkpt>
      <trkpt lat="49.07199" lon="1.07279">
        <ele>148</ele>
        <time>2017-04-06T16:54:31Z</time>
      </trkpt>
      <trkpt lat="49.07204" lon="1.07292">
        <ele>148</ele>
        <time>2017-04-06T16:54:33Z</time>
      </trkpt>
      <trkpt lat="49.07209" lon="1.07306">
        <ele>148</ele>
        <time>2017-04-06T16:54:35Z</time>
      </trkpt>
      <trkpt lat="49.07214" lon="1.07319">
        <ele>148</ele>
        <time>2017-04-06T16:54:37Z</time>
      </trkpt>
      <trkpt lat="49.0722" lon="1.07333">
        <ele>148</ele>
        <time>2017-04-06T16:54:39Z</time>
      </trkpt>
      <trkpt lat="49.07225" lon="1.07346">
        <ele>148</ele>
        <time>2017-04-06T16:54:41Z</time>
      </trkpt>
      <trkpt lat="49.0723" lon="1.07359">
        <ele>148</ele>
        <time>2017-04-06T16:54:43Z</time>
      </trkpt>
      <trkpt lat="49.07235" lon="1.07372">
        <ele>148</ele>
        <time>2017-04-06T16:54:45Z</time>
      </trkpt>
      <trkpt lat="49.07241" lon="1.07385">
        <ele>148</ele>
        <time>2017-04-06T16:54:47Z</time>
      </trkpt>
      <trkpt lat="49.07246" lon="1.07398">
        <ele>148</ele>
        <time>2017-04-06T16:54:49Z</time>
      </trkpt>
      <trkpt lat="49.07251" lon="1.07411">
        <ele>148</ele>
        <time>2017-04-06T16:54:51Z</time>
      </trkpt>
      <trkpt lat="49.07256" lon="1.07424">
        <ele>148</ele>
        <time>2017-04-06T16:54:53Z</time>
      </trkpt>
      <trkpt lat="49.07261" lon="1.07436">
        <ele>148</ele>
        <time>2017-04-06T16:54:55Z</time>
      </trkpt>
      <trkpt lat="49.07266" lon="1.07449">
        <ele>148</ele>
        <time>2017-04-06T16:54:57Z</time>
      </trkpt>
      <trkpt lat="49.07271" lon="1.07461">
        <ele>148</ele>
        <time>2017-04-06T16:54:59Z</time>
      </trkpt>
      <trkpt lat="49.07276" lon="1.07474">
        <ele>148</ele>
        <time>2017-04-06T16:55:01Z</time>
      </trkpt>
      <trkpt lat="49.07281" lon="1.07488">
        <ele>148</ele>
        <time>2017-04-06T16:55:03Z</time>
      </trkpt>
      <trkpt lat="49.07286" lon="1.07501">
        <ele>147.9</ele>
        <time>2017-04-06T16:55:05Z</time>
      </trkpt>
      <trkpt lat="49.07291" lon="1.07515">
        <ele>147.9</ele>
        <time>2017-04-06T16:55:07Z</time>
      </trkpt>
      <trkpt lat="49.07295" lon="1.07528">
        <ele>147.9</ele>
        <time>2017-04-06T16:55:09Z</time>
      </trkpt>
      <trkpt lat="49.073" lon="1.07542">
        <ele>148</ele>
        <time>2017-04-06T16:55:11Z</time>
      </trkpt>
      <trkpt lat="49.07305" lon="1.07556">
        <ele>148</ele>
        <time>2017-04-06T16:55:13Z</time>
      </trkpt>
      <trkpt lat="49.0731" lon="1.0757">
        <ele>148</ele>
        <time>2017-04-06T16:55:15Z</time>
      </trkpt>
      <trkpt lat="49.07314" lon="1.07585">
        <ele>148</ele>
        <time>2017-04-06T16:55:17Z</time>
      </trkpt>
      <trkpt lat="49.07317" lon="1.07599">
        <ele>148</ele>
        <time>2017-04-06T16:55:19Z</time>
      </trkpt>
      <trkpt lat="49.07319" lon="1.07615">
        <ele>148</ele>
        <time>2017-04-06T16:55:21Z</time>
      </trkpt>
      <trkpt lat="49.07321" lon="1.0763">
        <ele>148</ele>
        <time>2017-04-06T16:55:23Z</time>
      </trkpt>
      <trkpt lat="49.07323" lon="1.07647">
        <ele>148</ele>
        <time>2017-04-06T16:55:25Z</time>
      </trkpt>
      <trkpt lat="49.07323" lon="1.07663">
        <ele>148</ele>
        <time>2017-04-06T16:55:27Z</time>
      </trkpt>
      <trkpt lat="49.07323" lon="1.0768">
        <ele>148</ele>
        <time>2017-04-06T16:55:29Z</time>
      </trkpt>
      <trkpt lat="49.07323" lon="1.07696">
        <ele>148</ele>
        <time>2017-04-06T16:55:31Z</time>
      </trkpt>
      <trkpt lat="49.07323" lon="1.07711">
        <ele>148</ele>
        <time>2017-04-06T16:55:33Z</time>
      </trkpt>
      <trkpt lat="49.07324" lon="1.07727">
        <ele>148</ele>
        <time>2017-04-06T16:55:35Z</time>
      </trkpt>
      <trkpt lat="49.07325" lon="1.07743">
        <ele>148</ele>
        <time>2017-04-06T16:55:37Z</time>
      </trkpt>
      <trkpt lat="49.07326" lon="1.07759">
        <ele>148</ele>
        <time>2017-04-06T16:55:39Z</time>
      </trkpt>
      <trkpt lat="49.07327" lon="1.07774">
        <ele>148</ele>
        <time>2017-04-06T16:55:41Z</time>
      </trkpt>
      <trkpt lat="49.07328" lon="1.0779">
        <ele>148</ele>
        <time>2017-04-06T16:55:43Z</time>
      </trkpt>
      <trkpt lat="49.0733" lon="1.07805">
        <ele>148.1</ele>
        <time>2017-04-06T16:55:45Z</time>
      </trkpt>
      <trkpt lat="49.07332" lon="1.07819">
        <ele>148.1</ele>
        <time>2017-04-06T16:55:47Z</time>
      </trkpt>
      <trkpt lat="49.07335" lon="1.07834">
        <ele>148.1</ele>
        <time>2017-04-06T16:55:49Z</time>
      </trkpt>
      <trkpt lat="49.07339" lon="1.07848">
        <ele>148.1</ele>
        <time>2017-04-06T16:55:51Z</time>
      </trkpt>
      <trkpt lat="49.07343" lon="1.07862">
        <ele>148.1</ele>
        <time>2017-04-06T16:55:53Z</time>
      </trkpt>
      <trkpt lat="49.07348" lon="1.07875">
        <ele>148.2</ele>
        <time>2017-04-06T16:55:55Z</time>
      </trkpt>
      <trkpt lat="49.07353" lon="1.07887">
        <ele>148.3</ele>
        <time>2017-04-06T16:55:57Z</time>
      </trkpt>
      <trkpt lat="49.07359" lon="1.079">
        <ele>148.3</ele>
        <time>2017-04-06T16:55:59Z</time>
      </trkpt>
      <trkpt lat="49.07365" lon="1.07912">
        <ele>148.4</ele>
        <time>2017-04-06T16:56:01Z</time>
      </trkpt>
      <trkpt lat="49.07371" lon="1.07925">
        <ele>148.5</ele>
        <time>2017-04-06T16:56:03Z</time>
      </trkpt>
      <trkpt lat="49.07377" lon="1.07937">
        <ele>148.5</ele>
        <time>2017-04-06T16:56:05Z</time>
      </trkpt>
      <trkpt lat="49.07384" lon="1.07949">
        <ele>148.6</ele>
        <time>2017-04-06T16:56:07Z</time>
      </trkpt>
      <trkpt lat="49.07391" lon="1.0796">
        <ele>148.7</ele>
        <time>2017-04-06T16:56:09Z</time>
      </trkpt>
      <trkpt lat="49.07397" lon="1.07973">
        <ele>148.7</ele>
        <time>2017-04-06T16:56:11Z</time>
      </trkpt>
      <trkpt lat="49.07404" lon="1.07985">
        <ele>148.8</ele>
        <time>2017-04-06T16:56:13Z</time>
      </trkpt>
      <trkpt lat="49.07411" lon="1.07997">
        <ele>148.8</ele>
        <time>2017-04-06T16:56:15Z</time>
      </trkpt>
      <trkpt lat="49.07418" lon="1.08009">
        <ele>148.8</ele>
        <time>2017-04-06T16:56:17Z</time>
      </trkpt>
      <trkpt lat="49.07426" lon="1.08022">
        <ele>148.9</ele>
        <time>2017-04-06T16:56:19Z</time>
      </trkpt>
      <trkpt lat="49.07433" lon="1.08035">
        <ele>148.9</ele>
        <time>2017-04-06T16:56:21Z</time>
      </trkpt>
      <trkpt lat="49.07441" lon="1.08048">
        <ele>148.9</ele>
        <time>2017-04-06T16:56:23Z</time>
      </trkpt>
      <trkpt lat="49.07449" lon="1.08061">
        <ele>148.8</ele>
        <time>2017-04-06T16:56:25Z</time>
      </trkpt>
      <trkpt lat="49.07457" lon="1.08075">
        <ele>148.8</ele>
        <time>2017-04-06T16:56:27Z</time>
      </trkpt>
      <trkpt lat="49.07464" lon="1.08089">
        <ele>148.7</ele>
        <time>2017-04-06T16:56:29Z</time>
      </trkpt>
      <trkpt lat="49.07472" lon="1.08102">
        <ele>148.7</ele>
        <time>2017-04-06T16:56:31Z</time>
      </trkpt>
      <trkpt lat="49.0748" lon="1.08115">
        <ele>148.6</ele>
        <time>2017-04-06T16:56:33Z</time>
      </trkpt>
      <trkpt lat="49.07488" lon="1.08129">
        <ele>148.5</ele>
        <time>2017-04-06T16:56:35Z</time>
      </trkpt>
      <trkpt lat="49.07496" lon="1.08143">
        <ele>148.5</ele>
        <time>2017-04-06T16:56:37Z</time>
      </trkpt>
      <trkpt lat="49.07504" lon="1.08158">
        <ele>148.3</ele>
        <time>2017-04-06T16:56:39Z</time>
      </trkpt>
      <trkpt lat="49.07512" lon="1.08171">
        <ele>148.2</ele>
        <time>2017-04-06T16:56:41Z</time>
      </trkpt>
      <trkpt lat="49.0752" lon="1.08185">
        <ele>148.1</ele>
        <time>2017-04-06T16:56:43Z</time>
      </trkpt>
      <trkpt lat="49.07528" lon="1.08199">
        <ele>147.9</ele>
        <time>2017-04-06T16:56:45Z</time>
      </trkpt>
      <trkpt lat="49.07536" lon="1.08213">
        <ele>147.8</ele>
        <time>2017-04-06T16:56:47Z</time>
      </trkpt>
      <trkpt lat="49.07544" lon="1.08227">
        <ele>147.7</ele>
        <time>2017-04-06T16:56:49Z</time>
      </trkpt>
      <trkpt lat="49.07551" lon="1.0824">
        <ele>147.6</ele>
        <time>2017-04-06T16:56:51Z</time>
      </trkpt>
      <trkpt lat="49.07559" lon="1.08254">
        <ele>147.5</ele>
        <time>2017-04-06T16:56:53Z</time>
      </trkpt>
      <trkpt lat="49.07567" lon="1.08267">
        <ele>147.3</ele>
        <time>2017-04-06T16:56:55Z</time>
      </trkpt>
      <trkpt lat="49.07576" lon="1.0828">
        <ele>147.2</ele>
        <time>2017-04-06T16:56:57Z</time>
      </trkpt>
      <trkpt lat="49.07584" lon="1.08293">
        <ele>146.9</ele>
        <time>2017-04-06T16:56:59Z</time>
      </trkpt>
      <trkpt lat="49.07593" lon="1.08306">
        <ele>146.7</ele>
        <time>2017-04-06T16:57:01Z</time>
      </trkpt>
      <trkpt lat="49.07601" lon="1.08318">
        <ele>146.6</ele>
        <time>2017-04-06T16:57:03Z</time>
      </trkpt>
      <trkpt lat="49.07609" lon="1.08331">
        <ele>146.4</ele>
        <time>2017-04-06T16:57:05Z</time>
      </trkpt>
      <trkpt lat="49.07617" lon="1.08343">
        <ele>146.3</ele>
        <time>2017-04-06T16:57:07Z</time>
      </trkpt>
      <trkpt lat="49.07625" lon="1.08355">
        <ele>146.2</ele>
        <time>2017-04-06T16:57:09Z</time>
      </trkpt>
      <trkpt lat="49.07632" lon="1.08366">
        <ele>146</ele>
        <time>2017-04-06T16:57:11Z</time>
      </trkpt>
      <trkpt lat="49.0764" lon="1.08377">
        <ele>145.9</ele>
        <time>2017-04-06T16:57:14Z</time>
      </trkpt>
      <trkpt lat="49.07647" lon="1.08389">
        <ele>145.8</ele>
        <time>2017-04-06T16:57:17Z</time>
      </trkpt>
      <trkpt lat="49.07657" lon="1.08402">
        <ele>145.7</ele>
        <time>2017-04-06T16:57:20Z</time>
      </trkpt>
      <trkpt lat="49.07663" lon="1.08412">
        <ele>145.6</ele>
        <time>2017-04-06T16:57:22Z</time>
      </trkpt>
      <trkpt lat="49.07669" lon="1.08423">
        <ele>145.6</ele>
        <time>2017-04-06T16:57:24Z</time>
      </trkpt>
      <trkpt lat="49.07676" lon="1.08434">
        <ele>145.5</ele>
        <time>2017-04-06T16:57:26Z</time>
      </trkpt>
      <trkpt lat="49.07682" lon="1.08444">
        <ele>145.4</ele>
        <time>2017-04-06T16:57:28Z</time>
      </trkpt>
      <trkpt lat="49.0769" lon="1.08458">
        <ele>145.3</ele>
        <time>2017-04-06T16:57:31Z</time>
      </trkpt>
      <trkpt lat="49.07685" lon="1.08472">
        <ele>144.9</ele>
        <time>2017-04-06T16:57:36Z</time>
      </trkpt>
      <trkpt lat="49.07676" lon="1.08484">
        <ele>144.7</ele>
        <time>2017-04-06T16:57:39Z</time>
      </trkpt>
      <trkpt lat="49.07667" lon="1.08497">
        <ele>144.6</ele>
        <time>2017-04-06T16:57:42Z</time>
      </trkpt>
      <trkpt lat="49.0767" lon="1.08516">
        <ele>144.6</ele>
        <time>2017-04-06T16:57:45Z</time>
      </trkpt>
      <trkpt lat="49.07674" lon="1.08529">
        <ele>144.5</ele>
        <time>2017-04-06T16:57:47Z</time>
      </trkpt>
      <trkpt lat="49.07678" lon="1.08542">
        <ele>144.5</ele>
        <time>2017-04-06T16:57:49Z</time>
      </trkpt>
      <trkpt lat="49.07682" lon="1.08556">
        <ele>144.5</ele>
        <time>2017-04-06T16:57:51Z</time>
      </trkpt>
      <trkpt lat="49.07686" lon="1.08569">
        <ele>144.5</ele>
        <time>2017-04-06T16:57:53Z</time>
      </trkpt>
      <trkpt lat="49.0769" lon="1.08583">
        <ele>144.5</ele>
        <time>2017-04-06T16:57:55Z</time>
      </trkpt>
      <trkpt lat="49.07694" lon="1.08597">
        <ele>144</ele>
        <time>2017-04-06T16:57:57Z</time>
      </trkpt>
      <trkpt lat="49.07703" lon="1.08624">
        <ele>144</ele>
        <time>2017-04-06T16:58:01Z</time>
      </trkpt>
      <trkpt lat="49.07707" lon="1.08645">
        <ele>144.7</ele>
        <time>2017-04-06T16:58:04Z</time>
      </trkpt>
      <trkpt lat="49.07704" lon="1.08659">
        <ele>144.8</ele>
        <time>2017-04-06T16:58:06Z</time>
      </trkpt>
      <trkpt lat="49.07698" lon="1.08671">
        <ele>144.9</ele>
        <time>2017-04-06T16:58:08Z</time>
      </trkpt>
      <trkpt lat="49.07693" lon="1.08684">
        <ele>145</ele>
        <time>2017-04-06T16:58:10Z</time>
      </trkpt>
      <trkpt lat="49.07687" lon="1.08697">
        <ele>145.2</ele>
        <time>2017-04-06T16:58:12Z</time>
      </trkpt>
      <trkpt lat="49.07681" lon="1.0871">
        <ele>145.3</ele>
        <time>2017-04-06T16:58:14Z</time>
      </trkpt>
      <trkpt lat="49.07673" lon="1.08722">
        <ele>145.4</ele>
        <time>2017-04-06T16:58:16Z</time>
      </trkpt>
      <trkpt lat="49.07668" lon="1.08734">
        <ele>145.5</ele>
        <time>2017-04-06T16:58:18Z</time>
      </trkpt>
      <trkpt lat="49.07662" lon="1.08747">
        <ele>145.6</ele>
        <time>2017-04-06T16:58:20Z</time>
      </trkpt>
      <trkpt lat="49.07656" lon="1.08759">
        <ele>145.7</ele>
        <time>2017-04-06T16:58:22Z</time>
      </trkpt>
      <trkpt lat="49.07649" lon="1.08772">
        <ele>145.7</ele>
        <time>2017-04-06T16:58:24Z</time>
      </trkpt>
      <trkpt lat="49.07642" lon="1.08784">
        <ele>145.8</ele>
        <time>2017-04-06T16:58:26Z</time>
      </trkpt>
      <trkpt lat="49.07636" lon="1.08798">
        <ele>145.9</ele>
        <time>2017-04-06T16:58:28Z</time>
      </trkpt>
      <trkpt lat="49.07629" lon="1.08811">
        <ele>145.9</ele>
        <time>2017-04-06T16:58:30Z</time>
      </trkpt>
      <trkpt lat="49.07623" lon="1.08825">
        <ele>146</ele>
        <time>2017-04-06T16:58:32Z</time>
      </trkpt>
      <trkpt lat="49.07621" lon="1.0884">
        <ele>146.1</ele>
        <time>2017-04-06T16:58:34Z</time>
      </trkpt>
      <trkpt lat="49.07626" lon="1.08853">
        <ele>146.2</ele>
        <time>2017-04-06T16:58:36Z</time>
      </trkpt>
      <trkpt lat="49.07631" lon="1.08866">
        <ele>146.4</ele>
        <time>2017-04-06T16:58:38Z</time>
      </trkpt>
      <trkpt lat="49.07636" lon="1.08878">
        <ele>146.4</ele>
        <time>2017-04-06T16:58:40Z</time>
      </trkpt>
      <trkpt lat="49.07643" lon="1.08894">
        <ele>146.6</ele>
        <time>2017-04-06T16:58:43Z</time>
      </trkpt>
      <trkpt lat="49.07646" lon="1.08908">
        <ele>146.7</ele>
        <time>2017-04-06T16:58:47Z</time>
      </trkpt>
      <trkpt lat="49.0765" lon="1.08923">
        <ele>146.8</ele>
        <time>2017-04-06T16:58:51Z</time>
      </trkpt>
      <trkpt lat="49.07655" lon="1.08936">
        <ele>146.9</ele>
        <time>2017-04-06T16:58:55Z</time>
      </trkpt>
      <trkpt lat="49.0766" lon="1.08951">
        <ele>146.9</ele>
        <time>2017-04-06T16:58:59Z</time>
      </trkpt>
      <trkpt lat="49.07664" lon="1.08964">
        <ele>147</ele>
        <time>2017-04-06T16:59:02Z</time>
      </trkpt>
      <trkpt lat="49.07669" lon="1.08976">
        <ele>147</ele>
        <time>2017-04-06T16:59:05Z</time>
      </trkpt>
      <trkpt lat="49.07674" lon="1.08991">
        <ele>147</ele>
        <time>2017-04-06T16:59:08Z</time>
      </trkpt>
      <trkpt lat="49.07679" lon="1.09005">
        <ele>147.1</ele>
        <time>2017-04-06T16:59:11Z</time>
      </trkpt>
      <trkpt lat="49.07684" lon="1.09017">
        <ele>147.1</ele>
        <time>2017-04-06T16:59:14Z</time>
      </trkpt>
      <trkpt lat="49.07688" lon="1.0903">
        <ele>147.2</ele>
        <time>2017-04-06T16:59:17Z</time>
      </trkpt>
      <trkpt lat="49.07692" lon="1.09044">
        <ele>147.3</ele>
        <time>2017-04-06T16:59:20Z</time>
      </trkpt>
      <trkpt lat="49.07698" lon="1.09059">
        <ele>147.4</ele>
        <time>2017-04-06T16:59:23Z</time>
      </trkpt>
      <trkpt lat="49.07704" lon="1.09075">
        <ele>147.5</ele>
        <time>2017-04-06T16:59:26Z</time>
      </trkpt>
      <trkpt lat="49.0771" lon="1.09092">
        <ele>147.7</ele>
        <time>2017-04-06T16:59:29Z</time>
      </trkpt>
      <trkpt lat="49.07717" lon="1.0911">
        <ele>147.9</ele>
        <time>2017-04-06T16:59:32Z</time>
      </trkpt>
      <trkpt lat="49.07721" lon="1.09122">
        <ele>148</ele>
        <time>2017-04-06T16:59:34Z</time>
      </trkpt>
      <trkpt lat="49.07727" lon="1.0914">
        <ele>148.1</ele>
        <time>2017-04-06T16:59:37Z</time>
      </trkpt>
      <trkpt lat="49.07731" lon="1.09153">
        <ele>148.2</ele>
        <time>2017-04-06T16:59:39Z</time>
      </trkpt>
      <trkpt lat="49.07735" lon="1.09166">
        <ele>148.3</ele>
        <time>2017-04-06T16:59:41Z</time>
      </trkpt>
      <trkpt lat="49.07741" lon="1.09184">
        <ele>148.3</ele>
        <time>2017-04-06T16:59:44Z</time>
      </trkpt>
      <trkpt lat="49.07747" lon="1.09201">
        <ele>148.4</ele>
        <time>2017-04-06T16:59:47Z</time>
      </trkpt>
      <trkpt lat="49.07752" lon="1.09218">
        <ele>148.5</ele>
        <time>2017-04-06T16:59:50Z</time>
      </trkpt>
      <trkpt lat="49.07758" lon="1.09236">
        <ele>148.5</ele>
        <time>2017-04-06T16:59:53Z</time>
      </trkpt>
      <trkpt lat="49.07764" lon="1.09253">
        <ele>148.6</ele>
        <time>2017-04-06T16:59:56Z</time>
      </trkpt>
      <trkpt lat="49.0777" lon="1.0927">
        <ele>148.6</ele>
        <time>2017-04-06T16:59:59Z</time>
      </trkpt>
      <trkpt lat="49.07776" lon="1.09288">
        <ele>148.6</ele>
        <time>2017-04-06T17:00:02Z</time>
      </trkpt>
      <trkpt lat="49.07782" lon="1.09306">
        <ele>148.6</ele>
        <time>2017-04-06T17:00:05Z</time>
      </trkpt>
      <trkpt lat="49.07785" lon="1.09319">
        <ele>148.6</ele>
        <time>2017-04-06T17:00:07Z</time>
      </trkpt>
      <trkpt lat="49.07789" lon="1.09332">
        <ele>148.7</ele>
        <time>2017-04-06T17:00:09Z</time>
      </trkpt>
      <trkpt lat="49.07795" lon="1.0935">
        <ele>148.7</ele>
        <time>2017-04-06T17:00:12Z</time>
      </trkpt>
      <trkpt lat="49.078" lon="1.09369">
        <ele>148.7</ele>
        <time>2017-04-06T17:00:15Z</time>
      </trkpt>
      <trkpt lat="49.07803" lon="1.09382">
        <ele>148.8</ele>
        <time>2017-04-06T17:00:17Z</time>
      </trkpt>
      <trkpt lat="49.07806" lon="1.09395">
        <ele>148.8</ele>
        <time>2017-04-06T17:00:19Z</time>
      </trkpt>
      <trkpt lat="49.07809" lon="1.09409">
        <ele>148.8</ele>
        <time>2017-04-06T17:00:21Z</time>
      </trkpt>
      <trkpt lat="49.07811" lon="1.09422">
        <ele>148.8</ele>
        <time>2017-04-06T17:00:23Z</time>
      </trkpt>
      <trkpt lat="49.07815" lon="1.09442">
        <ele>148.8</ele>
        <time>2017-04-06T17:00:26Z</time>
      </trkpt>
      <trkpt lat="49.07818" lon="1.09462">
        <ele>148.9</ele>
        <time>2017-04-06T17:00:29Z</time>
      </trkpt>
      <trkpt lat="49.0782" lon="1.09475">
        <ele>148.9</ele>
        <time>2017-04-06T17:00:31Z</time>
      </trkpt>
      <trkpt lat="49.07824" lon="1.09495">
        <ele>148.9</ele>
        <time>2017-04-06T17:00:34Z</time>
      </trkpt>
      <trkpt lat="49.07826" lon="1.09508">
        <ele>148.9</ele>
        <time>2017-04-06T17:00:36Z</time>
      </trkpt>
      <trkpt lat="49.0783" lon="1.09528">
        <ele>148.9</ele>
        <time>2017-04-06T17:00:39Z</time>
      </trkpt>
      <trkpt lat="49.07833" lon="1.09547">
        <ele>149</ele>
        <time>2017-04-06T17:00:42Z</time>
      </trkpt>
      <trkpt lat="49.07825" lon="1.09559">
        <ele>149.1</ele>
        <time>2017-04-06T17:00:45Z</time>
      </trkpt>
      <trkpt lat="49.07814" lon="1.0957">
        <ele>149.2</ele>
        <time>2017-04-06T17:00:48Z</time>
      </trkpt>
      <trkpt lat="49.07807" lon="1.09577">
        <ele>149.2</ele>
        <time>2017-04-06T17:00:50Z</time>
      </trkpt>
      <trkpt lat="49.07799" lon="1.09585">
        <ele>149.2</ele>
        <time>2017-04-06T17:00:52Z</time>
      </trkpt>
      <trkpt lat="49.07792" lon="1.09594">
        <ele>149.2</ele>
        <time>2017-04-06T17:00:54Z</time>
      </trkpt>
      <trkpt lat="49.07784" lon="1.09602">
        <ele>149.1</ele>
        <time>2017-04-06T17:00:56Z</time>
      </trkpt>
      <trkpt lat="49.07776" lon="1.0961">
        <ele>149.1</ele>
        <time>2017-04-06T17:00:58Z</time>
      </trkpt>
      <trkpt lat="49.07768" lon="1.09618">
        <ele>149</ele>
        <time>2017-04-06T17:01:00Z</time>
      </trkpt>
      <trkpt lat="49.0776" lon="1.09627">
        <ele>149</ele>
        <time>2017-04-06T17:01:02Z</time>
      </trkpt>
      <trkpt lat="49.07752" lon="1.09635">
        <ele>148.9</ele>
        <time>2017-04-06T17:01:04Z</time>
      </trkpt>
      <trkpt lat="49.07744" lon="1.09644">
        <ele>148.9</ele>
        <time>2017-04-06T17:01:06Z</time>
      </trkpt>
      <trkpt lat="49.07735" lon="1.09654">
        <ele>148.8</ele>
        <time>2017-04-06T17:01:08Z</time>
      </trkpt>
      <trkpt lat="49.07727" lon="1.09663">
        <ele>148.8</ele>
        <time>2017-04-06T17:01:10Z</time>
      </trkpt>
      <trkpt lat="49.07718" lon="1.09672">
        <ele>148.8</ele>
        <time>2017-04-06T17:01:12Z</time>
      </trkpt>
      <trkpt lat="49.07709" lon="1.09681">
        <ele>148.7</ele>
        <time>2017-04-06T17:01:14Z</time>
      </trkpt>
      <trkpt lat="49.077" lon="1.09691">
        <ele>148.6</ele>
        <time>2017-04-06T17:01:16Z</time>
      </trkpt>
      <trkpt lat="49.07692" lon="1.097">
        <ele>148.5</ele>
        <time>2017-04-06T17:01:18Z</time>
      </trkpt>
      <trkpt lat="49.07683" lon="1.09709">
        <ele>148.5</ele>
        <time>2017-04-06T17:01:20Z</time>
      </trkpt>
      <trkpt lat="49.07675" lon="1.09718">
        <ele>148.4</ele>
        <time>2017-04-06T17:01:22Z</time>
      </trkpt>
      <trkpt lat="49.07666" lon="1.09727">
        <ele>148.4</ele>
        <time>2017-04-06T17:01:24Z</time>
      </trkpt>
      <trkpt lat="49.07657" lon="1.09736">
        <ele>148.3</ele>
        <time>2017-04-06T17:01:26Z</time>
      </trkpt>
      <trkpt lat="49.07649" lon="1.09745">
        <ele>148.3</ele>
        <time>2017-04-06T17:01:28Z</time>
      </trkpt>
      <trkpt lat="49.0764" lon="1.09754">
        <ele>148.3</ele>
        <time>2017-04-06T17:01:30Z</time>
      </trkpt>
      <trkpt lat="49.07632" lon="1.09763">
        <ele>148.2</ele>
        <time>2017-04-06T17:01:32Z</time>
      </trkpt>
      <trkpt lat="49.07623" lon="1.09772">
        <ele>148.1</ele>
        <time>2017-04-06T17:01:34Z</time>
      </trkpt>
      <trkpt lat="49.07614" lon="1.09781">
        <ele>148</ele>
        <time>2017-04-06T17:01:36Z</time>
      </trkpt>
      <trkpt lat="49.07606" lon="1.0979">
        <ele>147.9</ele>
        <time>2017-04-06T17:01:38Z</time>
      </trkpt>
      <trkpt lat="49.07597" lon="1.09799">
        <ele>147.8</ele>
        <time>2017-04-06T17:01:40Z</time>
      </trkpt>
      <trkpt lat="49.07589" lon="1.09808">
        <ele>147.6</ele>
        <time>2017-04-06T17:01:42Z</time>
      </trkpt>
      <trkpt lat="49.0758" lon="1.09815">
        <ele>147.6</ele>
        <time>2017-04-06T17:01:44Z</time>
      </trkpt>
      <trkpt lat="49.07571" lon="1.09823">
        <ele>147.5</ele>
        <time>2017-04-06T17:01:46Z</time>
      </trkpt>
      <trkpt lat="49.07562" lon="1.09831">
        <ele>147.3</ele>
        <time>2017-04-06T17:01:48Z</time>
      </trkpt>
      <trkpt lat="49.07553" lon="1.09839">
        <ele>147.2</ele>
        <time>2017-04-06T17:01:50Z</time>
      </trkpt>
      <trkpt lat="49.07545" lon="1.09848">
        <ele>147.1</ele>
        <time>2017-04-06T17:01:52Z</time>
      </trkpt>
      <trkpt lat="49.07536" lon="1.09856">
        <ele>147</ele>
        <time>2017-04-06T17:01:54Z</time>
      </trkpt>
      <trkpt lat="49.07528" lon="1.09865">
        <ele>147</ele>
        <time>2017-04-06T17:01:56Z</time>
      </trkpt>
      <trkpt lat="49.0752" lon="1.09874">
        <ele>147</ele>
        <time>2017-04-06T17:01:58Z</time>
      </trkpt>
      <trkpt lat="49.07512" lon="1.09884">
        <ele>147</ele>
        <time>2017-04-06T17:02:00Z</time>
      </trkpt>
      <trkpt lat="49.07505" lon="1.09895">
        <ele>147</ele>
        <time>2017-04-06T17:02:02Z</time>
      </trkpt>
      <trkpt lat="49.07498" lon="1.09906">
        <ele>147</ele>
        <time>2017-04-06T17:02:04Z</time>
      </trkpt>
      <trkpt lat="49.07491" lon="1.09917">
        <ele>147</ele>
        <time>2017-04-06T17:02:06Z</time>
      </trkpt>
      <trkpt lat="49.07485" lon="1.09928">
        <ele>147.1</ele>
        <time>2017-04-06T17:02:08Z</time>
      </trkpt>
      <trkpt lat="49.07479" lon="1.09939">
        <ele>147.1</ele>
        <time>2017-04-06T17:02:10Z</time>
      </trkpt>
      <trkpt lat="49.07473" lon="1.0995">
        <ele>147.1</ele>
        <time>2017-04-06T17:02:12Z</time>
      </trkpt>
      <trkpt lat="49.07465" lon="1.09967">
        <ele>147</ele>
        <time>2017-04-06T17:02:15Z</time>
      </trkpt>
      <trkpt lat="49.07457" lon="1.09982">
        <ele>147</ele>
        <time>2017-04-06T17:02:18Z</time>
      </trkpt>
      <trkpt lat="49.07447" lon="1.09996">
        <ele>147</ele>
        <time>2017-04-06T17:02:21Z</time>
      </trkpt>
      <trkpt lat="49.0744" lon="1.10007">
        <ele>147.1</ele>
        <time>2017-04-06T17:02:23Z</time>
      </trkpt>
      <trkpt lat="49.07434" lon="1.10019">
        <ele>147.1</ele>
        <time>2017-04-06T17:02:25Z</time>
      </trkpt>
      <trkpt lat="49.07427" lon="1.10031">
        <ele>147.1</ele>
        <time>2017-04-06T17:02:27Z</time>
      </trkpt>
      <trkpt lat="49.0742" lon="1.10044">
        <ele>147.1</ele>
        <time>2017-04-06T17:02:29Z</time>
      </trkpt>
      <trkpt lat="49.07413" lon="1.10056">
        <ele>147.1</ele>
        <time>2017-04-06T17:02:31Z</time>
      </trkpt>
      <trkpt lat="49.07406" lon="1.10069">
        <ele>147.1</ele>
        <time>2017-04-06T17:02:33Z</time>
      </trkpt>
      <trkpt lat="49.07398" lon="1.10081">
        <ele>147.2</ele>
        <time>2017-04-06T17:02:35Z</time>
      </trkpt>
      <trkpt lat="49.07391" lon="1.10094">
        <ele>147.3</ele>
        <time>2017-04-06T17:02:37Z</time>
      </trkpt>
      <trkpt lat="49.07384" lon="1.10106">
        <ele>147.3</ele>
        <time>2017-04-06T17:02:39Z</time>
      </trkpt>
      <trkpt lat="49.07377" lon="1.10118">
        <ele>147.4</ele>
        <time>2017-04-06T17:02:41Z</time>
      </trkpt>
      <trkpt lat="49.07371" lon="1.1013">
        <ele>147.4</ele>
        <time>2017-04-06T17:02:43Z</time>
      </trkpt>
      <trkpt lat="49.07363" lon="1.10144">
        <ele>147.5</ele>
        <time>2017-04-06T17:02:46Z</time>
      </trkpt>
      <trkpt lat="49.07356" lon="1.10154">
        <ele>147.6</ele>
        <time>2017-04-06T17:03:24Z</time>
      </trkpt>
      <trkpt lat="49.0735" lon="1.10166">
        <ele>147.6</ele>
        <time>2017-04-06T17:03:27Z</time>
      </trkpt>
      <trkpt lat="49.07342" lon="1.1018">
        <ele>147.6</ele>
        <time>2017-04-06T17:03:30Z</time>
      </trkpt>
      <trkpt lat="49.07336" lon="1.10191">
        <ele>147.7</ele>
        <time>2017-04-06T17:03:32Z</time>
      </trkpt>
      <trkpt lat="49.0733" lon="1.10203">
        <ele>147.7</ele>
        <time>2017-04-06T17:03:34Z</time>
      </trkpt>
      <trkpt lat="49.07324" lon="1.10214">
        <ele>147.8</ele>
        <time>2017-04-06T17:03:36Z</time>
      </trkpt>
      <trkpt lat="49.07317" lon="1.10225">
        <ele>147.8</ele>
        <time>2017-04-06T17:03:38Z</time>
      </trkpt>
      <trkpt lat="49.0731" lon="1.10238">
        <ele>147.9</ele>
        <time>2017-04-06T17:03:40Z</time>
      </trkpt>
      <trkpt lat="49.07304" lon="1.10251">
        <ele>147.9</ele>
        <time>2017-04-06T17:03:42Z</time>
      </trkpt>
      <trkpt lat="49.07296" lon="1.10264">
        <ele>147.9</ele>
        <time>2017-04-06T17:03:44Z</time>
      </trkpt>
      <trkpt lat="49.07289" lon="1.10277">
        <ele>147.9</ele>
        <time>2017-04-06T17:03:46Z</time>
      </trkpt>
      <trkpt lat="49.07282" lon="1.1029">
        <ele>148</ele>
        <time>2017-04-06T17:03:48Z</time>
      </trkpt>
      <trkpt lat="49.07275" lon="1.10303">
        <ele>148</ele>
        <time>2017-04-06T17:03:50Z</time>
      </trkpt>
      <trkpt lat="49.07268" lon="1.10317">
        <ele>148</ele>
        <time>2017-04-06T17:03:52Z</time>
      </trkpt>
      <trkpt lat="49.0726" lon="1.1033">
        <ele>148</ele>
        <time>2017-04-06T17:03:54Z</time>
      </trkpt>
      <trkpt lat="49.07253" lon="1.10344">
        <ele>147.9</ele>
        <time>2017-04-06T17:03:56Z</time>
      </trkpt>
      <trkpt lat="49.07245" lon="1.10358">
        <ele>147.9</ele>
        <time>2017-04-06T17:03:58Z</time>
      </trkpt>
      <trkpt lat="49.07238" lon="1.10372">
        <ele>147.9</ele>
        <time>2017-04-06T17:04:00Z</time>
      </trkpt>
      <trkpt lat="49.0723" lon="1.10386">
        <ele>147.8</ele>
        <time>2017-04-06T17:04:02Z</time>
      </trkpt>
      <trkpt lat="49.07223" lon="1.104">
        <ele>147.7</ele>
        <time>2017-04-06T17:04:04Z</time>
      </trkpt>
      <trkpt lat="49.07215" lon="1.10413">
        <ele>147.6</ele>
        <time>2017-04-06T17:04:06Z</time>
      </trkpt>
      <trkpt lat="49.07208" lon="1.10427">
        <ele>147.5</ele>
        <time>2017-04-06T17:04:08Z</time>
      </trkpt>
      <trkpt lat="49.072" lon="1.1044">
        <ele>147.4</ele>
        <time>2017-04-06T17:04:10Z</time>
      </trkpt>
      <trkpt lat="49.07193" lon="1.10454">
        <ele>147.3</ele>
        <time>2017-04-06T17:04:12Z</time>
      </trkpt>
      <trkpt lat="49.07185" lon="1.10468">
        <ele>147.1</ele>
        <time>2017-04-06T17:04:14Z</time>
      </trkpt>
      <trkpt lat="49.07177" lon="1.1048">
        <ele>147</ele>
        <time>2017-04-06T17:04:16Z</time>
      </trkpt>
      <trkpt lat="49.07168" lon="1.10491">
        <ele>146.9</ele>
        <time>2017-04-06T17:04:18Z</time>
      </trkpt>
      <trkpt lat="49.0716" lon="1.10504">
        <ele>146.8</ele>
        <time>2017-04-06T17:04:20Z</time>
      </trkpt>
      <trkpt lat="49.07152" lon="1.10518">
        <ele>146.6</ele>
        <time>2017-04-06T17:04:22Z</time>
      </trkpt>
      <trkpt lat="49.07146" lon="1.10531">
        <ele>146.5</ele>
        <time>2017-04-06T17:04:24Z</time>
      </trkpt>
      <trkpt lat="49.07138" lon="1.10545">
        <ele>146.3</ele>
        <time>2017-04-06T17:04:26Z</time>
      </trkpt>
      <trkpt lat="49.07131" lon="1.10559">
        <ele>146.2</ele>
        <time>2017-04-06T17:04:28Z</time>
      </trkpt>
      <trkpt lat="49.07123" lon="1.10572">
        <ele>146.1</ele>
        <time>2017-04-06T17:04:30Z</time>
      </trkpt>
      <trkpt lat="49.07116" lon="1.10586">
        <ele>146</ele>
        <time>2017-04-06T17:04:32Z</time>
      </trkpt>
      <trkpt lat="49.07108" lon="1.106">
        <ele>145.9</ele>
        <time>2017-04-06T17:04:34Z</time>
      </trkpt>
      <trkpt lat="49.071" lon="1.10615">
        <ele>145.7</ele>
        <time>2017-04-06T17:04:36Z</time>
      </trkpt>
      <trkpt lat="49.07092" lon="1.10629">
        <ele>145.6</ele>
        <time>2017-04-06T17:04:38Z</time>
      </trkpt>
      <trkpt lat="49.07084" lon="1.10643">
        <ele>145.3</ele>
        <time>2017-04-06T17:04:40Z</time>
      </trkpt>
      <trkpt lat="49.07077" lon="1.10659">
        <ele>145.1</ele>
        <time>2017-04-06T17:04:42Z</time>
      </trkpt>
      <trkpt lat="49.07069" lon="1.10674">
        <ele>144.8</ele>
        <time>2017-04-06T17:04:44Z</time>
      </trkpt>
      <trkpt lat="49.07062" lon="1.10688">
        <ele>144.4</ele>
        <time>2017-04-06T17:04:46Z</time>
      </trkpt>
      <trkpt lat="49.07055" lon="1.10702">
        <ele>144.1</ele>
        <time>2017-04-06T17:04:48Z</time>
      </trkpt>
      <trkpt lat="49.07048" lon="1.10714">
        <ele>143.8</ele>
        <time>2017-04-06T17:04:50Z</time>
      </trkpt>
      <trkpt lat="49.07042" lon="1.10725">
        <ele>143.7</ele>
        <time>2017-04-06T17:04:52Z</time>
      </trkpt>
      <trkpt lat="49.07036" lon="1.10736">
        <ele>143.6</ele>
        <time>2017-04-06T17:04:54Z</time>
      </trkpt>
      <trkpt lat="49.0703" lon="1.10748">
        <ele>143.6</ele>
        <time>2017-04-06T17:04:56Z</time>
      </trkpt>
      <trkpt lat="49.07025" lon="1.10761">
        <ele>143.7</ele>
        <time>2017-04-06T17:04:58Z</time>
      </trkpt>
      <trkpt lat="49.07021" lon="1.10774">
        <ele>143.8</ele>
        <time>2017-04-06T17:05:00Z</time>
      </trkpt>
      <trkpt lat="49.07016" lon="1.10786">
        <ele>143.9</ele>
        <time>2017-04-06T17:05:02Z</time>
      </trkpt>
      <trkpt lat="49.07011" lon="1.10798">
        <ele>144</ele>
        <time>2017-04-06T17:05:04Z</time>
      </trkpt>
      <trkpt lat="49.07006" lon="1.1081">
        <ele>144.1</ele>
        <time>2017-04-06T17:05:06Z</time>
      </trkpt>
      <trkpt lat="49.07001" lon="1.10823">
        <ele>144.2</ele>
        <time>2017-04-06T17:05:08Z</time>
      </trkpt>
      <trkpt lat="49.06996" lon="1.10835">
        <ele>144.3</ele>
        <time>2017-04-06T17:05:10Z</time>
      </trkpt>
      <trkpt lat="49.0699" lon="1.10847">
        <ele>144.5</ele>
        <time>2017-04-06T17:05:12Z</time>
      </trkpt>
      <trkpt lat="49.06985" lon="1.1086">
        <ele>144.7</ele>
        <time>2017-04-06T17:05:14Z</time>
      </trkpt>
      <trkpt lat="49.0698" lon="1.10873">
        <ele>144.9</ele>
        <time>2017-04-06T17:05:16Z</time>
      </trkpt>
      <trkpt lat="49.06975" lon="1.10886">
        <ele>145.1</ele>
        <time>2017-04-06T17:05:18Z</time>
      </trkpt>
      <trkpt lat="49.06969" lon="1.10898">
        <ele>145.2</ele>
        <time>2017-04-06T17:05:20Z</time>
      </trkpt>
      <trkpt lat="49.06963" lon="1.10911">
        <ele>145.4</ele>
        <time>2017-04-06T17:05:22Z</time>
      </trkpt>
      <trkpt lat="49.06956" lon="1.10919">
        <ele>145.5</ele>
        <time>2017-04-06T17:05:24Z</time>
      </trkpt>
      <trkpt lat="49.06943" lon="1.10923">
        <ele>145.7</ele>
        <time>2017-04-06T17:05:27Z</time>
      </trkpt>
      <trkpt lat="49.06934" lon="1.10925">
        <ele>145.8</ele>
        <time>2017-04-06T17:05:30Z</time>
      </trkpt>
      <trkpt lat="49.06926" lon="1.10916">
        <ele>146</ele>
        <time>2017-04-06T17:05:36Z</time>
      </trkpt>
      <trkpt lat="49.06927" lon="1.10897">
        <ele>146.2</ele>
        <time>2017-04-06T17:05:39Z</time>
      </trkpt>
      <trkpt lat="49.06927" lon="1.10883">
        <ele>146.2</ele>
        <time>2017-04-06T17:05:41Z</time>
      </trkpt>
      <trkpt lat="49.06927" lon="1.10868">
        <ele>146.3</ele>
        <time>2017-04-06T17:05:43Z</time>
      </trkpt>
      <trkpt lat="49.06928" lon="1.10853">
        <ele>146.4</ele>
        <time>2017-04-06T17:05:45Z</time>
      </trkpt>
      <trkpt lat="49.06928" lon="1.10838">
        <ele>146.4</ele>
        <time>2017-04-06T17:05:47Z</time>
      </trkpt>
      <trkpt lat="49.06929" lon="1.10821">
        <ele>146.5</ele>
        <time>2017-04-06T17:05:49Z</time>
      </trkpt>
      <trkpt lat="49.06929" lon="1.10804">
        <ele>146.5</ele>
        <time>2017-04-06T17:05:51Z</time>
      </trkpt>
      <trkpt lat="49.06926" lon="1.10789">
        <ele>146.4</ele>
        <time>2017-04-06T17:05:53Z</time>
      </trkpt>
      <trkpt lat="49.06921" lon="1.10773">
        <ele>146.3</ele>
        <time>2017-04-06T17:05:55Z</time>
      </trkpt>
      <trkpt lat="49.06916" lon="1.10758">
        <ele>146.3</ele>
        <time>2017-04-06T17:05:57Z</time>
      </trkpt>
      <trkpt lat="49.06914" lon="1.10741">
        <ele>146.2</ele>
        <time>2017-04-06T17:05:59Z</time>
      </trkpt>
      <trkpt lat="49.06913" lon="1.10724">
        <ele>146.2</ele>
        <time>2017-04-06T17:06:01Z</time>
      </trkpt>
      <trkpt lat="49.06911" lon="1.10707">
        <ele>146.2</ele>
        <time>2017-04-06T17:06:03Z</time>
      </trkpt>
      <trkpt lat="49.0691" lon="1.1069">
        <ele>146.1</ele>
        <time>2017-04-06T17:06:05Z</time>
      </trkpt>
      <trkpt lat="49.06908" lon="1.10673">
        <ele>146.1</ele>
        <time>2017-04-06T17:06:07Z</time>
      </trkpt>
      <trkpt lat="49.06907" lon="1.10657">
        <ele>146.1</ele>
        <time>2017-04-06T17:06:09Z</time>
      </trkpt>
      <trkpt lat="49.06905" lon="1.10641">
        <ele>146.1</ele>
        <time>2017-04-06T17:06:11Z</time>
      </trkpt>
      <trkpt lat="49.06903" lon="1.10624">
        <ele>146</ele>
        <time>2017-04-06T17:06:13Z</time>
      </trkpt>
      <trkpt lat="49.069" lon="1.10607">
        <ele>145.9</ele>
        <time>2017-04-06T17:06:15Z</time>
      </trkpt>
      <trkpt lat="49.06897" lon="1.1059">
        <ele>145.9</ele>
        <time>2017-04-06T17:06:17Z</time>
      </trkpt>
      <trkpt lat="49.06893" lon="1.10571">
        <ele>145.8</ele>
        <time>2017-04-06T17:06:19Z</time>
      </trkpt>
      <trkpt lat="49.06889" lon="1.10553">
        <ele>145.8</ele>
        <time>2017-04-06T17:06:21Z</time>
      </trkpt>
      <trkpt lat="49.06886" lon="1.10535">
        <ele>145.6</ele>
        <time>2017-04-06T17:06:23Z</time>
      </trkpt>
      <trkpt lat="49.06881" lon="1.10517">
        <ele>145.5</ele>
        <time>2017-04-06T17:06:25Z</time>
      </trkpt>
      <trkpt lat="49.06877" lon="1.10498">
        <ele>145.4</ele>
        <time>2017-04-06T17:06:27Z</time>
      </trkpt>
      <trkpt lat="49.06873" lon="1.1048">
        <ele>145.3</ele>
        <time>2017-04-06T17:06:29Z</time>
      </trkpt>
      <trkpt lat="49.06869" lon="1.10462">
        <ele>145.2</ele>
        <time>2017-04-06T17:06:31Z</time>
      </trkpt>
      <trkpt lat="49.06865" lon="1.10446">
        <ele>145</ele>
        <time>2017-04-06T17:06:33Z</time>
      </trkpt>
      <trkpt lat="49.06862" lon="1.1043">
        <ele>144.9</ele>
        <time>2017-04-06T17:06:35Z</time>
      </trkpt>
      <trkpt lat="49.06859" lon="1.10414">
        <ele>144.8</ele>
        <time>2017-04-06T17:06:37Z</time>
      </trkpt>
      <trkpt lat="49.06856" lon="1.10398">
        <ele>144.7</ele>
        <time>2017-04-06T17:06:39Z</time>
      </trkpt>
      <trkpt lat="49.06853" lon="1.10382">
        <ele>144.6</ele>
        <time>2017-04-06T17:06:41Z</time>
      </trkpt>
      <trkpt lat="49.0685" lon="1.10366">
        <ele>144.6</ele>
        <time>2017-04-06T17:06:43Z</time>
      </trkpt>
      <trkpt lat="49.06847" lon="1.1035">
        <ele>144.5</ele>
        <time>2017-04-06T17:06:45Z</time>
      </trkpt>
      <trkpt lat="49.06844" lon="1.10334">
        <ele>144.5</ele>
        <time>2017-04-06T17:06:47Z</time>
      </trkpt>
      <trkpt lat="49.06841" lon="1.10317">
        <ele>144.5</ele>
        <time>2017-04-06T17:06:49Z</time>
      </trkpt>
      <trkpt lat="49.06838" lon="1.103">
        <ele>144.5</ele>
        <time>2017-04-06T17:06:51Z</time>
      </trkpt>
      <trkpt lat="49.06836" lon="1.10284">
        <ele>144.5</ele>
        <time>2017-04-06T17:06:53Z</time>
      </trkpt>
      <trkpt lat="49.06832" lon="1.1027">
        <ele>144.5</ele>
        <time>2017-04-06T17:06:55Z</time>
      </trkpt>
      <trkpt lat="49.0682" lon="1.1027">
        <ele>144.5</ele>
        <time>2017-04-06T17:06:58Z</time>
      </trkpt>
      <trkpt lat="49.06813" lon="1.10278">
        <ele>144.5</ele>
        <time>2017-04-06T17:07:00Z</time>
      </trkpt>
      <trkpt lat="49.06804" lon="1.10286">
        <ele>144.5</ele>
        <time>2017-04-06T17:07:02Z</time>
      </trkpt>
      <trkpt lat="49.06796" lon="1.10293">
        <ele>144.5</ele>
        <time>2017-04-06T17:07:04Z</time>
      </trkpt>
      <trkpt lat="49.06787" lon="1.10302">
        <ele>144.5</ele>
        <time>2017-04-06T17:07:06Z</time>
      </trkpt>
      <trkpt lat="49.06778" lon="1.1031">
        <ele>144.5</ele>
        <time>2017-04-06T17:07:08Z</time>
      </trkpt>
      <trkpt lat="49.06769" lon="1.10319">
        <ele>144.5</ele>
        <time>2017-04-06T17:07:10Z</time>
      </trkpt>
      <trkpt lat="49.0676" lon="1.10328">
        <ele>144.5</ele>
        <time>2017-04-06T17:07:12Z</time>
      </trkpt>
      <trkpt lat="49.0675" lon="1.10337">
        <ele>144.5</ele>
        <time>2017-04-06T17:07:14Z</time>
      </trkpt>
      <trkpt lat="49.06741" lon="1.10347">
        <ele>144.5</ele>
        <time>2017-04-06T17:07:16Z</time>
      </trkpt>
      <trkpt lat="49.06731" lon="1.10356">
        <ele>144.6</ele>
        <time>2017-04-06T17:07:18Z</time>
      </trkpt>
      <trkpt lat="49.06722" lon="1.10366">
        <ele>144.6</ele>
        <time>2017-04-06T17:07:20Z</time>
      </trkpt>
      <trkpt lat="49.06712" lon="1.10375">
        <ele>144.7</ele>
        <time>2017-04-06T17:07:22Z</time>
      </trkpt>
      <trkpt lat="49.06703" lon="1.10385">
        <ele>144.7</ele>
        <time>2017-04-06T17:07:24Z</time>
      </trkpt>
      <trkpt lat="49.06693" lon="1.10395">
        <ele>144.8</ele>
        <time>2017-04-06T17:07:26Z</time>
      </trkpt>
      <trkpt lat="49.06683" lon="1.10404">
        <ele>144.8</ele>
        <time>2017-04-06T17:07:28Z</time>
      </trkpt>
      <trkpt lat="49.06674" lon="1.10414">
        <ele>144.8</ele>
        <time>2017-04-06T17:07:30Z</time>
      </trkpt>
      <trkpt lat="49.06665" lon="1.10423">
        <ele>144.9</ele>
        <time>2017-04-06T17:07:32Z</time>
      </trkpt>
      <trkpt lat="49.06655" lon="1.10433">
        <ele>144.9</ele>
        <time>2017-04-06T17:07:34Z</time>
      </trkpt>
      <trkpt lat="49.06645" lon="1.10443">
        <ele>144.9</ele>
        <time>2017-04-06T17:07:36Z</time>
      </trkpt>
      <trkpt lat="49.06636" lon="1.10453">
        <ele>144.9</ele>
        <time>2017-04-06T17:07:38Z</time>
      </trkpt>
      <trkpt lat="49.06626" lon="1.10462">
        <ele>144.9</ele>
        <time>2017-04-06T17:07:40Z</time>
      </trkpt>
      <trkpt lat="49.06616" lon="1.10472">
        <ele>144.9</ele>
        <time>2017-04-06T17:07:42Z</time>
      </trkpt>
      <trkpt lat="49.06606" lon="1.10482">
        <ele>145</ele>
        <time>2017-04-06T17:07:44Z</time>
      </trkpt>
      <trkpt lat="49.06597" lon="1.10491">
        <ele>145</ele>
        <time>2017-04-06T17:07:46Z</time>
      </trkpt>
      <trkpt lat="49.06587" lon="1.10501">
        <ele>145</ele>
        <time>2017-04-06T17:07:48Z</time>
      </trkpt>
      <trkpt lat="49.06577" lon="1.10511">
        <ele>145</ele>
        <time>2017-04-06T17:07:50Z</time>
      </trkpt>
      <trkpt lat="49.06567" lon="1.10521">
        <ele>145</ele>
        <time>2017-04-06T17:07:52Z</time>
      </trkpt>
      <trkpt lat="49.06558" lon="1.10531">
        <ele>145</ele>
        <time>2017-04-06T17:07:54Z</time>
      </trkpt>
      <trkpt lat="49.06548" lon="1.10542">
        <ele>145</ele>
        <time>2017-04-06T17:07:56Z</time>
      </trkpt>
      <trkpt lat="49.06538" lon="1.10552">
        <ele>145</ele>
        <time>2017-04-06T17:07:58Z</time>
      </trkpt>
      <trkpt lat="49.06528" lon="1.10562">
        <ele>145</ele>
        <time>2017-04-06T17:08:00Z</time>
      </trkpt>
      <trkpt lat="49.06518" lon="1.10572">
        <ele>145</ele>
        <time>2017-04-06T17:08:02Z</time>
      </trkpt>
      <trkpt lat="49.06509" lon="1.10583">
        <ele>145</ele>
        <time>2017-04-06T17:08:04Z</time>
      </trkpt>
      <trkpt lat="49.06499" lon="1.10593">
        <ele>145</ele>
        <time>2017-04-06T17:08:06Z</time>
      </trkpt>
      <trkpt lat="49.06489" lon="1.10603">
        <ele>145</ele>
        <time>2017-04-06T17:08:08Z</time>
      </trkpt>
      <trkpt lat="49.0648" lon="1.10613">
        <ele>145.1</ele>
        <time>2017-04-06T17:08:10Z</time>
      </trkpt>
      <trkpt lat="49.0647" lon="1.10623">
        <ele>145.2</ele>
        <time>2017-04-06T17:08:12Z</time>
      </trkpt>
      <trkpt lat="49.0646" lon="1.10634">
        <ele>145.2</ele>
        <time>2017-04-06T17:08:14Z</time>
      </trkpt>
      <trkpt lat="49.06451" lon="1.10644">
        <ele>145.2</ele>
        <time>2017-04-06T17:08:16Z</time>
      </trkpt>
      <trkpt lat="49.06441" lon="1.10654">
        <ele>145.3</ele>
        <time>2017-04-06T17:08:18Z</time>
      </trkpt>
      <trkpt lat="49.06431" lon="1.10664">
        <ele>145.3</ele>
        <time>2017-04-06T17:08:20Z</time>
      </trkpt>
      <trkpt lat="49.06421" lon="1.10675">
        <ele>145.3</ele>
        <time>2017-04-06T17:08:22Z</time>
      </trkpt>
      <trkpt lat="49.06411" lon="1.10685">
        <ele>145.3</ele>
        <time>2017-04-06T17:08:24Z</time>
      </trkpt>
      <trkpt lat="49.06401" lon="1.10695">
        <ele>145.3</ele>
        <time>2017-04-06T17:08:26Z</time>
      </trkpt>
      <trkpt lat="49.06391" lon="1.10705">
        <ele>145.3</ele>
        <time>2017-04-06T17:08:28Z</time>
      </trkpt>
      <trkpt lat="49.06381" lon="1.10715">
        <ele>145.3</ele>
        <time>2017-04-06T17:08:30Z</time>
      </trkpt>
      <trkpt lat="49.06372" lon="1.10724">
        <ele>145.3</ele>
        <time>2017-04-06T17:08:32Z</time>
      </trkpt>
      <trkpt lat="49.06363" lon="1.10734">
        <ele>145.3</ele>
        <time>2017-04-06T17:08:34Z</time>
      </trkpt>
      <trkpt lat="49.06354" lon="1.10744">
        <ele>145.4</ele>
        <time>2017-04-06T17:08:36Z</time>
      </trkpt>
      <trkpt lat="49.06345" lon="1.10753">
        <ele>145.5</ele>
        <time>2017-04-06T17:08:38Z</time>
      </trkpt>
      <trkpt lat="49.06335" lon="1.10761">
        <ele>145.5</ele>
        <time>2017-04-06T17:08:40Z</time>
      </trkpt>
      <trkpt lat="49.06326" lon="1.10769">
        <ele>145.6</ele>
        <time>2017-04-06T17:08:42Z</time>
      </trkpt>
      <trkpt lat="49.06316" lon="1.10777">
        <ele>145.7</ele>
        <time>2017-04-06T17:08:44Z</time>
      </trkpt>
      <trkpt lat="49.06307" lon="1.10785">
        <ele>145.8</ele>
        <time>2017-04-06T17:08:46Z</time>
      </trkpt>
      <trkpt lat="49.06297" lon="1.10792">
        <ele>145.8</ele>
        <time>2017-04-06T17:08:48Z</time>
      </trkpt>
      <trkpt lat="49.06287" lon="1.108">
        <ele>145.9</ele>
        <time>2017-04-06T17:08:50Z</time>
      </trkpt>
      <trkpt lat="49.06278" lon="1.10807">
        <ele>146</ele>
        <time>2017-04-06T17:08:52Z</time>
      </trkpt>
      <trkpt lat="49.06269" lon="1.10815">
        <ele>146.1</ele>
        <time>2017-04-06T17:08:54Z</time>
      </trkpt>
      <trkpt lat="49.06259" lon="1.10822">
        <ele>146.1</ele>
        <time>2017-04-06T17:08:56Z</time>
      </trkpt>
      <trkpt lat="49.0625" lon="1.10829">
        <ele>146.2</ele>
        <time>2017-04-06T17:08:58Z</time>
      </trkpt>
      <trkpt lat="49.06241" lon="1.10837">
        <ele>146.2</ele>
        <time>2017-04-06T17:09:00Z</time>
      </trkpt>
      <trkpt lat="49.06231" lon="1.10844">
        <ele>146.3</ele>
        <time>2017-04-06T17:09:02Z</time>
      </trkpt>
      <trkpt lat="49.06222" lon="1.10852">
        <ele>146.3</ele>
        <time>2017-04-06T17:09:04Z</time>
      </trkpt>
      <trkpt lat="49.06212" lon="1.10859">
        <ele>146.4</ele>
        <time>2017-04-06T17:09:06Z</time>
      </trkpt>
      <trkpt lat="49.06203" lon="1.10866">
        <ele>146.4</ele>
        <time>2017-04-06T17:09:08Z</time>
      </trkpt>
      <trkpt lat="49.06193" lon="1.10873">
        <ele>146.5</ele>
        <time>2017-04-06T17:09:10Z</time>
      </trkpt>
      <trkpt lat="49.06184" lon="1.1088">
        <ele>146.6</ele>
        <time>2017-04-06T17:09:12Z</time>
      </trkpt>
      <trkpt lat="49.06174" lon="1.10886">
        <ele>146.7</ele>
        <time>2017-04-06T17:09:14Z</time>
      </trkpt>
      <trkpt lat="49.06165" lon="1.10892">
        <ele>146.8</ele>
        <time>2017-04-06T17:09:16Z</time>
      </trkpt>
      <trkpt lat="49.06155" lon="1.10898">
        <ele>147</ele>
        <time>2017-04-06T17:09:18Z</time>
      </trkpt>
      <trkpt lat="49.06145" lon="1.10903">
        <ele>147.2</ele>
        <time>2017-04-06T17:09:20Z</time>
      </trkpt>
      <trkpt lat="49.06135" lon="1.10907">
        <ele>147.3</ele>
        <time>2017-04-06T17:09:22Z</time>
      </trkpt>
      <trkpt lat="49.06125" lon="1.10911">
        <ele>147.4</ele>
        <time>2017-04-06T17:09:24Z</time>
      </trkpt>
      <trkpt lat="49.06115" lon="1.10913">
        <ele>147.6</ele>
        <time>2017-04-06T17:09:26Z</time>
      </trkpt>
      <trkpt lat="49.06105" lon="1.10915">
        <ele>147.7</ele>
        <time>2017-04-06T17:09:28Z</time>
      </trkpt>
      <trkpt lat="49.06094" lon="1.10917">
        <ele>147.8</ele>
        <time>2017-04-06T17:09:30Z</time>
      </trkpt>
      <trkpt lat="49.06083" lon="1.10917">
        <ele>147.9</ele>
        <time>2017-04-06T17:09:32Z</time>
      </trkpt>
      <trkpt lat="49.06072" lon="1.10916">
        <ele>148</ele>
        <time>2017-04-06T17:09:34Z</time>
      </trkpt>
      <trkpt lat="49.06061" lon="1.10916">
        <ele>148.1</ele>
        <time>2017-04-06T17:09:36Z</time>
      </trkpt>
      <trkpt lat="49.06051" lon="1.10914">
        <ele>148.3</ele>
        <time>2017-04-06T17:09:38Z</time>
      </trkpt>
      <trkpt lat="49.0604" lon="1.10913">
        <ele>148.5</ele>
        <time>2017-04-06T17:09:40Z</time>
      </trkpt>
      <trkpt lat="49.06029" lon="1.1091">
        <ele>148.6</ele>
        <time>2017-04-06T17:09:42Z</time>
      </trkpt>
      <trkpt lat="49.06018" lon="1.10906">
        <ele>148.8</ele>
        <time>2017-04-06T17:09:44Z</time>
      </trkpt>
      <trkpt lat="49.06007" lon="1.10902">
        <ele>148.9</ele>
        <time>2017-04-06T17:09:46Z</time>
      </trkpt>
      <trkpt lat="49.05997" lon="1.10898">
        <ele>149</ele>
        <time>2017-04-06T17:09:48Z</time>
      </trkpt>
      <trkpt lat="49.05985" lon="1.10894">
        <ele>149.1</ele>
        <time>2017-04-06T17:09:50Z</time>
      </trkpt>
      <trkpt lat="49.05975" lon="1.10891">
        <ele>149.2</ele>
        <time>2017-04-06T17:09:52Z</time>
      </trkpt>
      <trkpt lat="49.05964" lon="1.10893">
        <ele>149.3</ele>
        <time>2017-04-06T17:09:54Z</time>
      </trkpt>
      <trkpt lat="49.05954" lon="1.10899">
        <ele>149.4</ele>
        <time>2017-04-06T17:09:56Z</time>
      </trkpt>
      <trkpt lat="49.05945" lon="1.10908">
        <ele>149.5</ele>
        <time>2017-04-06T17:09:58Z</time>
      </trkpt>
      <trkpt lat="49.05937" lon="1.10919">
        <ele>149.6</ele>
        <time>2017-04-06T17:10:00Z</time>
      </trkpt>
      <trkpt lat="49.0593" lon="1.10932">
        <ele>149.6</ele>
        <time>2017-04-06T17:10:02Z</time>
      </trkpt>
      <trkpt lat="49.05923" lon="1.10945">
        <ele>149.7</ele>
        <time>2017-04-06T17:10:04Z</time>
      </trkpt>
      <trkpt lat="49.05916" lon="1.10959">
        <ele>149.7</ele>
        <time>2017-04-06T17:10:06Z</time>
      </trkpt>
      <trkpt lat="49.0591" lon="1.10973">
        <ele>149.8</ele>
        <time>2017-04-06T17:10:08Z</time>
      </trkpt>
      <trkpt lat="49.05904" lon="1.10988">
        <ele>149.8</ele>
        <time>2017-04-06T17:10:10Z</time>
      </trkpt>
      <trkpt lat="49.05899" lon="1.11004">
        <ele>149.9</ele>
        <time>2017-04-06T17:10:12Z</time>
      </trkpt>
      <trkpt lat="49.05894" lon="1.1102">
        <ele>149.9</ele>
        <time>2017-04-06T17:10:14Z</time>
      </trkpt>
      <trkpt lat="49.0589" lon="1.11036">
        <ele>149.9</ele>
        <time>2017-04-06T17:10:16Z</time>
      </trkpt>
      <trkpt lat="49.05886" lon="1.11052">
        <ele>149.9</ele>
        <time>2017-04-06T17:10:18Z</time>
      </trkpt>
      <trkpt lat="49.05881" lon="1.11069">
        <ele>149.9</ele>
        <time>2017-04-06T17:10:20Z</time>
      </trkpt>
      <trkpt lat="49.05876" lon="1.11084">
        <ele>149.9</ele>
        <time>2017-04-06T17:10:22Z</time>
      </trkpt>
      <trkpt lat="49.0587" lon="1.11101">
        <ele>149.8</ele>
        <time>2017-04-06T17:10:24Z</time>
      </trkpt>
      <trkpt lat="49.05864" lon="1.11116">
        <ele>149.7</ele>
        <time>2017-04-06T17:10:26Z</time>
      </trkpt>
      <trkpt lat="49.05858" lon="1.11132">
        <ele>149.6</ele>
        <time>2017-04-06T17:10:28Z</time>
      </trkpt>
      <trkpt lat="49.05852" lon="1.11148">
        <ele>149.4</ele>
        <time>2017-04-06T17:10:30Z</time>
      </trkpt>
      <trkpt lat="49.05846" lon="1.11164">
        <ele>149.3</ele>
        <time>2017-04-06T17:10:32Z</time>
      </trkpt>
      <trkpt lat="49.0584" lon="1.1118">
        <ele>149.1</ele>
        <time>2017-04-06T17:10:34Z</time>
      </trkpt>
      <trkpt lat="49.05833" lon="1.11195">
        <ele>148.9</ele>
        <time>2017-04-06T17:10:36Z</time>
      </trkpt>
      <trkpt lat="49.05827" lon="1.1121">
        <ele>148.7</ele>
        <time>2017-04-06T17:10:38Z</time>
      </trkpt>
      <trkpt lat="49.05821" lon="1.11224">
        <ele>148.5</ele>
        <time>2017-04-06T17:10:40Z</time>
      </trkpt>
      <trkpt lat="49.05815" lon="1.11238">
        <ele>148.2</ele>
        <time>2017-04-06T17:10:42Z</time>
      </trkpt>
      <trkpt lat="49.0581" lon="1.11251">
        <ele>148</ele>
        <time>2017-04-06T17:10:44Z</time>
      </trkpt>
      <trkpt lat="49.05805" lon="1.11262">
        <ele>147.8</ele>
        <time>2017-04-06T17:10:46Z</time>
      </trkpt>
      <trkpt lat="49.05798" lon="1.11275">
        <ele>147.5</ele>
        <time>2017-04-06T17:10:49Z</time>
      </trkpt>
      <trkpt lat="49.05789" lon="1.11282">
        <ele>147.3</ele>
        <time>2017-04-06T17:10:52Z</time>
      </trkpt>
      <trkpt lat="49.05779" lon="1.11288">
        <ele>147.2</ele>
        <time>2017-04-06T17:10:55Z</time>
      </trkpt>
      <trkpt lat="49.0577" lon="1.11291">
        <ele>147</ele>
        <time>2017-04-06T17:10:58Z</time>
      </trkpt>
      <trkpt lat="49.05758" lon="1.11294">
        <ele>146.9</ele>
        <time>2017-04-06T17:11:01Z</time>
      </trkpt>
      <trkpt lat="49.0575" lon="1.11298">
        <ele>146.8</ele>
        <time>2017-04-06T17:11:03Z</time>
      </trkpt>
      <trkpt lat="49.05739" lon="1.11305">
        <ele>146.8</ele>
        <time>2017-04-06T17:11:06Z</time>
      </trkpt>
      <trkpt lat="49.0573" lon="1.11313">
        <ele>146.7</ele>
        <time>2017-04-06T17:11:09Z</time>
      </trkpt>
      <trkpt lat="49.05719" lon="1.11321">
        <ele>146.6</ele>
        <time>2017-04-06T17:11:12Z</time>
      </trkpt>
      <trkpt lat="49.0571" lon="1.11325">
        <ele>146.6</ele>
        <time>2017-04-06T17:11:14Z</time>
      </trkpt>
      <trkpt lat="49.057" lon="1.1133">
        <ele>146.6</ele>
        <time>2017-04-06T17:11:16Z</time>
      </trkpt>
      <trkpt lat="49.0569" lon="1.11334">
        <ele>146.5</ele>
        <time>2017-04-06T17:11:18Z</time>
      </trkpt>
      <trkpt lat="49.05679" lon="1.11337">
        <ele>146.5</ele>
        <time>2017-04-06T17:11:20Z</time>
      </trkpt>
      <trkpt lat="49.05669" lon="1.11341">
        <ele>146.5</ele>
        <time>2017-04-06T17:11:22Z</time>
      </trkpt>
      <trkpt lat="49.05658" lon="1.11344">
        <ele>146.5</ele>
        <time>2017-04-06T17:11:24Z</time>
      </trkpt>
      <trkpt lat="49.05648" lon="1.11347">
        <ele>146.5</ele>
        <time>2017-04-06T17:11:26Z</time>
      </trkpt>
      <trkpt lat="49.05638" lon="1.1135">
        <ele>146.5</ele>
        <time>2017-04-06T17:11:28Z</time>
      </trkpt>
      <trkpt lat="49.05628" lon="1.11353">
        <ele>146.4</ele>
        <time>2017-04-06T17:11:30Z</time>
      </trkpt>
      <trkpt lat="49.05617" lon="1.11355">
        <ele>146.4</ele>
        <time>2017-04-06T17:11:32Z</time>
      </trkpt>
      <trkpt lat="49.05607" lon="1.11357">
        <ele>146.4</ele>
        <time>2017-04-06T17:11:34Z</time>
      </trkpt>
      <trkpt lat="49.05597" lon="1.1136">
        <ele>146.5</ele>
        <time>2017-04-06T17:11:36Z</time>
      </trkpt>
      <trkpt lat="49.05587" lon="1.11361">
        <ele>146.6</ele>
        <time>2017-04-06T17:11:38Z</time>
      </trkpt>
      <trkpt lat="49.05577" lon="1.11362">
        <ele>146.6</ele>
        <time>2017-04-06T17:11:40Z</time>
      </trkpt>
      <trkpt lat="49.05567" lon="1.11363">
        <ele>146.7</ele>
        <time>2017-04-06T17:11:42Z</time>
      </trkpt>
      <trkpt lat="49.05557" lon="1.11364">
        <ele>146.7</ele>
        <time>2017-04-06T17:11:44Z</time>
      </trkpt>
      <trkpt lat="49.05547" lon="1.11365">
        <ele>146.8</ele>
        <time>2017-04-06T17:11:46Z</time>
      </trkpt>
      <trkpt lat="49.05536" lon="1.11366">
        <ele>146.8</ele>
        <time>2017-04-06T17:11:48Z</time>
      </trkpt>
      <trkpt lat="49.05525" lon="1.11366">
        <ele>146.8</ele>
        <time>2017-04-06T17:11:50Z</time>
      </trkpt>
      <trkpt lat="49.05514" lon="1.11367">
        <ele>146.9</ele>
        <time>2017-04-06T17:11:52Z</time>
      </trkpt>
      <trkpt lat="49.05503" lon="1.11369">
        <ele>147</ele>
        <time>2017-04-06T17:11:54Z</time>
      </trkpt>
      <trkpt lat="49.05493" lon="1.11371">
        <ele>147</ele>
        <time>2017-04-06T17:11:56Z</time>
      </trkpt>
      <trkpt lat="49.05482" lon="1.11373">
        <ele>147.1</ele>
        <time>2017-04-06T17:11:58Z</time>
      </trkpt>
      <trkpt lat="49.05471" lon="1.11374">
        <ele>147.1</ele>
        <time>2017-04-06T17:12:00Z</time>
      </trkpt>
      <trkpt lat="49.0546" lon="1.11376">
        <ele>147.2</ele>
        <time>2017-04-06T17:12:02Z</time>
      </trkpt>
      <trkpt lat="49.05449" lon="1.11379">
        <ele>147.2</ele>
        <time>2017-04-06T17:12:04Z</time>
      </trkpt>
      <trkpt lat="49.05438" lon="1.11384">
        <ele>147.3</ele>
        <time>2017-04-06T17:12:06Z</time>
      </trkpt>
      <trkpt lat="49.05428" lon="1.1139">
        <ele>147.3</ele>
        <time>2017-04-06T17:12:08Z</time>
      </trkpt>
      <trkpt lat="49.05417" lon="1.11394">
        <ele>147.3</ele>
        <time>2017-04-06T17:12:10Z</time>
      </trkpt>
      <trkpt lat="49.05406" lon="1.11399">
        <ele>147.3</ele>
        <time>2017-04-06T17:12:12Z</time>
      </trkpt>
      <trkpt lat="49.05395" lon="1.11403">
        <ele>147.1</ele>
        <time>2017-04-06T17:12:14Z</time>
      </trkpt>
      <trkpt lat="49.05384" lon="1.11407">
        <ele>146.9</ele>
        <time>2017-04-06T17:12:16Z</time>
      </trkpt>
      <trkpt lat="49.05373" lon="1.11412">
        <ele>146.8</ele>
        <time>2017-04-06T17:12:18Z</time>
      </trkpt>
      <trkpt lat="49.05363" lon="1.11419">
        <ele>146.7</ele>
        <time>2017-04-06T17:12:20Z</time>
      </trkpt>
      <trkpt lat="49.05353" lon="1.11425">
        <ele>146.6</ele>
        <time>2017-04-06T17:12:22Z</time>
      </trkpt>
      <trkpt lat="49.05343" lon="1.11432">
        <ele>146.5</ele>
        <time>2017-04-06T17:12:24Z</time>
      </trkpt>
      <trkpt lat="49.05334" lon="1.1144">
        <ele>146.2</ele>
        <time>2017-04-06T17:12:26Z</time>
      </trkpt>
      <trkpt lat="49.05325" lon="1.11448">
        <ele>146.1</ele>
        <time>2017-04-06T17:12:28Z</time>
      </trkpt>
      <trkpt lat="49.05318" lon="1.11456">
        <ele>145.9</ele>
        <time>2017-04-06T17:12:30Z</time>
      </trkpt>
      <trkpt lat="49.05308" lon="1.11467">
        <ele>145.7</ele>
        <time>2017-04-06T17:12:33Z</time>
      </trkpt>
      <trkpt lat="49.053" lon="1.11473">
        <ele>145.4</ele>
        <time>2017-04-06T17:12:37Z</time>
      </trkpt>
      <trkpt lat="49.05292" lon="1.11481">
        <ele>144</ele>
        <time>2017-04-06T17:14:03Z</time>
      </trkpt>
      <trkpt lat="49.05282" lon="1.11491">
        <ele>144</ele>
        <time>2017-04-06T17:14:06Z</time>
      </trkpt>
      <trkpt lat="49.05274" lon="1.11499">
        <ele>144</ele>
        <time>2017-04-06T17:14:08Z</time>
      </trkpt>
      <trkpt lat="49.05266" lon="1.11507">
        <ele>143.9</ele>
        <time>2017-04-06T17:14:10Z</time>
      </trkpt>
      <trkpt lat="49.05258" lon="1.11515">
        <ele>143.9</ele>
        <time>2017-04-06T17:14:12Z</time>
      </trkpt>
      <trkpt lat="49.05249" lon="1.11523">
        <ele>143.9</ele>
        <time>2017-04-06T17:14:14Z</time>
      </trkpt>
      <trkpt lat="49.0524" lon="1.11532">
        <ele>143.9</ele>
        <time>2017-04-06T17:14:16Z</time>
      </trkpt>
      <trkpt lat="49.05231" lon="1.11539">
        <ele>143.9</ele>
        <time>2017-04-06T17:14:18Z</time>
      </trkpt>
      <trkpt lat="49.05221" lon="1.11547">
        <ele>143.9</ele>
        <time>2017-04-06T17:14:20Z</time>
      </trkpt>
      <trkpt lat="49.05211" lon="1.11554">
        <ele>143.9</ele>
        <time>2017-04-06T17:14:22Z</time>
      </trkpt>
      <trkpt lat="49.05201" lon="1.11562">
        <ele>143.9</ele>
        <time>2017-04-06T17:14:24Z</time>
      </trkpt>
      <trkpt lat="49.05192" lon="1.1157">
        <ele>143.9</ele>
        <time>2017-04-06T17:14:26Z</time>
      </trkpt>
      <trkpt lat="49.05183" lon="1.11578">
        <ele>143.9</ele>
        <time>2017-04-06T17:14:28Z</time>
      </trkpt>
      <trkpt lat="49.05175" lon="1.11585">
        <ele>143.9</ele>
        <time>2017-04-06T17:14:30Z</time>
      </trkpt>
      <trkpt lat="49.05166" lon="1.11591">
        <ele>143.9</ele>
        <time>2017-04-06T17:14:32Z</time>
      </trkpt>
      <trkpt lat="49.05155" lon="1.1159">
        <ele>143.8</ele>
        <time>2017-04-06T17:14:35Z</time>
      </trkpt>
      <trkpt lat="49.05147" lon="1.11574">
        <ele>143.8</ele>
        <time>2017-04-06T17:14:38Z</time>
      </trkpt>
      <trkpt lat="49.05141" lon="1.11561">
        <ele>143.7</ele>
        <time>2017-04-06T17:14:40Z</time>
      </trkpt>
      <trkpt lat="49.05135" lon="1.11548">
        <ele>143.7</ele>
        <time>2017-04-06T17:14:42Z</time>
      </trkpt>
      <trkpt lat="49.05129" lon="1.11534">
        <ele>143.7</ele>
        <time>2017-04-06T17:14:44Z</time>
      </trkpt>
      <trkpt lat="49.05123" lon="1.1152">
        <ele>143.6</ele>
        <time>2017-04-06T17:14:46Z</time>
      </trkpt>
      <trkpt lat="49.05118" lon="1.11507">
        <ele>143.6</ele>
        <time>2017-04-06T17:14:48Z</time>
      </trkpt>
      <trkpt lat="49.05109" lon="1.11492">
        <ele>143.5</ele>
        <time>2017-04-06T17:14:51Z</time>
      </trkpt>
      <trkpt lat="49.051" lon="1.11494">
        <ele>143.5</ele>
        <time>2017-04-06T17:14:53Z</time>
      </trkpt>
      <trkpt lat="49.05091" lon="1.11501">
        <ele>143.5</ele>
        <time>2017-04-06T17:14:55Z</time>
      </trkpt>
      <trkpt lat="49.05081" lon="1.11508">
        <ele>143.5</ele>
        <time>2017-04-06T17:14:57Z</time>
      </trkpt>
      <trkpt lat="49.0507" lon="1.11515">
        <ele>143.4</ele>
        <time>2017-04-06T17:14:59Z</time>
      </trkpt>
      <trkpt lat="49.05059" lon="1.11522">
        <ele>143.4</ele>
        <time>2017-04-06T17:15:01Z</time>
      </trkpt>
      <trkpt lat="49.05048" lon="1.11529">
        <ele>143.4</ele>
        <time>2017-04-06T17:15:03Z</time>
      </trkpt>
      <trkpt lat="49.05037" lon="1.11536">
        <ele>143.4</ele>
        <time>2017-04-06T17:15:05Z</time>
      </trkpt>
      <trkpt lat="49.05026" lon="1.11543">
        <ele>143.4</ele>
        <time>2017-04-06T17:15:07Z</time>
      </trkpt>
      <trkpt lat="49.05015" lon="1.1155">
        <ele>143.4</ele>
        <time>2017-04-06T17:15:09Z</time>
      </trkpt>
      <trkpt lat="49.05002" lon="1.11556">
        <ele>143.3</ele>
        <time>2017-04-06T17:15:11Z</time>
      </trkpt>
      <trkpt lat="49.0499" lon="1.11563">
        <ele>143.2</ele>
        <time>2017-04-06T17:15:13Z</time>
      </trkpt>
      <trkpt lat="49.04977" lon="1.1157">
        <ele>143</ele>
        <time>2017-04-06T17:15:15Z</time>
      </trkpt>
      <trkpt lat="49.04965" lon="1.11579">
        <ele>142.9</ele>
        <time>2017-04-06T17:15:17Z</time>
      </trkpt>
      <trkpt lat="49.04955" lon="1.1159">
        <ele>142.8</ele>
        <time>2017-04-06T17:15:19Z</time>
      </trkpt>
      <trkpt lat="49.04944" lon="1.11602">
        <ele>142.7</ele>
        <time>2017-04-06T17:15:21Z</time>
      </trkpt>
      <trkpt lat="49.04934" lon="1.11614">
        <ele>142.5</ele>
        <time>2017-04-06T17:15:23Z</time>
      </trkpt>
      <trkpt lat="49.04926" lon="1.11626">
        <ele>142.3</ele>
        <time>2017-04-06T17:15:25Z</time>
      </trkpt>
      <trkpt lat="49.04916" lon="1.11635">
        <ele>142.1</ele>
        <time>2017-04-06T17:15:27Z</time>
      </trkpt>
      <trkpt lat="49.04905" lon="1.11634">
        <ele>141.8</ele>
        <time>2017-04-06T17:15:29Z</time>
      </trkpt>
      <trkpt lat="49.04895" lon="1.11624">
        <ele>141.6</ele>
        <time>2017-04-06T17:15:31Z</time>
      </trkpt>
      <trkpt lat="49.04884" lon="1.11613">
        <ele>141.3</ele>
        <time>2017-04-06T17:15:33Z</time>
      </trkpt>
      <trkpt lat="49.04873" lon="1.11602">
        <ele>141.1</ele>
        <time>2017-04-06T17:15:35Z</time>
      </trkpt>
      <trkpt lat="49.04861" lon="1.11591">
        <ele>140.9</ele>
        <time>2017-04-06T17:15:37Z</time>
      </trkpt>
      <trkpt lat="49.04849" lon="1.11581">
        <ele>140.7</ele>
        <time>2017-04-06T17:15:39Z</time>
      </trkpt>
      <trkpt lat="49.04836" lon="1.11571">
        <ele>140.5</ele>
        <time>2017-04-06T17:15:41Z</time>
      </trkpt>
      <trkpt lat="49.04823" lon="1.11562">
        <ele>140.3</ele>
        <time>2017-04-06T17:15:43Z</time>
      </trkpt>
      <trkpt lat="49.04808" lon="1.11555">
        <ele>140.1</ele>
        <time>2017-04-06T17:15:45Z</time>
      </trkpt>
      <trkpt lat="49.04794" lon="1.1155">
        <ele>139.8</ele>
        <time>2017-04-06T17:15:47Z</time>
      </trkpt>
      <trkpt lat="49.04779" lon="1.11545">
        <ele>139.6</ele>
        <time>2017-04-06T17:15:49Z</time>
      </trkpt>
      <trkpt lat="49.04764" lon="1.11539">
        <ele>139.5</ele>
        <time>2017-04-06T17:15:51Z</time>
      </trkpt>
      <trkpt lat="49.0475" lon="1.11533">
        <ele>139.3</ele>
        <time>2017-04-06T17:15:53Z</time>
      </trkpt>
      <trkpt lat="49.04736" lon="1.11527">
        <ele>139.1</ele>
        <time>2017-04-06T17:15:55Z</time>
      </trkpt>
      <trkpt lat="49.04723" lon="1.11521">
        <ele>138.9</ele>
        <time>2017-04-06T17:15:57Z</time>
      </trkpt>
      <trkpt lat="49.0471" lon="1.11515">
        <ele>138.7</ele>
        <time>2017-04-06T17:15:59Z</time>
      </trkpt>
      <trkpt lat="49.04699" lon="1.11509">
        <ele>138.5</ele>
        <time>2017-04-06T17:16:01Z</time>
      </trkpt>
      <trkpt lat="49.04687" lon="1.11504">
        <ele>138.4</ele>
        <time>2017-04-06T17:16:03Z</time>
      </trkpt>
      <trkpt lat="49.04677" lon="1.115">
        <ele>138.2</ele>
        <time>2017-04-06T17:16:05Z</time>
      </trkpt>
      <trkpt lat="49.04666" lon="1.11495">
        <ele>138.1</ele>
        <time>2017-04-06T17:16:07Z</time>
      </trkpt>
      <trkpt lat="49.04657" lon="1.1149">
        <ele>138</ele>
        <time>2017-04-06T17:16:09Z</time>
      </trkpt>
      <trkpt lat="49.04647" lon="1.11487">
        <ele>137.9</ele>
        <time>2017-04-06T17:16:11Z</time>
      </trkpt>
      <trkpt lat="49.04637" lon="1.11487">
        <ele>137.9</ele>
        <time>2017-04-06T17:16:13Z</time>
      </trkpt>
      <trkpt lat="49.04626" lon="1.11487">
        <ele>137.8</ele>
        <time>2017-04-06T17:16:15Z</time>
      </trkpt>
      <trkpt lat="49.04615" lon="1.11488">
        <ele>137.7</ele>
        <time>2017-04-06T17:16:17Z</time>
      </trkpt>
      <trkpt lat="49.04605" lon="1.11487">
        <ele>137.7</ele>
        <time>2017-04-06T17:16:19Z</time>
      </trkpt>
      <trkpt lat="49.04593" lon="1.11486">
        <ele>137.7</ele>
        <time>2017-04-06T17:16:22Z</time>
      </trkpt>
      <trkpt lat="49.04583" lon="1.11485">
        <ele>137.7</ele>
        <time>2017-04-06T17:16:24Z</time>
      </trkpt>
      <trkpt lat="49.04573" lon="1.11481">
        <ele>137.7</ele>
        <time>2017-04-06T17:16:27Z</time>
      </trkpt>
      <trkpt lat="49.04562" lon="1.11478">
        <ele>137.7</ele>
        <time>2017-04-06T17:16:29Z</time>
      </trkpt>
      <trkpt lat="49.04552" lon="1.11471">
        <ele>137.8</ele>
        <time>2017-04-06T17:16:31Z</time>
      </trkpt>
      <trkpt lat="49.04542" lon="1.11466">
        <ele>137.8</ele>
        <time>2017-04-06T17:16:33Z</time>
      </trkpt>
      <trkpt lat="49.04532" lon="1.11461">
        <ele>137.8</ele>
        <time>2017-04-06T17:16:35Z</time>
      </trkpt>
      <trkpt lat="49.0452" lon="1.11455">
        <ele>137.9</ele>
        <time>2017-04-06T17:16:37Z</time>
      </trkpt>
      <trkpt lat="49.04509" lon="1.11449">
        <ele>137.9</ele>
        <time>2017-04-06T17:16:39Z</time>
      </trkpt>
      <trkpt lat="49.04499" lon="1.11443">
        <ele>137.9</ele>
        <time>2017-04-06T17:16:41Z</time>
      </trkpt>
      <trkpt lat="49.04488" lon="1.11438">
        <ele>137.9</ele>
        <time>2017-04-06T17:16:43Z</time>
      </trkpt>
      <trkpt lat="49.04478" lon="1.11433">
        <ele>137.9</ele>
        <time>2017-04-06T17:16:45Z</time>
      </trkpt>
      <trkpt lat="49.04465" lon="1.11426">
        <ele>137.8</ele>
        <time>2017-04-06T17:16:47Z</time>
      </trkpt>
      <trkpt lat="49.04453" lon="1.11417">
        <ele>137.7</ele>
        <time>2017-04-06T17:16:49Z</time>
      </trkpt>
      <trkpt lat="49.04442" lon="1.1141">
        <ele>137.6</ele>
        <time>2017-04-06T17:16:51Z</time>
      </trkpt>
      <trkpt lat="49.04432" lon="1.11402">
        <ele>137.5</ele>
        <time>2017-04-06T17:16:53Z</time>
      </trkpt>
      <trkpt lat="49.04422" lon="1.11399">
        <ele>137.3</ele>
        <time>2017-04-06T17:16:55Z</time>
      </trkpt>
      <trkpt lat="49.04408" lon="1.114">
        <ele>136.9</ele>
        <time>2017-04-06T17:16:58Z</time>
      </trkpt>
      <trkpt lat="49.04396" lon="1.11404">
        <ele>136.6</ele>
        <time>2017-04-06T17:17:00Z</time>
      </trkpt>
      <trkpt lat="49.04382" lon="1.11408">
        <ele>136.1</ele>
        <time>2017-04-06T17:17:02Z</time>
      </trkpt>
      <trkpt lat="49.04372" lon="1.11408">
        <ele>135.8</ele>
        <time>2017-04-06T17:17:03Z</time>
      </trkpt>
      <trkpt lat="49.04362" lon="1.1141">
        <ele>135.5</ele>
        <time>2017-04-06T17:17:04Z</time>
      </trkpt>
      <trkpt lat="49.04353" lon="1.11408">
        <ele>135.1</ele>
        <time>2017-04-06T17:17:05Z</time>
      </trkpt>
      <trkpt lat="49.04343" lon="1.11408">
        <ele>134.8</ele>
        <time>2017-04-06T17:17:06Z</time>
      </trkpt>
      <trkpt lat="49.04328" lon="1.11414">
        <ele>134.1</ele>
        <time>2017-04-06T17:17:08Z</time>
      </trkpt>
      <trkpt lat="49.04316" lon="1.11425">
        <ele>133.5</ele>
        <time>2017-04-06T17:17:10Z</time>
      </trkpt>
      <trkpt lat="49.04307" lon="1.11431">
        <ele>133</ele>
        <time>2017-04-06T17:17:12Z</time>
      </trkpt>
      <trkpt lat="49.04297" lon="1.1144">
        <ele>132.5</ele>
        <time>2017-04-06T17:17:15Z</time>
      </trkpt>
      <trkpt lat="49.0429" lon="1.11452">
        <ele>132.1</ele>
        <time>2017-04-06T17:17:25Z</time>
      </trkpt>
      <trkpt lat="49.04281" lon="1.11459">
        <ele>132.2</ele>
        <time>2017-04-06T17:17:31Z</time>
      </trkpt>
      <trkpt lat="49.04274" lon="1.11468">
        <ele>132.4</ele>
        <time>2017-04-06T17:17:35Z</time>
      </trkpt>
      <trkpt lat="49.04267" lon="1.11476">
        <ele>132.7</ele>
        <time>2017-04-06T17:17:38Z</time>
      </trkpt>
      <trkpt lat="49.04273" lon="1.11486">
        <ele>133.6</ele>
        <time>2017-04-06T17:17:48Z</time>
      </trkpt>
      <trkpt lat="49.04276" lon="1.11502">
        <ele>133.7</ele>
        <time>2017-04-06T17:17:52Z</time>
      </trkpt>
      <trkpt lat="49.04275" lon="1.11519">
        <ele>133.7</ele>
        <time>2017-04-06T17:17:55Z</time>
      </trkpt>
      <trkpt lat="49.04271" lon="1.11538">
        <ele>133.7</ele>
        <time>2017-04-06T17:17:58Z</time>
      </trkpt>
      <trkpt lat="49.04264" lon="1.11551">
        <ele>133.8</ele>
        <time>2017-04-06T17:18:01Z</time>
      </trkpt>
      <trkpt lat="49.04259" lon="1.11566">
        <ele>133.9</ele>
        <time>2017-04-06T17:18:04Z</time>
      </trkpt>
      <trkpt lat="49.04254" lon="1.11586">
        <ele>134</ele>
        <time>2017-04-06T17:18:07Z</time>
      </trkpt>
      <trkpt lat="49.0425" lon="1.11598">
        <ele>134.1</ele>
        <time>2017-04-06T17:18:09Z</time>
      </trkpt>
      <trkpt lat="49.04244" lon="1.11616">
        <ele>134.2</ele>
        <time>2017-04-06T17:18:12Z</time>
      </trkpt>
      <trkpt lat="49.04241" lon="1.11632">
        <ele>134.5</ele>
        <time>2017-04-06T17:18:15Z</time>
      </trkpt>
      <trkpt lat="49.04249" lon="1.11645">
        <ele>134.6</ele>
        <time>2017-04-06T17:18:17Z</time>
      </trkpt>
      <trkpt lat="49.04255" lon="1.11661">
        <ele>134.8</ele>
        <time>2017-04-06T17:18:20Z</time>
      </trkpt>
      <trkpt lat="49.04262" lon="1.11673">
        <ele>134.9</ele>
        <time>2017-04-06T17:18:22Z</time>
      </trkpt>
      <trkpt lat="49.04269" lon="1.11688">
        <ele>135.1</ele>
        <time>2017-04-06T17:18:25Z</time>
      </trkpt>
      <trkpt lat="49.04277" lon="1.11703">
        <ele>135.2</ele>
        <time>2017-04-06T17:18:28Z</time>
      </trkpt>
      <trkpt lat="49.04284" lon="1.11712">
        <ele>135.3</ele>
        <time>2017-04-06T17:18:30Z</time>
      </trkpt>
      <trkpt lat="49.04288" lon="1.11725">
        <ele>135.3</ele>
        <time>2017-04-06T17:18:32Z</time>
      </trkpt>
      <trkpt lat="49.0429" lon="1.11739">
        <ele>135.4</ele>
        <time>2017-04-06T17:18:34Z</time>
      </trkpt>
      <trkpt lat="49.04284" lon="1.11755">
        <ele>135.4</ele>
        <time>2017-04-06T17:18:37Z</time>
      </trkpt>
      <trkpt lat="49.04277" lon="1.11769">
        <ele>135.5</ele>
        <time>2017-04-06T17:18:40Z</time>
      </trkpt>
      <trkpt lat="49.0427" lon="1.11784">
        <ele>135.6</ele>
        <time>2017-04-06T17:18:43Z</time>
      </trkpt>
      <trkpt lat="49.04265" lon="1.11804">
        <ele>135.7</ele>
        <time>2017-04-06T17:18:46Z</time>
      </trkpt>
      <trkpt lat="49.04262" lon="1.11822">
        <ele>135.9</ele>
        <time>2017-04-06T17:18:49Z</time>
      </trkpt>
      <trkpt lat="49.04258" lon="1.1184">
        <ele>136.2</ele>
        <time>2017-04-06T17:18:52Z</time>
      </trkpt>
      <trkpt lat="49.04252" lon="1.11856">
        <ele>136.4</ele>
        <time>2017-04-06T17:18:55Z</time>
      </trkpt>
      <trkpt lat="49.04244" lon="1.11869">
        <ele>136.7</ele>
        <time>2017-04-06T17:18:58Z</time>
      </trkpt>
      <trkpt lat="49.04234" lon="1.1188">
        <ele>137.1</ele>
        <time>2017-04-06T17:19:01Z</time>
      </trkpt>
      <trkpt lat="49.04223" lon="1.11889">
        <ele>137.5</ele>
        <time>2017-04-06T17:19:04Z</time>
      </trkpt>
      <trkpt lat="49.04215" lon="1.11898">
        <ele>137.7</ele>
        <time>2017-04-06T17:19:06Z</time>
      </trkpt>
      <trkpt lat="49.04209" lon="1.11909">
        <ele>138.1</ele>
        <time>2017-04-06T17:19:08Z</time>
      </trkpt>
      <trkpt lat="49.04203" lon="1.1192">
        <ele>138.4</ele>
        <time>2017-04-06T17:19:10Z</time>
      </trkpt>
      <trkpt lat="49.04196" lon="1.1193">
        <ele>138.7</ele>
        <time>2017-04-06T17:19:12Z</time>
      </trkpt>
      <trkpt lat="49.0419" lon="1.11946">
        <ele>139.1</ele>
        <time>2017-04-06T17:19:15Z</time>
      </trkpt>
      <trkpt lat="49.0418" lon="1.11955">
        <ele>139.7</ele>
        <time>2017-04-06T17:19:18Z</time>
      </trkpt>
      <trkpt lat="49.04168" lon="1.11959">
        <ele>140.1</ele>
        <time>2017-04-06T17:19:21Z</time>
      </trkpt>
      <trkpt lat="49.04156" lon="1.11957">
        <ele>140.5</ele>
        <time>2017-04-06T17:19:24Z</time>
      </trkpt>
      <trkpt lat="49.04147" lon="1.1195">
        <ele>140.9</ele>
        <time>2017-04-06T17:19:27Z</time>
      </trkpt>
      <trkpt lat="49.04137" lon="1.11942">
        <ele>141.1</ele>
        <time>2017-04-06T17:19:30Z</time>
      </trkpt>
      <trkpt lat="49.04129" lon="1.11934">
        <ele>141.2</ele>
        <time>2017-04-06T17:19:32Z</time>
      </trkpt>
      <trkpt lat="49.04122" lon="1.11924">
        <ele>141.3</ele>
        <time>2017-04-06T17:19:34Z</time>
      </trkpt>
      <trkpt lat="49.04114" lon="1.11915">
        <ele>141.4</ele>
        <time>2017-04-06T17:19:36Z</time>
      </trkpt>
      <trkpt lat="49.04106" lon="1.11908">
        <ele>141.4</ele>
        <time>2017-04-06T17:19:38Z</time>
      </trkpt>
      <trkpt lat="49.04098" lon="1.11899">
        <ele>141.3</ele>
        <time>2017-04-06T17:19:40Z</time>
      </trkpt>
      <trkpt lat="49.04089" lon="1.11889">
        <ele>141.1</ele>
        <time>2017-04-06T17:19:43Z</time>
      </trkpt>
      <trkpt lat="49.04079" lon="1.11885">
        <ele>140.9</ele>
        <time>2017-04-06T17:19:46Z</time>
      </trkpt>
      <trkpt lat="49.04067" lon="1.1188">
        <ele>140.8</ele>
        <time>2017-04-06T17:19:49Z</time>
      </trkpt>
      <trkpt lat="49.04058" lon="1.11879">
        <ele>140.7</ele>
        <time>2017-04-06T17:19:51Z</time>
      </trkpt>
      <trkpt lat="49.04048" lon="1.1188">
        <ele>140.7</ele>
        <time>2017-04-06T17:19:53Z</time>
      </trkpt>
      <trkpt lat="49.04039" lon="1.11875">
        <ele>140.6</ele>
        <time>2017-04-06T17:19:55Z</time>
      </trkpt>
      <trkpt lat="49.0403" lon="1.11868">
        <ele>140.5</ele>
        <time>2017-04-06T17:19:57Z</time>
      </trkpt>
      <trkpt lat="49.04022" lon="1.1186">
        <ele>140.4</ele>
        <time>2017-04-06T17:19:59Z</time>
      </trkpt>
      <trkpt lat="49.04012" lon="1.11855">
        <ele>140.2</ele>
        <time>2017-04-06T17:20:01Z</time>
      </trkpt>
      <trkpt lat="49.04002" lon="1.11856">
        <ele>140.1</ele>
        <time>2017-04-06T17:20:03Z</time>
      </trkpt>
      <trkpt lat="49.03993" lon="1.11857">
        <ele>139.9</ele>
        <time>2017-04-06T17:20:05Z</time>
      </trkpt>
      <trkpt lat="49.03984" lon="1.11861">
        <ele>139.6</ele>
        <time>2017-04-06T17:20:07Z</time>
      </trkpt>
      <trkpt lat="49.03975" lon="1.11876">
        <ele>139.3</ele>
        <time>2017-04-06T17:20:10Z</time>
      </trkpt>
      <trkpt lat="49.0397" lon="1.1189">
        <ele>139</ele>
        <time>2017-04-06T17:20:13Z</time>
      </trkpt>
      <trkpt lat="49.03967" lon="1.11906">
        <ele>138.8</ele>
        <time>2017-04-06T17:20:16Z</time>
      </trkpt>
      <trkpt lat="49.03964" lon="1.1192">
        <ele>138.7</ele>
        <time>2017-04-06T17:20:18Z</time>
      </trkpt>
      <trkpt lat="49.03961" lon="1.11933">
        <ele>138.6</ele>
        <time>2017-04-06T17:20:20Z</time>
      </trkpt>
      <trkpt lat="49.03957" lon="1.11952">
        <ele>138.6</ele>
        <time>2017-04-06T17:20:23Z</time>
      </trkpt>
      <trkpt lat="49.03954" lon="1.11966">
        <ele>138.6</ele>
        <time>2017-04-06T17:20:25Z</time>
      </trkpt>
      <trkpt lat="49.03952" lon="1.11979">
        <ele>138.6</ele>
        <time>2017-04-06T17:20:27Z</time>
      </trkpt>
      <trkpt lat="49.03948" lon="1.12">
        <ele>138.8</ele>
        <time>2017-04-06T17:20:30Z</time>
      </trkpt>
      <trkpt lat="49.03944" lon="1.12018">
        <ele>139</ele>
        <time>2017-04-06T17:20:33Z</time>
      </trkpt>
      <trkpt lat="49.03943" lon="1.12034">
        <ele>139.1</ele>
        <time>2017-04-06T17:20:35Z</time>
      </trkpt>
      <trkpt lat="49.03942" lon="1.12048">
        <ele>139.2</ele>
        <time>2017-04-06T17:20:37Z</time>
      </trkpt>
      <trkpt lat="49.03943" lon="1.12068">
        <ele>139.4</ele>
        <time>2017-04-06T17:20:40Z</time>
      </trkpt>
      <trkpt lat="49.03939" lon="1.12088">
        <ele>139.7</ele>
        <time>2017-04-06T17:20:43Z</time>
      </trkpt>
      <trkpt lat="49.03938" lon="1.12103">
        <ele>139.8</ele>
        <time>2017-04-06T17:20:45Z</time>
      </trkpt>
      <trkpt lat="49.03934" lon="1.12115">
        <ele>140</ele>
        <time>2017-04-06T17:20:48Z</time>
      </trkpt>
      <trkpt lat="49.03924" lon="1.12116">
        <ele>140.2</ele>
        <time>2017-04-06T17:20:51Z</time>
      </trkpt>
      <trkpt lat="49.03911" lon="1.1212">
        <ele>140.3</ele>
        <time>2017-04-06T17:20:54Z</time>
      </trkpt>
      <trkpt lat="49.03901" lon="1.12122">
        <ele>140.4</ele>
        <time>2017-04-06T17:20:56Z</time>
      </trkpt>
      <trkpt lat="49.03891" lon="1.12123">
        <ele>140.4</ele>
        <time>2017-04-06T17:20:58Z</time>
      </trkpt>
      <trkpt lat="49.03881" lon="1.12128">
        <ele>140.5</ele>
        <time>2017-04-06T17:21:00Z</time>
      </trkpt>
      <trkpt lat="49.03874" lon="1.12137">
        <ele>140.5</ele>
        <time>2017-04-06T17:21:02Z</time>
      </trkpt>
      <trkpt lat="49.03865" lon="1.12146">
        <ele>140.5</ele>
        <time>2017-04-06T17:21:04Z</time>
      </trkpt>
      <trkpt lat="49.03857" lon="1.12157">
        <ele>140.4</ele>
        <time>2017-04-06T17:21:06Z</time>
      </trkpt>
      <trkpt lat="49.0385" lon="1.12173">
        <ele>140.1</ele>
        <time>2017-04-06T17:21:09Z</time>
      </trkpt>
      <trkpt lat="49.03842" lon="1.12184">
        <ele>139.9</ele>
        <time>2017-04-06T17:21:11Z</time>
      </trkpt>
      <trkpt lat="49.03835" lon="1.12192">
        <ele>139.8</ele>
        <time>2017-04-06T17:21:13Z</time>
      </trkpt>
      <trkpt lat="49.03824" lon="1.12196">
        <ele>139.7</ele>
        <time>2017-04-06T17:21:16Z</time>
      </trkpt>
      <trkpt lat="49.03813" lon="1.12207">
        <ele>139.6</ele>
        <time>2017-04-06T17:21:19Z</time>
      </trkpt>
      <trkpt lat="49.03807" lon="1.1222">
        <ele>139.5</ele>
        <time>2017-04-06T17:21:21Z</time>
      </trkpt>
      <trkpt lat="49.03803" lon="1.12232">
        <ele>139.5</ele>
        <time>2017-04-06T17:21:23Z</time>
      </trkpt>
      <trkpt lat="49.03803" lon="1.12251">
        <ele>139.5</ele>
        <time>2017-04-06T17:21:26Z</time>
      </trkpt>
      <trkpt lat="49.03798" lon="1.1227">
        <ele>139.5</ele>
        <time>2017-04-06T17:21:29Z</time>
      </trkpt>
      <trkpt lat="49.03793" lon="1.12284">
        <ele>139.6</ele>
        <time>2017-04-06T17:21:31Z</time>
      </trkpt>
      <trkpt lat="49.03791" lon="1.12299">
        <ele>139.5</ele>
        <time>2017-04-06T17:21:33Z</time>
      </trkpt>
      <trkpt lat="49.03788" lon="1.12317">
        <ele>139.4</ele>
        <time>2017-04-06T17:21:36Z</time>
      </trkpt>
      <trkpt lat="49.03787" lon="1.12338">
        <ele>139.4</ele>
        <time>2017-04-06T17:21:39Z</time>
      </trkpt>
      <trkpt lat="49.03783" lon="1.12352">
        <ele>139.3</ele>
        <time>2017-04-06T17:21:41Z</time>
      </trkpt>
      <trkpt lat="49.03779" lon="1.12366">
        <ele>139.3</ele>
        <time>2017-04-06T17:21:43Z</time>
      </trkpt>
      <trkpt lat="49.03778" lon="1.12384">
        <ele>139.2</ele>
        <time>2017-04-06T17:21:45Z</time>
      </trkpt>
      <trkpt lat="49.03776" lon="1.124">
        <ele>139.1</ele>
        <time>2017-04-06T17:21:47Z</time>
      </trkpt>
      <trkpt lat="49.03774" lon="1.12415">
        <ele>139</ele>
        <time>2017-04-06T17:21:49Z</time>
      </trkpt>
      <trkpt lat="49.03772" lon="1.1243">
        <ele>138.9</ele>
        <time>2017-04-06T17:21:51Z</time>
      </trkpt>
      <trkpt lat="49.03764" lon="1.12444">
        <ele>138.5</ele>
        <time>2017-04-06T17:21:54Z</time>
      </trkpt>
      <trkpt lat="49.03758" lon="1.12455">
        <ele>138.3</ele>
        <time>2017-04-06T17:21:56Z</time>
      </trkpt>
      <trkpt lat="49.03749" lon="1.12467">
        <ele>138.1</ele>
        <time>2017-04-06T17:21:58Z</time>
      </trkpt>
      <trkpt lat="49.03742" lon="1.12477">
        <ele>138</ele>
        <time>2017-04-06T17:22:00Z</time>
      </trkpt>
      <trkpt lat="49.03733" lon="1.12491">
        <ele>137.6</ele>
        <time>2017-04-06T17:22:03Z</time>
      </trkpt>
      <trkpt lat="49.03726" lon="1.12503">
        <ele>137.5</ele>
        <time>2017-04-06T17:22:05Z</time>
      </trkpt>
      <trkpt lat="49.03718" lon="1.12511">
        <ele>137.3</ele>
        <time>2017-04-06T17:22:07Z</time>
      </trkpt>
      <trkpt lat="49.03708" lon="1.1252">
        <ele>137.1</ele>
        <time>2017-04-06T17:22:09Z</time>
      </trkpt>
      <trkpt lat="49.03697" lon="1.12527">
        <ele>136.9</ele>
        <time>2017-04-06T17:22:11Z</time>
      </trkpt>
      <trkpt lat="49.03689" lon="1.12533">
        <ele>136.6</ele>
        <time>2017-04-06T17:22:13Z</time>
      </trkpt>
      <trkpt lat="49.03676" lon="1.12539">
        <ele>136.3</ele>
        <time>2017-04-06T17:22:16Z</time>
      </trkpt>
      <trkpt lat="49.03671" lon="1.12523">
        <ele>135.7</ele>
        <time>2017-04-06T17:22:21Z</time>
      </trkpt>
      <trkpt lat="49.03669" lon="1.12504">
        <ele>135.3</ele>
        <time>2017-04-06T17:22:24Z</time>
      </trkpt>
      <trkpt lat="49.03667" lon="1.12486">
        <ele>134.9</ele>
        <time>2017-04-06T17:22:26Z</time>
      </trkpt>
      <trkpt lat="49.03664" lon="1.12471">
        <ele>134.5</ele>
        <time>2017-04-06T17:22:28Z</time>
      </trkpt>
      <trkpt lat="49.03659" lon="1.12457">
        <ele>134.2</ele>
        <time>2017-04-06T17:22:30Z</time>
      </trkpt>
      <trkpt lat="49.03653" lon="1.12442">
        <ele>133.6</ele>
        <time>2017-04-06T17:22:33Z</time>
      </trkpt>
      <trkpt lat="49.03643" lon="1.12443">
        <ele>133.1</ele>
        <time>2017-04-06T17:22:36Z</time>
      </trkpt>
      <trkpt lat="49.03634" lon="1.12455">
        <ele>132.6</ele>
        <time>2017-04-06T17:22:38Z</time>
      </trkpt>
      <trkpt lat="49.03623" lon="1.12469">
        <ele>131.9</ele>
        <time>2017-04-06T17:22:40Z</time>
      </trkpt>
      <trkpt lat="49.03611" lon="1.12478">
        <ele>131.2</ele>
        <time>2017-04-06T17:22:42Z</time>
      </trkpt>
      <trkpt lat="49.036" lon="1.12486">
        <ele>130.6</ele>
        <time>2017-04-06T17:22:44Z</time>
      </trkpt>
      <trkpt lat="49.03592" lon="1.12496">
        <ele>130.1</ele>
        <time>2017-04-06T17:22:46Z</time>
      </trkpt>
      <trkpt lat="49.03583" lon="1.12507">
        <ele>129.7</ele>
        <time>2017-04-06T17:22:49Z</time>
      </trkpt>
      <trkpt lat="49.03574" lon="1.12515">
        <ele>129.5</ele>
        <time>2017-04-06T17:22:52Z</time>
      </trkpt>
      <trkpt lat="49.03565" lon="1.12524">
        <ele>129.8</ele>
        <time>2017-04-06T17:22:55Z</time>
      </trkpt>
      <trkpt lat="49.03556" lon="1.12532">
        <ele>130</ele>
        <time>2017-04-06T17:22:58Z</time>
      </trkpt>
      <trkpt lat="49.03544" lon="1.1254">
        <ele>130.3</ele>
        <time>2017-04-06T17:23:01Z</time>
      </trkpt>
      <trkpt lat="49.03538" lon="1.12555">
        <ele>130.5</ele>
        <time>2017-04-06T17:23:04Z</time>
      </trkpt>
      <trkpt lat="49.03534" lon="1.12569">
        <ele>130.7</ele>
        <time>2017-04-06T17:23:07Z</time>
      </trkpt>
      <trkpt lat="49.03537" lon="1.12583">
        <ele>130.8</ele>
        <time>2017-04-06T17:23:09Z</time>
      </trkpt>
      <trkpt lat="49.0354" lon="1.12601">
        <ele>130.9</ele>
        <time>2017-04-06T17:23:12Z</time>
      </trkpt>
      <trkpt lat="49.03544" lon="1.12616">
        <ele>130.9</ele>
        <time>2017-04-06T17:23:15Z</time>
      </trkpt>
      <trkpt lat="49.03552" lon="1.12629">
        <ele>131</ele>
        <time>2017-04-06T17:23:18Z</time>
      </trkpt>
      <trkpt lat="49.0355" lon="1.12646">
        <ele>131</ele>
        <time>2017-04-06T17:23:22Z</time>
      </trkpt>
      <trkpt lat="49.03549" lon="1.12661">
        <ele>131.1</ele>
        <time>2017-04-06T17:23:27Z</time>
      </trkpt>
      <trkpt lat="49.03556" lon="1.12674">
        <ele>131.1</ele>
        <time>2017-04-06T17:23:30Z</time>
      </trkpt>
      <trkpt lat="49.03561" lon="1.1269">
        <ele>131.2</ele>
        <time>2017-04-06T17:23:33Z</time>
      </trkpt>
      <trkpt lat="49.03554" lon="1.12702">
        <ele>131.3</ele>
        <time>2017-04-06T17:23:36Z</time>
      </trkpt>
      <trkpt lat="49.03544" lon="1.12707">
        <ele>131.4</ele>
        <time>2017-04-06T17:23:40Z</time>
      </trkpt>
      <trkpt lat="49.03537" lon="1.12693">
        <ele>131.5</ele>
        <time>2017-04-06T17:23:44Z</time>
      </trkpt>
      <trkpt lat="49.03535" lon="1.12677">
        <ele>131.6</ele>
        <time>2017-04-06T17:23:48Z</time>
      </trkpt>
      <trkpt lat="49.03532" lon="1.12662">
        <ele>131.4</ele>
        <time>2017-04-06T17:23:51Z</time>
      </trkpt>
      <trkpt lat="49.03521" lon="1.12668">
        <ele>131.3</ele>
        <time>2017-04-06T17:23:55Z</time>
      </trkpt>
      <trkpt lat="49.03512" lon="1.12678">
        <ele>131.2</ele>
        <time>2017-04-06T17:23:58Z</time>
      </trkpt>
      <trkpt lat="49.03504" lon="1.12691">
        <ele>131.1</ele>
        <time>2017-04-06T17:24:01Z</time>
      </trkpt>
      <trkpt lat="49.03503" lon="1.12707">
        <ele>131</ele>
        <time>2017-04-06T17:24:04Z</time>
      </trkpt>
      <trkpt lat="49.03502" lon="1.12725">
        <ele>131</ele>
        <time>2017-04-06T17:24:07Z</time>
      </trkpt>
      <trkpt lat="49.035" lon="1.12743">
        <ele>131.1</ele>
        <time>2017-04-06T17:24:10Z</time>
      </trkpt>
      <trkpt lat="49.03494" lon="1.12756">
        <ele>131.3</ele>
        <time>2017-04-06T17:24:13Z</time>
      </trkpt>
      <trkpt lat="49.03486" lon="1.12749">
        <ele>131.4</ele>
        <time>2017-04-06T17:24:16Z</time>
      </trkpt>
      <trkpt lat="49.03478" lon="1.1274">
        <ele>131.5</ele>
        <time>2017-04-06T17:24:18Z</time>
      </trkpt>
      <trkpt lat="49.03471" lon="1.12731">
        <ele>131.5</ele>
        <time>2017-04-06T17:24:20Z</time>
      </trkpt>
      <trkpt lat="49.03464" lon="1.12719">
        <ele>131.5</ele>
        <time>2017-04-06T17:24:22Z</time>
      </trkpt>
      <trkpt lat="49.03458" lon="1.12708">
        <ele>131.5</ele>
        <time>2017-04-06T17:24:24Z</time>
      </trkpt>
      <trkpt lat="49.03451" lon="1.12698">
        <ele>131.5</ele>
        <time>2017-04-06T17:24:26Z</time>
      </trkpt>
      <trkpt lat="49.03444" lon="1.12687">
        <ele>131.6</ele>
        <time>2017-04-06T17:24:28Z</time>
      </trkpt>
      <trkpt lat="49.03438" lon="1.12677">
        <ele>131.6</ele>
        <time>2017-04-06T17:24:30Z</time>
      </trkpt>
      <trkpt lat="49.0343" lon="1.12669">
        <ele>131.6</ele>
        <time>2017-04-06T17:24:32Z</time>
      </trkpt>
      <trkpt lat="49.03422" lon="1.12661">
        <ele>131.7</ele>
        <time>2017-04-06T17:24:34Z</time>
      </trkpt>
      <trkpt lat="49.03414" lon="1.12651">
        <ele>131.6</ele>
        <time>2017-04-06T17:24:36Z</time>
      </trkpt>
      <trkpt lat="49.03404" lon="1.12648">
        <ele>131.5</ele>
        <time>2017-04-06T17:24:38Z</time>
      </trkpt>
      <trkpt lat="49.03395" lon="1.12646">
        <ele>131.3</ele>
        <time>2017-04-06T17:24:40Z</time>
      </trkpt>
      <trkpt lat="49.03385" lon="1.12634">
        <ele>131.2</ele>
        <time>2017-04-06T17:24:43Z</time>
      </trkpt>
      <trkpt lat="49.03376" lon="1.12618">
        <ele>131.2</ele>
        <time>2017-04-06T17:24:46Z</time>
      </trkpt>
      <trkpt lat="49.03377" lon="1.12599">
        <ele>131.3</ele>
        <time>2017-04-06T17:24:49Z</time>
      </trkpt>
      <trkpt lat="49.03385" lon="1.12584">
        <ele>131.4</ele>
        <time>2017-04-06T17:24:52Z</time>
      </trkpt>
      <trkpt lat="49.03395" lon="1.12575">
        <ele>131.2</ele>
        <time>2017-04-06T17:24:55Z</time>
      </trkpt>
      <trkpt lat="49.03404" lon="1.12573">
        <ele>130.6</ele>
        <time>2017-04-06T17:24:58Z</time>
      </trkpt>
      <trkpt lat="49.03417" lon="1.12566">
        <ele>129.5</ele>
        <time>2017-04-06T17:25:02Z</time>
      </trkpt>
      <trkpt lat="49.03426" lon="1.12559">
        <ele>128.5</ele>
        <time>2017-04-06T17:25:04Z</time>
      </trkpt>
      <trkpt lat="49.03419" lon="1.12549">
        <ele>122.2</ele>
        <time>2017-04-06T17:25:41Z</time>
      </trkpt>
      <trkpt lat="49.03421" lon="1.12536">
        <ele>120.8</ele>
        <time>2017-04-06T17:25:46Z</time>
      </trkpt>
      <trkpt lat="49.03412" lon="1.12536">
        <ele>119.7</ele>
        <time>2017-04-06T17:25:50Z</time>
      </trkpt>
      <trkpt lat="49.03403" lon="1.12526">
        <ele>118.7</ele>
        <time>2017-04-06T17:25:53Z</time>
      </trkpt>
      <trkpt lat="49.03392" lon="1.12518">
        <ele>116.7</ele>
        <time>2017-04-06T17:25:57Z</time>
      </trkpt>
      <trkpt lat="49.03381" lon="1.12512">
        <ele>114.5</ele>
        <time>2017-04-06T17:26:01Z</time>
      </trkpt>
      <trkpt lat="49.0337" lon="1.12509">
        <ele>112.4</ele>
        <time>2017-04-06T17:26:05Z</time>
      </trkpt>
      <trkpt lat="49.0336" lon="1.12516">
        <ele>110.8</ele>
        <time>2017-04-06T17:26:09Z</time>
      </trkpt>
      <trkpt lat="49.03351" lon="1.12518">
        <ele>109.6</ele>
        <time>2017-04-06T17:26:13Z</time>
      </trkpt>
      <trkpt lat="49.03342" lon="1.12521">
        <ele>109.1</ele>
        <time>2017-04-06T17:26:15Z</time>
      </trkpt>
      <trkpt lat="49.03332" lon="1.12529">
        <ele>108.5</ele>
        <time>2017-04-06T17:26:18Z</time>
      </trkpt>
      <trkpt lat="49.03321" lon="1.1253">
        <ele>107.7</ele>
        <time>2017-04-06T17:26:21Z</time>
      </trkpt>
      <trkpt lat="49.03311" lon="1.12528">
        <ele>107.1</ele>
        <time>2017-04-06T17:26:23Z</time>
      </trkpt>
      <trkpt lat="49.033" lon="1.12527">
        <ele>105.7</ele>
        <time>2017-04-06T17:26:26Z</time>
      </trkpt>
      <trkpt lat="49.0329" lon="1.12524">
        <ele>104</ele>
        <time>2017-04-06T17:26:30Z</time>
      </trkpt>
      <trkpt lat="49.03277" lon="1.12522">
        <ele>102.1</ele>
        <time>2017-04-06T17:26:33Z</time>
      </trkpt>
      <trkpt lat="49.03265" lon="1.12518">
        <ele>100.9</ele>
        <time>2017-04-06T17:26:35Z</time>
      </trkpt>
      <trkpt lat="49.03255" lon="1.12513">
        <ele>99.7</ele>
        <time>2017-04-06T17:26:37Z</time>
      </trkpt>
      <trkpt lat="49.03242" lon="1.12506">
        <ele>98.4</ele>
        <time>2017-04-06T17:26:39Z</time>
      </trkpt>
      <trkpt lat="49.03233" lon="1.12497">
        <ele>95.8</ele>
        <time>2017-04-06T17:26:43Z</time>
      </trkpt>
      <trkpt lat="49.03223" lon="1.12492">
        <ele>93.5</ele>
        <time>2017-04-06T17:26:47Z</time>
      </trkpt>
      <trkpt lat="49.03232" lon="1.12484">
        <ele>88.7</ele>
        <time>2017-04-06T17:26:58Z</time>
      </trkpt>
      <trkpt lat="49.03241" lon="1.12482">
        <ele>87.8</ele>
        <time>2017-04-06T17:27:01Z</time>
      </trkpt>
      <trkpt lat="49.03252" lon="1.12478">
        <ele>87.1</ele>
        <time>2017-04-06T17:27:04Z</time>
      </trkpt>
      <trkpt lat="49.03264" lon="1.12477">
        <ele>86.5</ele>
        <time>2017-04-06T17:27:07Z</time>
      </trkpt>
      <trkpt lat="49.03277" lon="1.12477">
        <ele>86</ele>
        <time>2017-04-06T17:27:10Z</time>
      </trkpt>
      <trkpt lat="49.0329" lon="1.12472">
        <ele>85.7</ele>
        <time>2017-04-06T17:27:13Z</time>
      </trkpt>
      <trkpt lat="49.03298" lon="1.12465">
        <ele>85.4</ele>
        <time>2017-04-06T17:27:15Z</time>
      </trkpt>
      <trkpt lat="49.03306" lon="1.12457">
        <ele>85.2</ele>
        <time>2017-04-06T17:27:17Z</time>
      </trkpt>
      <trkpt lat="49.03314" lon="1.12448">
        <ele>85.1</ele>
        <time>2017-04-06T17:27:19Z</time>
      </trkpt>
      <trkpt lat="49.03319" lon="1.12436">
        <ele>84.9</ele>
        <time>2017-04-06T17:27:21Z</time>
      </trkpt>
      <trkpt lat="49.03321" lon="1.12421">
        <ele>84.8</ele>
        <time>2017-04-06T17:27:23Z</time>
      </trkpt>
      <trkpt lat="49.03322" lon="1.12406">
        <ele>84.7</ele>
        <time>2017-04-06T17:27:25Z</time>
      </trkpt>
      <trkpt lat="49.03322" lon="1.12389">
        <ele>84.6</ele>
        <time>2017-04-06T17:27:27Z</time>
      </trkpt>
      <trkpt lat="49.03322" lon="1.12373">
        <ele>84.6</ele>
        <time>2017-04-06T17:27:29Z</time>
      </trkpt>
      <trkpt lat="49.03323" lon="1.12358">
        <ele>84.5</ele>
        <time>2017-04-06T17:27:31Z</time>
      </trkpt>
      <trkpt lat="49.03324" lon="1.12343">
        <ele>84.6</ele>
        <time>2017-04-06T17:27:33Z</time>
      </trkpt>
      <trkpt lat="49.03325" lon="1.12328">
        <ele>84.6</ele>
        <time>2017-04-06T17:27:35Z</time>
      </trkpt>
      <trkpt lat="49.03328" lon="1.12313">
        <ele>84.6</ele>
        <time>2017-04-06T17:27:37Z</time>
      </trkpt>
      <trkpt lat="49.03333" lon="1.12303">
        <ele>84.6</ele>
        <time>2017-04-06T17:27:39Z</time>
      </trkpt>
      <trkpt lat="49.03342" lon="1.12287">
        <ele>84.8</ele>
        <time>2017-04-06T17:27:42Z</time>
      </trkpt>
      <trkpt lat="49.03351" lon="1.12273">
        <ele>84.9</ele>
        <time>2017-04-06T17:27:45Z</time>
      </trkpt>
      <trkpt lat="49.03361" lon="1.12261">
        <ele>85.2</ele>
        <time>2017-04-06T17:27:48Z</time>
      </trkpt>
      <trkpt lat="49.03371" lon="1.12248">
        <ele>85.5</ele>
        <time>2017-04-06T17:27:51Z</time>
      </trkpt>
      <trkpt lat="49.03382" lon="1.12236">
        <ele>85.7</ele>
        <time>2017-04-06T17:27:54Z</time>
      </trkpt>
      <trkpt lat="49.03389" lon="1.12227">
        <ele>85.9</ele>
        <time>2017-04-06T17:27:56Z</time>
      </trkpt>
      <trkpt lat="49.03396" lon="1.12216">
        <ele>86</ele>
        <time>2017-04-06T17:27:58Z</time>
      </trkpt>
      <trkpt lat="49.03403" lon="1.12205">
        <ele>86.1</ele>
        <time>2017-04-06T17:28:00Z</time>
      </trkpt>
      <trkpt lat="49.0341" lon="1.12194">
        <ele>86.2</ele>
        <time>2017-04-06T17:28:02Z</time>
      </trkpt>
      <trkpt lat="49.03417" lon="1.12183">
        <ele>86.3</ele>
        <time>2017-04-06T17:28:04Z</time>
      </trkpt>
      <trkpt lat="49.03423" lon="1.12172">
        <ele>86.4</ele>
        <time>2017-04-06T17:28:06Z</time>
      </trkpt>
      <trkpt lat="49.03428" lon="1.12161">
        <ele>86.5</ele>
        <time>2017-04-06T17:28:08Z</time>
      </trkpt>
      <trkpt lat="49.03436" lon="1.12144">
        <ele>86.9</ele>
        <time>2017-04-06T17:28:11Z</time>
      </trkpt>
      <trkpt lat="49.03443" lon="1.12128">
        <ele>87.4</ele>
        <time>2017-04-06T17:28:14Z</time>
      </trkpt>
      <trkpt lat="49.03449" lon="1.12112">
        <ele>88</ele>
        <time>2017-04-06T17:28:17Z</time>
      </trkpt>
      <trkpt lat="49.03455" lon="1.12097">
        <ele>88.6</ele>
        <time>2017-04-06T17:28:20Z</time>
      </trkpt>
      <trkpt lat="49.03459" lon="1.12081">
        <ele>89.5</ele>
        <time>2017-04-06T17:28:23Z</time>
      </trkpt>
      <trkpt lat="49.03466" lon="1.12066">
        <ele>90.4</ele>
        <time>2017-04-06T17:28:26Z</time>
      </trkpt>
      <trkpt lat="49.03457" lon="1.12061">
        <ele>91.7</ele>
        <time>2017-04-06T17:28:30Z</time>
      </trkpt>
      <trkpt lat="49.0345" lon="1.12078">
        <ele>92.5</ele>
        <time>2017-04-06T17:28:33Z</time>
      </trkpt>
      <trkpt lat="49.03444" lon="1.12089">
        <ele>93</ele>
        <time>2017-04-06T17:28:35Z</time>
      </trkpt>
      <trkpt lat="49.03437" lon="1.12101">
        <ele>93.4</ele>
        <time>2017-04-06T17:28:37Z</time>
      </trkpt>
      <trkpt lat="49.03431" lon="1.12114">
        <ele>93.7</ele>
        <time>2017-04-06T17:28:39Z</time>
      </trkpt>
      <trkpt lat="49.03424" lon="1.12127">
        <ele>94.1</ele>
        <time>2017-04-06T17:28:41Z</time>
      </trkpt>
      <trkpt lat="49.03417" lon="1.1214">
        <ele>94.3</ele>
        <time>2017-04-06T17:28:43Z</time>
      </trkpt>
      <trkpt lat="49.0341" lon="1.12152">
        <ele>94.6</ele>
        <time>2017-04-06T17:28:45Z</time>
      </trkpt>
      <trkpt lat="49.03403" lon="1.12164">
        <ele>94.8</ele>
        <time>2017-04-06T17:28:47Z</time>
      </trkpt>
      <trkpt lat="49.03395" lon="1.12176">
        <ele>95</ele>
        <time>2017-04-06T17:28:49Z</time>
      </trkpt>
      <trkpt lat="49.03387" lon="1.12188">
        <ele>95.2</ele>
        <time>2017-04-06T17:28:51Z</time>
      </trkpt>
      <trkpt lat="49.03379" lon="1.122">
        <ele>95.3</ele>
        <time>2017-04-06T17:28:53Z</time>
      </trkpt>
      <trkpt lat="49.03371" lon="1.12211">
        <ele>95.4</ele>
        <time>2017-04-06T17:28:55Z</time>
      </trkpt>
      <trkpt lat="49.03363" lon="1.12221">
        <ele>95.5</ele>
        <time>2017-04-06T17:28:57Z</time>
      </trkpt>
      <trkpt lat="49.03355" lon="1.12233">
        <ele>95.6</ele>
        <time>2017-04-06T17:28:59Z</time>
      </trkpt>
      <trkpt lat="49.03346" lon="1.12244">
        <ele>95.7</ele>
        <time>2017-04-06T17:29:01Z</time>
      </trkpt>
      <trkpt lat="49.03336" lon="1.12254">
        <ele>95.7</ele>
        <time>2017-04-06T17:29:03Z</time>
      </trkpt>
      <trkpt lat="49.03325" lon="1.12264">
        <ele>95.7</ele>
        <time>2017-04-06T17:29:05Z</time>
      </trkpt>
      <trkpt lat="49.03314" lon="1.12273">
        <ele>95.6</ele>
        <time>2017-04-06T17:29:07Z</time>
      </trkpt>
      <trkpt lat="49.03304" lon="1.12283">
        <ele>95.5</ele>
        <time>2017-04-06T17:29:09Z</time>
      </trkpt>
      <trkpt lat="49.03293" lon="1.12292">
        <ele>95.4</ele>
        <time>2017-04-06T17:29:11Z</time>
      </trkpt>
      <trkpt lat="49.03283" lon="1.123">
        <ele>95.4</ele>
        <time>2017-04-06T17:29:13Z</time>
      </trkpt>
      <trkpt lat="49.03272" lon="1.12309">
        <ele>95.3</ele>
        <time>2017-04-06T17:29:15Z</time>
      </trkpt>
      <trkpt lat="49.03262" lon="1.12318">
        <ele>95.3</ele>
        <time>2017-04-06T17:29:17Z</time>
      </trkpt>
      <trkpt lat="49.03252" lon="1.12324">
        <ele>95.2</ele>
        <time>2017-04-06T17:29:19Z</time>
      </trkpt>
      <trkpt lat="49.03241" lon="1.1233">
        <ele>95.2</ele>
        <time>2017-04-06T17:29:21Z</time>
      </trkpt>
      <trkpt lat="49.0323" lon="1.12336">
        <ele>95.1</ele>
        <time>2017-04-06T17:29:23Z</time>
      </trkpt>
      <trkpt lat="49.03216" lon="1.12344">
        <ele>95</ele>
        <time>2017-04-06T17:29:26Z</time>
      </trkpt>
      <trkpt lat="49.03203" lon="1.12351">
        <ele>95</ele>
        <time>2017-04-06T17:29:28Z</time>
      </trkpt>
      <trkpt lat="49.0319" lon="1.12357">
        <ele>94.9</ele>
        <time>2017-04-06T17:29:30Z</time>
      </trkpt>
      <trkpt lat="49.03177" lon="1.12363">
        <ele>94.8</ele>
        <time>2017-04-06T17:29:32Z</time>
      </trkpt>
      <trkpt lat="49.03165" lon="1.12367">
        <ele>94.7</ele>
        <time>2017-04-06T17:29:34Z</time>
      </trkpt>
      <trkpt lat="49.03152" lon="1.12371">
        <ele>94.6</ele>
        <time>2017-04-06T17:29:36Z</time>
      </trkpt>
      <trkpt lat="49.0314" lon="1.12375">
        <ele>94.6</ele>
        <time>2017-04-06T17:29:38Z</time>
      </trkpt>
      <trkpt lat="49.03127" lon="1.12376">
        <ele>94.5</ele>
        <time>2017-04-06T17:29:40Z</time>
      </trkpt>
      <trkpt lat="49.03115" lon="1.12378">
        <ele>94.4</ele>
        <time>2017-04-06T17:29:42Z</time>
      </trkpt>
      <trkpt lat="49.03102" lon="1.12379">
        <ele>94.4</ele>
        <time>2017-04-06T17:29:44Z</time>
      </trkpt>
      <trkpt lat="49.03089" lon="1.1238">
        <ele>94.3</ele>
        <time>2017-04-06T17:29:46Z</time>
      </trkpt>
      <trkpt lat="49.03076" lon="1.1238">
        <ele>94.2</ele>
        <time>2017-04-06T17:29:48Z</time>
      </trkpt>
      <trkpt lat="49.03062" lon="1.1238">
        <ele>94.1</ele>
        <time>2017-04-06T17:29:50Z</time>
      </trkpt>
      <trkpt lat="49.03048" lon="1.12378">
        <ele>93.9</ele>
        <time>2017-04-06T17:29:52Z</time>
      </trkpt>
      <trkpt lat="49.03035" lon="1.12377">
        <ele>93.8</ele>
        <time>2017-04-06T17:29:54Z</time>
      </trkpt>
      <trkpt lat="49.03019" lon="1.12375">
        <ele>93.7</ele>
        <time>2017-04-06T17:29:56Z</time>
      </trkpt>
      <trkpt lat="49.03004" lon="1.12373">
        <ele>93.6</ele>
        <time>2017-04-06T17:29:58Z</time>
      </trkpt>
      <trkpt lat="49.02989" lon="1.12371">
        <ele>93.5</ele>
        <time>2017-04-06T17:30:00Z</time>
      </trkpt>
      <trkpt lat="49.02973" lon="1.12367">
        <ele>93.4</ele>
        <time>2017-04-06T17:30:02Z</time>
      </trkpt>
      <trkpt lat="49.02958" lon="1.12364">
        <ele>93.2</ele>
        <time>2017-04-06T17:30:04Z</time>
      </trkpt>
      <trkpt lat="49.02942" lon="1.12361">
        <ele>93.1</ele>
        <time>2017-04-06T17:30:06Z</time>
      </trkpt>
      <trkpt lat="49.02927" lon="1.12359">
        <ele>92.9</ele>
        <time>2017-04-06T17:30:08Z</time>
      </trkpt>
      <trkpt lat="49.02913" lon="1.12356">
        <ele>92.8</ele>
        <time>2017-04-06T17:30:10Z</time>
      </trkpt>
      <trkpt lat="49.02898" lon="1.12354">
        <ele>92.6</ele>
        <time>2017-04-06T17:30:12Z</time>
      </trkpt>
      <trkpt lat="49.02883" lon="1.12351">
        <ele>92.4</ele>
        <time>2017-04-06T17:30:14Z</time>
      </trkpt>
      <trkpt lat="49.02869" lon="1.12348">
        <ele>92.2</ele>
        <time>2017-04-06T17:30:16Z</time>
      </trkpt>
      <trkpt lat="49.02854" lon="1.12345">
        <ele>92.1</ele>
        <time>2017-04-06T17:30:18Z</time>
      </trkpt>
      <trkpt lat="49.02839" lon="1.12342">
        <ele>91.8</ele>
        <time>2017-04-06T17:30:20Z</time>
      </trkpt>
      <trkpt lat="49.02826" lon="1.1234">
        <ele>91.6</ele>
        <time>2017-04-06T17:30:22Z</time>
      </trkpt>
      <trkpt lat="49.02811" lon="1.12338">
        <ele>91.4</ele>
        <time>2017-04-06T17:30:24Z</time>
      </trkpt>
      <trkpt lat="49.02796" lon="1.12335">
        <ele>91.2</ele>
        <time>2017-04-06T17:30:26Z</time>
      </trkpt>
      <trkpt lat="49.02781" lon="1.12332">
        <ele>91.1</ele>
        <time>2017-04-06T17:30:28Z</time>
      </trkpt>
      <trkpt lat="49.02765" lon="1.12329">
        <ele>90.9</ele>
        <time>2017-04-06T17:30:30Z</time>
      </trkpt>
      <trkpt lat="49.02749" lon="1.12327">
        <ele>90.8</ele>
        <time>2017-04-06T17:30:32Z</time>
      </trkpt>
      <trkpt lat="49.02734" lon="1.12325">
        <ele>90.7</ele>
        <time>2017-04-06T17:30:34Z</time>
      </trkpt>
      <trkpt lat="49.02719" lon="1.12322">
        <ele>90.5</ele>
        <time>2017-04-06T17:30:36Z</time>
      </trkpt>
      <trkpt lat="49.02704" lon="1.12319">
        <ele>90.3</ele>
        <time>2017-04-06T17:30:38Z</time>
      </trkpt>
      <trkpt lat="49.02689" lon="1.12316">
        <ele>90.1</ele>
        <time>2017-04-06T17:30:40Z</time>
      </trkpt>
      <trkpt lat="49.02674" lon="1.12313">
        <ele>90</ele>
        <time>2017-04-06T17:30:42Z</time>
      </trkpt>
      <trkpt lat="49.0266" lon="1.1231">
        <ele>89.9</ele>
        <time>2017-04-06T17:30:44Z</time>
      </trkpt>
      <trkpt lat="49.02645" lon="1.12307">
        <ele>89.8</ele>
        <time>2017-04-06T17:30:46Z</time>
      </trkpt>
      <trkpt lat="49.0263" lon="1.12305">
        <ele>89.5</ele>
        <time>2017-04-06T17:30:48Z</time>
      </trkpt>
      <trkpt lat="49.02616" lon="1.12304">
        <ele>89.3</ele>
        <time>2017-04-06T17:30:50Z</time>
      </trkpt>
      <trkpt lat="49.02602" lon="1.12303">
        <ele>89.2</ele>
        <time>2017-04-06T17:30:52Z</time>
      </trkpt>
      <trkpt lat="49.02588" lon="1.12304">
        <ele>89</ele>
        <time>2017-04-06T17:30:54Z</time>
      </trkpt>
      <trkpt lat="49.02573" lon="1.12304">
        <ele>88.9</ele>
        <time>2017-04-06T17:30:56Z</time>
      </trkpt>
      <trkpt lat="49.02557" lon="1.12304">
        <ele>88.8</ele>
        <time>2017-04-06T17:30:58Z</time>
      </trkpt>
      <trkpt lat="49.02543" lon="1.12305">
        <ele>88.7</ele>
        <time>2017-04-06T17:31:00Z</time>
      </trkpt>
      <trkpt lat="49.02528" lon="1.12307">
        <ele>88.5</ele>
        <time>2017-04-06T17:31:02Z</time>
      </trkpt>
      <trkpt lat="49.02514" lon="1.12311">
        <ele>88.4</ele>
        <time>2017-04-06T17:31:04Z</time>
      </trkpt>
      <trkpt lat="49.025" lon="1.12314">
        <ele>88.2</ele>
        <time>2017-04-06T17:31:06Z</time>
      </trkpt>
      <trkpt lat="49.02486" lon="1.12317">
        <ele>88.1</ele>
        <time>2017-04-06T17:31:08Z</time>
      </trkpt>
      <trkpt lat="49.02472" lon="1.12322">
        <ele>87.9</ele>
        <time>2017-04-06T17:31:10Z</time>
      </trkpt>
      <trkpt lat="49.02456" lon="1.12328">
        <ele>87.8</ele>
        <time>2017-04-06T17:31:12Z</time>
      </trkpt>
      <trkpt lat="49.02441" lon="1.12336">
        <ele>87.6</ele>
        <time>2017-04-06T17:31:14Z</time>
      </trkpt>
      <trkpt lat="49.02424" lon="1.12346">
        <ele>87.4</ele>
        <time>2017-04-06T17:31:16Z</time>
      </trkpt>
      <trkpt lat="49.02409" lon="1.12355">
        <ele>87.1</ele>
        <time>2017-04-06T17:31:18Z</time>
      </trkpt>
      <trkpt lat="49.02393" lon="1.12366">
        <ele>86.9</ele>
        <time>2017-04-06T17:31:20Z</time>
      </trkpt>
      <trkpt lat="49.02379" lon="1.12376">
        <ele>86.8</ele>
        <time>2017-04-06T17:31:22Z</time>
      </trkpt>
      <trkpt lat="49.02368" lon="1.12385">
        <ele>86.6</ele>
        <time>2017-04-06T17:31:24Z</time>
      </trkpt>
      <trkpt lat="49.02355" lon="1.12398">
        <ele>86.5</ele>
        <time>2017-04-06T17:31:26Z</time>
      </trkpt>
      <trkpt lat="49.02342" lon="1.1241">
        <ele>86.3</ele>
        <time>2017-04-06T17:31:28Z</time>
      </trkpt>
      <trkpt lat="49.02329" lon="1.12424">
        <ele>86.2</ele>
        <time>2017-04-06T17:31:30Z</time>
      </trkpt>
      <trkpt lat="49.02317" lon="1.12438">
        <ele>86</ele>
        <time>2017-04-06T17:31:32Z</time>
      </trkpt>
      <trkpt lat="49.02305" lon="1.12452">
        <ele>85.9</ele>
        <time>2017-04-06T17:31:34Z</time>
      </trkpt>
      <trkpt lat="49.02294" lon="1.12466">
        <ele>85.7</ele>
        <time>2017-04-06T17:31:36Z</time>
      </trkpt>
      <trkpt lat="49.02282" lon="1.12481">
        <ele>85.6</ele>
        <time>2017-04-06T17:31:38Z</time>
      </trkpt>
      <trkpt lat="49.02271" lon="1.12497">
        <ele>85.5</ele>
        <time>2017-04-06T17:31:40Z</time>
      </trkpt>
      <trkpt lat="49.02262" lon="1.12512">
        <ele>85.3</ele>
        <time>2017-04-06T17:31:42Z</time>
      </trkpt>
      <trkpt lat="49.02252" lon="1.12526">
        <ele>85.2</ele>
        <time>2017-04-06T17:31:44Z</time>
      </trkpt>
      <trkpt lat="49.02241" lon="1.12542">
        <ele>85.1</ele>
        <time>2017-04-06T17:31:46Z</time>
      </trkpt>
      <trkpt lat="49.0223" lon="1.12561">
        <ele>85</ele>
        <time>2017-04-06T17:31:48Z</time>
      </trkpt>
      <trkpt lat="49.02219" lon="1.12579">
        <ele>84.8</ele>
        <time>2017-04-06T17:31:50Z</time>
      </trkpt>
      <trkpt lat="49.02207" lon="1.12596">
        <ele>84.7</ele>
        <time>2017-04-06T17:31:52Z</time>
      </trkpt>
      <trkpt lat="49.02196" lon="1.12614">
        <ele>84.6</ele>
        <time>2017-04-06T17:31:54Z</time>
      </trkpt>
      <trkpt lat="49.02185" lon="1.12631">
        <ele>84.4</ele>
        <time>2017-04-06T17:31:56Z</time>
      </trkpt>
      <trkpt lat="49.02175" lon="1.12647">
        <ele>84.3</ele>
        <time>2017-04-06T17:31:58Z</time>
      </trkpt>
      <trkpt lat="49.02165" lon="1.12663">
        <ele>84.2</ele>
        <time>2017-04-06T17:32:00Z</time>
      </trkpt>
      <trkpt lat="49.02155" lon="1.12678">
        <ele>84.1</ele>
        <time>2017-04-06T17:32:02Z</time>
      </trkpt>
      <trkpt lat="49.02145" lon="1.12694">
        <ele>84</ele>
        <time>2017-04-06T17:32:04Z</time>
      </trkpt>
      <trkpt lat="49.02136" lon="1.12708">
        <ele>83.9</ele>
        <time>2017-04-06T17:32:06Z</time>
      </trkpt>
      <trkpt lat="49.02126" lon="1.12723">
        <ele>83.8</ele>
        <time>2017-04-06T17:32:08Z</time>
      </trkpt>
      <trkpt lat="49.02115" lon="1.12736">
        <ele>83.8</ele>
        <time>2017-04-06T17:32:10Z</time>
      </trkpt>
      <trkpt lat="49.02104" lon="1.1275">
        <ele>83.7</ele>
        <time>2017-04-06T17:32:12Z</time>
      </trkpt>
      <trkpt lat="49.02093" lon="1.12764">
        <ele>83.6</ele>
        <time>2017-04-06T17:32:14Z</time>
      </trkpt>
      <trkpt lat="49.02082" lon="1.12777">
        <ele>83.6</ele>
        <time>2017-04-06T17:32:16Z</time>
      </trkpt>
      <trkpt lat="49.02072" lon="1.1279">
        <ele>83.5</ele>
        <time>2017-04-06T17:32:18Z</time>
      </trkpt>
      <trkpt lat="49.0206" lon="1.12803">
        <ele>83.5</ele>
        <time>2017-04-06T17:32:20Z</time>
      </trkpt>
      <trkpt lat="49.02049" lon="1.12814">
        <ele>83.5</ele>
        <time>2017-04-06T17:32:22Z</time>
      </trkpt>
      <trkpt lat="49.02038" lon="1.12825">
        <ele>83.4</ele>
        <time>2017-04-06T17:32:24Z</time>
      </trkpt>
      <trkpt lat="49.02027" lon="1.12836">
        <ele>83.4</ele>
        <time>2017-04-06T17:32:26Z</time>
      </trkpt>
      <trkpt lat="49.02017" lon="1.12846">
        <ele>83.4</ele>
        <time>2017-04-06T17:32:28Z</time>
      </trkpt>
      <trkpt lat="49.02005" lon="1.12856">
        <ele>83.3</ele>
        <time>2017-04-06T17:32:30Z</time>
      </trkpt>
      <trkpt lat="49.01993" lon="1.12866">
        <ele>83.3</ele>
        <time>2017-04-06T17:32:32Z</time>
      </trkpt>
      <trkpt lat="49.01981" lon="1.12875">
        <ele>83.3</ele>
        <time>2017-04-06T17:32:34Z</time>
      </trkpt>
      <trkpt lat="49.01969" lon="1.12885">
        <ele>83.3</ele>
        <time>2017-04-06T17:32:36Z</time>
      </trkpt>
      <trkpt lat="49.01957" lon="1.12894">
        <ele>83.2</ele>
        <time>2017-04-06T17:32:38Z</time>
      </trkpt>
      <trkpt lat="49.01946" lon="1.12903">
        <ele>83.2</ele>
        <time>2017-04-06T17:32:40Z</time>
      </trkpt>
      <trkpt lat="49.01935" lon="1.12913">
        <ele>83.2</ele>
        <time>2017-04-06T17:32:42Z</time>
      </trkpt>
      <trkpt lat="49.01924" lon="1.12921">
        <ele>83.2</ele>
        <time>2017-04-06T17:32:44Z</time>
      </trkpt>
      <trkpt lat="49.01913" lon="1.1293">
        <ele>83.2</ele>
        <time>2017-04-06T17:32:46Z</time>
      </trkpt>
      <trkpt lat="49.01902" lon="1.1294">
        <ele>83.2</ele>
        <time>2017-04-06T17:32:48Z</time>
      </trkpt>
      <trkpt lat="49.0189" lon="1.1295">
        <ele>83.3</ele>
        <time>2017-04-06T17:32:50Z</time>
      </trkpt>
      <trkpt lat="49.01879" lon="1.12959">
        <ele>83.3</ele>
        <time>2017-04-06T17:32:52Z</time>
      </trkpt>
      <trkpt lat="49.01868" lon="1.12969">
        <ele>83.4</ele>
        <time>2017-04-06T17:32:54Z</time>
      </trkpt>
      <trkpt lat="49.01857" lon="1.12979">
        <ele>83.5</ele>
        <time>2017-04-06T17:32:56Z</time>
      </trkpt>
      <trkpt lat="49.01847" lon="1.12989">
        <ele>83.7</ele>
        <time>2017-04-06T17:32:58Z</time>
      </trkpt>
      <trkpt lat="49.01837" lon="1.13">
        <ele>83.8</ele>
        <time>2017-04-06T17:33:00Z</time>
      </trkpt>
      <trkpt lat="49.01827" lon="1.13011">
        <ele>84</ele>
        <time>2017-04-06T17:33:02Z</time>
      </trkpt>
      <trkpt lat="49.01817" lon="1.13023">
        <ele>84.1</ele>
        <time>2017-04-06T17:33:04Z</time>
      </trkpt>
      <trkpt lat="49.01807" lon="1.13035">
        <ele>84.2</ele>
        <time>2017-04-06T17:33:06Z</time>
      </trkpt>
      <trkpt lat="49.01797" lon="1.13047">
        <ele>84.4</ele>
        <time>2017-04-06T17:33:08Z</time>
      </trkpt>
      <trkpt lat="49.01788" lon="1.1306">
        <ele>84.5</ele>
        <time>2017-04-06T17:33:10Z</time>
      </trkpt>
      <trkpt lat="49.01779" lon="1.13073">
        <ele>84.6</ele>
        <time>2017-04-06T17:33:12Z</time>
      </trkpt>
      <trkpt lat="49.0177" lon="1.13087">
        <ele>84.7</ele>
        <time>2017-04-06T17:33:14Z</time>
      </trkpt>
      <trkpt lat="49.01761" lon="1.13101">
        <ele>84.8</ele>
        <time>2017-04-06T17:33:16Z</time>
      </trkpt>
      <trkpt lat="49.01753" lon="1.13116">
        <ele>85</ele>
        <time>2017-04-06T17:33:18Z</time>
      </trkpt>
      <trkpt lat="49.01745" lon="1.13131">
        <ele>85.1</ele>
        <time>2017-04-06T17:33:20Z</time>
      </trkpt>
      <trkpt lat="49.01737" lon="1.13147">
        <ele>85.2</ele>
        <time>2017-04-06T17:33:22Z</time>
      </trkpt>
      <trkpt lat="49.01729" lon="1.13163">
        <ele>85.3</ele>
        <time>2017-04-06T17:33:24Z</time>
      </trkpt>
      <trkpt lat="49.01722" lon="1.13179">
        <ele>85.5</ele>
        <time>2017-04-06T17:33:26Z</time>
      </trkpt>
      <trkpt lat="49.01714" lon="1.13195">
        <ele>85.6</ele>
        <time>2017-04-06T17:33:28Z</time>
      </trkpt>
      <trkpt lat="49.01708" lon="1.13211">
        <ele>85.8</ele>
        <time>2017-04-06T17:33:30Z</time>
      </trkpt>
      <trkpt lat="49.01702" lon="1.13227">
        <ele>85.9</ele>
        <time>2017-04-06T17:33:32Z</time>
      </trkpt>
      <trkpt lat="49.01696" lon="1.13244">
        <ele>86.1</ele>
        <time>2017-04-06T17:33:34Z</time>
      </trkpt>
      <trkpt lat="49.0169" lon="1.13262">
        <ele>86.3</ele>
        <time>2017-04-06T17:33:36Z</time>
      </trkpt>
      <trkpt lat="49.01686" lon="1.13279">
        <ele>86.5</ele>
        <time>2017-04-06T17:33:38Z</time>
      </trkpt>
      <trkpt lat="49.01681" lon="1.13294">
        <ele>86.6</ele>
        <time>2017-04-06T17:33:40Z</time>
      </trkpt>
      <trkpt lat="49.01677" lon="1.13312">
        <ele>86.8</ele>
        <time>2017-04-06T17:33:42Z</time>
      </trkpt>
      <trkpt lat="49.01672" lon="1.1333">
        <ele>87</ele>
        <time>2017-04-06T17:33:44Z</time>
      </trkpt>
      <trkpt lat="49.01668" lon="1.1335">
        <ele>87.2</ele>
        <time>2017-04-06T17:33:46Z</time>
      </trkpt>
      <trkpt lat="49.01663" lon="1.1337">
        <ele>87.4</ele>
        <time>2017-04-06T17:33:48Z</time>
      </trkpt>
      <trkpt lat="49.01659" lon="1.13389">
        <ele>87.6</ele>
        <time>2017-04-06T17:33:50Z</time>
      </trkpt>
      <trkpt lat="49.01656" lon="1.13407">
        <ele>87.7</ele>
        <time>2017-04-06T17:33:52Z</time>
      </trkpt>
      <trkpt lat="49.01653" lon="1.13424">
        <ele>87.9</ele>
        <time>2017-04-06T17:33:54Z</time>
      </trkpt>
      <trkpt lat="49.0165" lon="1.13439">
        <ele>88</ele>
        <time>2017-04-06T17:33:56Z</time>
      </trkpt>
      <trkpt lat="49.01648" lon="1.13453">
        <ele>88.2</ele>
        <time>2017-04-06T17:33:58Z</time>
      </trkpt>
      <trkpt lat="49.01647" lon="1.13468">
        <ele>88.3</ele>
        <time>2017-04-06T17:34:00Z</time>
      </trkpt>
      <trkpt lat="49.01646" lon="1.13488">
        <ele>88.4</ele>
        <time>2017-04-06T17:34:02Z</time>
      </trkpt>
      <trkpt lat="49.01646" lon="1.13506">
        <ele>88.5</ele>
        <time>2017-04-06T17:34:04Z</time>
      </trkpt>
      <trkpt lat="49.01646" lon="1.13524">
        <ele>88.6</ele>
        <time>2017-04-06T17:34:06Z</time>
      </trkpt>
      <trkpt lat="49.01647" lon="1.1354">
        <ele>88.7</ele>
        <time>2017-04-06T17:34:08Z</time>
      </trkpt>
      <trkpt lat="49.01646" lon="1.13556">
        <ele>88.8</ele>
        <time>2017-04-06T17:34:10Z</time>
      </trkpt>
      <trkpt lat="49.01647" lon="1.13571">
        <ele>88.8</ele>
        <time>2017-04-06T17:34:12Z</time>
      </trkpt>
      <trkpt lat="49.01647" lon="1.13585">
        <ele>89</ele>
        <time>2017-04-06T17:34:14Z</time>
      </trkpt>
      <trkpt lat="49.01647" lon="1.13606">
        <ele>89.2</ele>
        <time>2017-04-06T17:34:17Z</time>
      </trkpt>
      <trkpt lat="49.01647" lon="1.13627">
        <ele>89.3</ele>
        <time>2017-04-06T17:34:20Z</time>
      </trkpt>
      <trkpt lat="49.01648" lon="1.13647">
        <ele>89.4</ele>
        <time>2017-04-06T17:34:23Z</time>
      </trkpt>
      <trkpt lat="49.01649" lon="1.13663">
        <ele>89.5</ele>
        <time>2017-04-06T17:34:25Z</time>
      </trkpt>
      <trkpt lat="49.0164" lon="1.13678">
        <ele>89.5</ele>
        <time>2017-04-06T17:34:28Z</time>
      </trkpt>
      <trkpt lat="49.0163" lon="1.13681">
        <ele>89.6</ele>
        <time>2017-04-06T17:34:30Z</time>
      </trkpt>
      <trkpt lat="49.01619" lon="1.13685">
        <ele>89.4</ele>
        <time>2017-04-06T17:34:32Z</time>
      </trkpt>
      <trkpt lat="49.01607" lon="1.13684">
        <ele>89.4</ele>
        <time>2017-04-06T17:34:35Z</time>
      </trkpt>
      <trkpt lat="49.01597" lon="1.1368">
        <ele>89.7</ele>
        <time>2017-04-06T17:34:39Z</time>
      </trkpt>
      <trkpt lat="49.01587" lon="1.13675">
        <ele>90.2</ele>
        <time>2017-04-06T17:34:43Z</time>
      </trkpt>
      <trkpt lat="49.01576" lon="1.1368">
        <ele>91.1</ele>
        <time>2017-04-06T17:34:48Z</time>
      </trkpt>
      <trkpt lat="49.01566" lon="1.13689">
        <ele>92</ele>
        <time>2017-04-06T17:34:53Z</time>
      </trkpt>
      <trkpt lat="49.01561" lon="1.13702">
        <ele>92.5</ele>
        <time>2017-04-06T17:34:56Z</time>
      </trkpt>
      <trkpt lat="49.01561" lon="1.13716">
        <ele>93.2</ele>
        <time>2017-04-06T17:35:00Z</time>
      </trkpt>
      <trkpt lat="49.01565" lon="1.13732">
        <ele>93.9</ele>
        <time>2017-04-06T17:35:04Z</time>
      </trkpt>
      <trkpt lat="49.01571" lon="1.13744">
        <ele>94.6</ele>
        <time>2017-04-06T17:35:08Z</time>
      </trkpt>
      <trkpt lat="49.01576" lon="1.13756">
        <ele>95.2</ele>
        <time>2017-04-06T17:35:11Z</time>
      </trkpt>
      <trkpt lat="49.01581" lon="1.13769">
        <ele>95.7</ele>
        <time>2017-04-06T17:35:14Z</time>
      </trkpt>
      <trkpt lat="49.01586" lon="1.13782">
        <ele>96.4</ele>
        <time>2017-04-06T17:35:18Z</time>
      </trkpt>
      <trkpt lat="49.01592" lon="1.13795">
        <ele>97.1</ele>
        <time>2017-04-06T17:35:22Z</time>
      </trkpt>
      <trkpt lat="49.01595" lon="1.13812">
        <ele>97.9</ele>
        <time>2017-04-06T17:35:27Z</time>
      </trkpt>
      <trkpt lat="49.01598" lon="1.13826">
        <ele>98.5</ele>
        <time>2017-04-06T17:35:31Z</time>
      </trkpt>
      <trkpt lat="49.01601" lon="1.13845">
        <ele>99</ele>
        <time>2017-04-06T17:35:35Z</time>
      </trkpt>
      <trkpt lat="49.016" lon="1.13858">
        <ele>99.3</ele>
        <time>2017-04-06T17:35:38Z</time>
      </trkpt>
      <trkpt lat="49.01602" lon="1.13875">
        <ele>99.7</ele>
        <time>2017-04-06T17:35:42Z</time>
      </trkpt>
      <trkpt lat="49.01604" lon="1.13889">
        <ele>100.1</ele>
        <time>2017-04-06T17:35:46Z</time>
      </trkpt>
      <trkpt lat="49.01608" lon="1.13904">
        <ele>100.3</ele>
        <time>2017-04-06T17:35:49Z</time>
      </trkpt>
      <trkpt lat="49.0161" lon="1.13919">
        <ele>100.6</ele>
        <time>2017-04-06T17:35:52Z</time>
      </trkpt>
      <trkpt lat="49.01614" lon="1.13933">
        <ele>100.7</ele>
        <time>2017-04-06T17:35:55Z</time>
      </trkpt>
      <trkpt lat="49.01617" lon="1.13948">
        <ele>100.9</ele>
        <time>2017-04-06T17:35:58Z</time>
      </trkpt>
      <trkpt lat="49.0162" lon="1.13964">
        <ele>101.4</ele>
        <time>2017-04-06T17:36:02Z</time>
      </trkpt>
      <trkpt lat="49.01622" lon="1.13978">
        <ele>101.7</ele>
        <time>2017-04-06T17:36:05Z</time>
      </trkpt>
      <trkpt lat="49.01624" lon="1.13994">
        <ele>102.4</ele>
        <time>2017-04-06T17:36:08Z</time>
      </trkpt>
      <trkpt lat="49.01622" lon="1.14009">
        <ele>102.6</ele>
        <time>2017-04-06T17:36:11Z</time>
      </trkpt>
      <trkpt lat="49.01625" lon="1.14024">
        <ele>102.7</ele>
        <time>2017-04-06T17:36:14Z</time>
      </trkpt>
      <trkpt lat="49.01628" lon="1.14039">
        <ele>102.7</ele>
        <time>2017-04-06T17:36:16Z</time>
      </trkpt>
      <trkpt lat="49.0163" lon="1.14057">
        <ele>102.8</ele>
        <time>2017-04-06T17:36:19Z</time>
      </trkpt>
      <trkpt lat="49.0163" lon="1.14075">
        <ele>102.8</ele>
        <time>2017-04-06T17:36:22Z</time>
      </trkpt>
      <trkpt lat="49.0163" lon="1.14089">
        <ele>102.9</ele>
        <time>2017-04-06T17:36:24Z</time>
      </trkpt>
      <trkpt lat="49.01631" lon="1.14108">
        <ele>102.9</ele>
        <time>2017-04-06T17:36:27Z</time>
      </trkpt>
      <trkpt lat="49.01632" lon="1.14128">
        <ele>102.9</ele>
        <time>2017-04-06T17:36:30Z</time>
      </trkpt>
      <trkpt lat="49.01633" lon="1.14146">
        <ele>102.9</ele>
        <time>2017-04-06T17:36:33Z</time>
      </trkpt>
      <trkpt lat="49.01635" lon="1.14165">
        <ele>103</ele>
        <time>2017-04-06T17:36:36Z</time>
      </trkpt>
      <trkpt lat="49.0163" lon="1.1418">
        <ele>103</ele>
        <time>2017-04-06T17:36:39Z</time>
      </trkpt>
      <trkpt lat="49.01621" lon="1.14189">
        <ele>103</ele>
        <time>2017-04-06T17:36:42Z</time>
      </trkpt>
      <trkpt lat="49.01612" lon="1.14198">
        <ele>103.2</ele>
        <time>2017-04-06T17:36:45Z</time>
      </trkpt>
      <trkpt lat="49.01602" lon="1.14196">
        <ele>103.6</ele>
        <time>2017-04-06T17:36:48Z</time>
      </trkpt>
      <trkpt lat="49.01597" lon="1.14184">
        <ele>104</ele>
        <time>2017-04-06T17:36:51Z</time>
      </trkpt>
      <trkpt lat="49.01599" lon="1.14169">
        <ele>104.5</ele>
        <time>2017-04-06T17:36:54Z</time>
      </trkpt>
      <trkpt lat="49.01602" lon="1.14154">
        <ele>105.1</ele>
        <time>2017-04-06T17:36:57Z</time>
      </trkpt>
      <trkpt lat="49.01595" lon="1.14145">
        <ele>105.5</ele>
        <time>2017-04-06T17:37:00Z</time>
      </trkpt>
      <trkpt lat="49.01584" lon="1.14144">
        <ele>106</ele>
        <time>2017-04-06T17:37:03Z</time>
      </trkpt>
      <trkpt lat="49.01572" lon="1.14144">
        <ele>106.5</ele>
        <time>2017-04-06T17:37:06Z</time>
      </trkpt>
      <trkpt lat="49.01561" lon="1.14147">
        <ele>107.2</ele>
        <time>2017-04-06T17:37:09Z</time>
      </trkpt>
      <trkpt lat="49.0155" lon="1.1415">
        <ele>108.2</ele>
        <time>2017-04-06T17:37:13Z</time>
      </trkpt>
      <trkpt lat="49.01541" lon="1.1414">
        <ele>109.6</ele>
        <time>2017-04-06T17:37:19Z</time>
      </trkpt>
      <trkpt lat="49.01536" lon="1.14128">
        <ele>110.4</ele>
        <time>2017-04-06T17:37:22Z</time>
      </trkpt>
      <trkpt lat="49.0153" lon="1.14115">
        <ele>111.1</ele>
        <time>2017-04-06T17:37:25Z</time>
      </trkpt>
      <trkpt lat="49.01525" lon="1.14102">
        <ele>111.8</ele>
        <time>2017-04-06T17:37:28Z</time>
      </trkpt>
      <trkpt lat="49.01522" lon="1.14087">
        <ele>112.4</ele>
        <time>2017-04-06T17:37:31Z</time>
      </trkpt>
      <trkpt lat="49.01521" lon="1.14069">
        <ele>113.3</ele>
        <time>2017-04-06T17:37:35Z</time>
      </trkpt>
      <trkpt lat="49.01532" lon="1.14072">
        <ele>114.2</ele>
        <time>2017-04-06T17:37:40Z</time>
      </trkpt>
      <trkpt lat="49.01537" lon="1.14061">
        <ele>114.6</ele>
        <time>2017-04-06T17:37:43Z</time>
      </trkpt>
      <trkpt lat="49.01542" lon="1.14046">
        <ele>114.8</ele>
        <time>2017-04-06T17:37:47Z</time>
      </trkpt>
      <trkpt lat="49.01548" lon="1.14031">
        <ele>114.9</ele>
        <time>2017-04-06T17:37:50Z</time>
      </trkpt>
      <trkpt lat="49.01555" lon="1.14014">
        <ele>115</ele>
        <time>2017-04-06T17:37:53Z</time>
      </trkpt>
      <trkpt lat="49.01557" lon="1.13994">
        <ele>115</ele>
        <time>2017-04-06T17:37:56Z</time>
      </trkpt>
      <trkpt lat="49.01558" lon="1.1398">
        <ele>115.1</ele>
        <time>2017-04-06T17:37:58Z</time>
      </trkpt>
      <trkpt lat="49.01558" lon="1.1396">
        <ele>115</ele>
        <time>2017-04-06T17:38:01Z</time>
      </trkpt>
      <trkpt lat="49.01554" lon="1.13947">
        <ele>114.9</ele>
        <time>2017-04-06T17:38:03Z</time>
      </trkpt>
      <trkpt lat="49.0155" lon="1.13931">
        <ele>114.8</ele>
        <time>2017-04-06T17:38:06Z</time>
      </trkpt>
      <trkpt lat="49.01548" lon="1.13913">
        <ele>114.7</ele>
        <time>2017-04-06T17:38:10Z</time>
      </trkpt>
      <trkpt lat="49.01544" lon="1.13894">
        <ele>114.6</ele>
        <time>2017-04-06T17:38:13Z</time>
      </trkpt>
      <trkpt lat="49.0154" lon="1.13882">
        <ele>114.5</ele>
        <time>2017-04-06T17:38:15Z</time>
      </trkpt>
      <trkpt lat="49.01536" lon="1.1387">
        <ele>114.5</ele>
        <time>2017-04-06T17:38:17Z</time>
      </trkpt>
      <trkpt lat="49.01533" lon="1.13855">
        <ele>114.5</ele>
        <time>2017-04-06T17:38:20Z</time>
      </trkpt>
      <trkpt lat="49.01528" lon="1.13836">
        <ele>114.6</ele>
        <time>2017-04-06T17:38:23Z</time>
      </trkpt>
      <trkpt lat="49.01523" lon="1.13819">
        <ele>114.7</ele>
        <time>2017-04-06T17:38:26Z</time>
      </trkpt>
      <trkpt lat="49.01518" lon="1.138">
        <ele>114.8</ele>
        <time>2017-04-06T17:38:29Z</time>
      </trkpt>
      <trkpt lat="49.01513" lon="1.13782">
        <ele>114.9</ele>
        <time>2017-04-06T17:38:32Z</time>
      </trkpt>
      <trkpt lat="49.01508" lon="1.13764">
        <ele>115</ele>
        <time>2017-04-06T17:38:35Z</time>
      </trkpt>
      <trkpt lat="49.01502" lon="1.1375">
        <ele>115</ele>
        <time>2017-04-06T17:38:37Z</time>
      </trkpt>
      <trkpt lat="49.01496" lon="1.13741">
        <ele>115.1</ele>
        <time>2017-04-06T17:38:39Z</time>
      </trkpt>
      <trkpt lat="49.01489" lon="1.13732">
        <ele>115.2</ele>
        <time>2017-04-06T17:38:41Z</time>
      </trkpt>
      <trkpt lat="49.0148" lon="1.1372">
        <ele>115.3</ele>
        <time>2017-04-06T17:38:43Z</time>
      </trkpt>
      <trkpt lat="49.01473" lon="1.13708">
        <ele>115.5</ele>
        <time>2017-04-06T17:38:45Z</time>
      </trkpt>
      <trkpt lat="49.01464" lon="1.13695">
        <ele>115.6</ele>
        <time>2017-04-06T17:38:47Z</time>
      </trkpt>
      <trkpt lat="49.01457" lon="1.13682">
        <ele>115.9</ele>
        <time>2017-04-06T17:38:49Z</time>
      </trkpt>
      <trkpt lat="49.01449" lon="1.13669">
        <ele>116.1</ele>
        <time>2017-04-06T17:38:51Z</time>
      </trkpt>
      <trkpt lat="49.01439" lon="1.13652">
        <ele>116.4</ele>
        <time>2017-04-06T17:38:54Z</time>
      </trkpt>
      <trkpt lat="49.01431" lon="1.13641">
        <ele>116.5</ele>
        <time>2017-04-06T17:38:56Z</time>
      </trkpt>
      <trkpt lat="49.01425" lon="1.13626">
        <ele>116.7</ele>
        <time>2017-04-06T17:38:58Z</time>
      </trkpt>
      <trkpt lat="49.01421" lon="1.13613">
        <ele>116.8</ele>
        <time>2017-04-06T17:39:00Z</time>
      </trkpt>
      <trkpt lat="49.01417" lon="1.136">
        <ele>116.9</ele>
        <time>2017-04-06T17:39:02Z</time>
      </trkpt>
      <trkpt lat="49.0141" lon="1.13584">
        <ele>117.3</ele>
        <time>2017-04-06T17:39:05Z</time>
      </trkpt>
      <trkpt lat="49.01405" lon="1.1357">
        <ele>117.6</ele>
        <time>2017-04-06T17:39:08Z</time>
      </trkpt>
      <trkpt lat="49.01402" lon="1.13556">
        <ele>117.9</ele>
        <time>2017-04-06T17:39:11Z</time>
      </trkpt>
      <trkpt lat="49.01397" lon="1.13543">
        <ele>118.2</ele>
        <time>2017-04-06T17:39:14Z</time>
      </trkpt>
      <trkpt lat="49.01392" lon="1.13527">
        <ele>118.5</ele>
        <time>2017-04-06T17:39:18Z</time>
      </trkpt>
      <trkpt lat="49.01387" lon="1.13512">
        <ele>118.9</ele>
        <time>2017-04-06T17:39:22Z</time>
      </trkpt>
      <trkpt lat="49.01382" lon="1.13498">
        <ele>119.1</ele>
        <time>2017-04-06T17:39:25Z</time>
      </trkpt>
      <trkpt lat="49.01376" lon="1.13483">
        <ele>119.4</ele>
        <time>2017-04-06T17:39:28Z</time>
      </trkpt>
      <trkpt lat="49.01372" lon="1.13467">
        <ele>119.6</ele>
        <time>2017-04-06T17:39:31Z</time>
      </trkpt>
      <trkpt lat="49.01365" lon="1.13448">
        <ele>119.8</ele>
        <time>2017-04-06T17:39:34Z</time>
      </trkpt>
      <trkpt lat="49.01361" lon="1.13436">
        <ele>120</ele>
        <time>2017-04-06T17:39:36Z</time>
      </trkpt>
      <trkpt lat="49.01357" lon="1.13423">
        <ele>120.1</ele>
        <time>2017-04-06T17:39:38Z</time>
      </trkpt>
      <trkpt lat="49.01352" lon="1.1341">
        <ele>120.2</ele>
        <time>2017-04-06T17:39:40Z</time>
      </trkpt>
      <trkpt lat="49.01348" lon="1.13396">
        <ele>120.3</ele>
        <time>2017-04-06T17:39:42Z</time>
      </trkpt>
      <trkpt lat="49.01344" lon="1.13383">
        <ele>120.4</ele>
        <time>2017-04-06T17:39:44Z</time>
      </trkpt>
      <trkpt lat="49.01339" lon="1.13371">
        <ele>120.5</ele>
        <time>2017-04-06T17:39:46Z</time>
      </trkpt>
      <trkpt lat="49.01335" lon="1.13358">
        <ele>120.6</ele>
        <time>2017-04-06T17:39:48Z</time>
      </trkpt>
      <trkpt lat="49.01331" lon="1.13345">
        <ele>120.8</ele>
        <time>2017-04-06T17:39:50Z</time>
      </trkpt>
      <trkpt lat="49.01327" lon="1.13332">
        <ele>120.9</ele>
        <time>2017-04-06T17:39:52Z</time>
      </trkpt>
      <trkpt lat="49.01321" lon="1.13314">
        <ele>121.1</ele>
        <time>2017-04-06T17:39:55Z</time>
      </trkpt>
      <trkpt lat="49.01316" lon="1.13298">
        <ele>121.4</ele>
        <time>2017-04-06T17:39:58Z</time>
      </trkpt>
      <trkpt lat="49.01311" lon="1.13282">
        <ele>121.6</ele>
        <time>2017-04-06T17:40:01Z</time>
      </trkpt>
      <trkpt lat="49.01305" lon="1.13265">
        <ele>121.8</ele>
        <time>2017-04-06T17:40:04Z</time>
      </trkpt>
      <trkpt lat="49.01299" lon="1.13247">
        <ele>121.9</ele>
        <time>2017-04-06T17:40:07Z</time>
      </trkpt>
      <trkpt lat="49.01294" lon="1.13233">
        <ele>122</ele>
        <time>2017-04-06T17:40:09Z</time>
      </trkpt>
      <trkpt lat="49.0129" lon="1.1322">
        <ele>122.1</ele>
        <time>2017-04-06T17:40:11Z</time>
      </trkpt>
      <trkpt lat="49.01286" lon="1.13208">
        <ele>122.1</ele>
        <time>2017-04-06T17:40:13Z</time>
      </trkpt>
      <trkpt lat="49.01282" lon="1.13195">
        <ele>122.2</ele>
        <time>2017-04-06T17:40:15Z</time>
      </trkpt>
      <trkpt lat="49.01278" lon="1.13182">
        <ele>122.2</ele>
        <time>2017-04-06T17:40:17Z</time>
      </trkpt>
      <trkpt lat="49.01272" lon="1.13169">
        <ele>122.3</ele>
        <time>2017-04-06T17:40:19Z</time>
      </trkpt>
      <trkpt lat="49.01267" lon="1.13155">
        <ele>122.3</ele>
        <time>2017-04-06T17:40:21Z</time>
      </trkpt>
      <trkpt lat="49.01264" lon="1.13142">
        <ele>122.3</ele>
        <time>2017-04-06T17:40:23Z</time>
      </trkpt>
      <trkpt lat="49.01259" lon="1.13129">
        <ele>122.3</ele>
        <time>2017-04-06T17:40:25Z</time>
      </trkpt>
      <trkpt lat="49.01251" lon="1.13115">
        <ele>122.3</ele>
        <time>2017-04-06T17:40:28Z</time>
      </trkpt>
      <trkpt lat="49.01242" lon="1.13104">
        <ele>122.4</ele>
        <time>2017-04-06T17:40:30Z</time>
      </trkpt>
      <trkpt lat="49.01235" lon="1.13094">
        <ele>122.3</ele>
        <time>2017-04-06T17:40:32Z</time>
      </trkpt>
      <trkpt lat="49.01227" lon="1.13083">
        <ele>122.2</ele>
        <time>2017-04-06T17:40:34Z</time>
      </trkpt>
      <trkpt lat="49.01219" lon="1.13068">
        <ele>122.2</ele>
        <time>2017-04-06T17:40:36Z</time>
      </trkpt>
      <trkpt lat="49.01211" lon="1.13055">
        <ele>122.1</ele>
        <time>2017-04-06T17:40:38Z</time>
      </trkpt>
      <trkpt lat="49.01205" lon="1.13044">
        <ele>122.1</ele>
        <time>2017-04-06T17:40:40Z</time>
      </trkpt>
      <trkpt lat="49.01196" lon="1.13033">
        <ele>122.2</ele>
        <time>2017-04-06T17:40:43Z</time>
      </trkpt>
      <trkpt lat="49.01188" lon="1.13024">
        <ele>122.3</ele>
        <time>2017-04-06T17:40:45Z</time>
      </trkpt>
      <trkpt lat="49.01177" lon="1.13008">
        <ele>122.7</ele>
        <time>2017-04-06T17:40:48Z</time>
      </trkpt>
      <trkpt lat="49.0117" lon="1.12996">
        <ele>122.9</ele>
        <time>2017-04-06T17:40:50Z</time>
      </trkpt>
      <trkpt lat="49.01161" lon="1.12983">
        <ele>123.2</ele>
        <time>2017-04-06T17:40:52Z</time>
      </trkpt>
      <trkpt lat="49.01154" lon="1.12972">
        <ele>123.5</ele>
        <time>2017-04-06T17:40:54Z</time>
      </trkpt>
      <trkpt lat="49.01146" lon="1.12962">
        <ele>123.7</ele>
        <time>2017-04-06T17:40:56Z</time>
      </trkpt>
      <trkpt lat="49.0114" lon="1.12951">
        <ele>124.1</ele>
        <time>2017-04-06T17:40:58Z</time>
      </trkpt>
      <trkpt lat="49.01133" lon="1.12941">
        <ele>124.3</ele>
        <time>2017-04-06T17:41:00Z</time>
      </trkpt>
      <trkpt lat="49.01125" lon="1.12928">
        <ele>124.7</ele>
        <time>2017-04-06T17:41:03Z</time>
      </trkpt>
      <trkpt lat="49.01116" lon="1.12914">
        <ele>125.1</ele>
        <time>2017-04-06T17:41:06Z</time>
      </trkpt>
      <trkpt lat="49.01107" lon="1.12899">
        <ele>125.4</ele>
        <time>2017-04-06T17:41:09Z</time>
      </trkpt>
      <trkpt lat="49.01098" lon="1.12884">
        <ele>125.8</ele>
        <time>2017-04-06T17:41:12Z</time>
      </trkpt>
      <trkpt lat="49.01087" lon="1.1287">
        <ele>126.1</ele>
        <time>2017-04-06T17:41:15Z</time>
      </trkpt>
      <trkpt lat="49.01078" lon="1.12855">
        <ele>126.4</ele>
        <time>2017-04-06T17:41:18Z</time>
      </trkpt>
      <trkpt lat="49.01068" lon="1.12841">
        <ele>126.6</ele>
        <time>2017-04-06T17:41:21Z</time>
      </trkpt>
      <trkpt lat="49.01062" lon="1.12831">
        <ele>126.8</ele>
        <time>2017-04-06T17:41:23Z</time>
      </trkpt>
      <trkpt lat="49.01055" lon="1.12821">
        <ele>127.1</ele>
        <time>2017-04-06T17:41:25Z</time>
      </trkpt>
      <trkpt lat="49.01049" lon="1.12811">
        <ele>127.3</ele>
        <time>2017-04-06T17:41:27Z</time>
      </trkpt>
      <trkpt lat="49.01042" lon="1.12801">
        <ele>127.4</ele>
        <time>2017-04-06T17:41:29Z</time>
      </trkpt>
      <trkpt lat="49.01035" lon="1.12791">
        <ele>127.6</ele>
        <time>2017-04-06T17:41:31Z</time>
      </trkpt>
      <trkpt lat="49.01027" lon="1.12781">
        <ele>127.7</ele>
        <time>2017-04-06T17:41:33Z</time>
      </trkpt>
      <trkpt lat="49.01021" lon="1.12771">
        <ele>127.9</ele>
        <time>2017-04-06T17:41:35Z</time>
      </trkpt>
      <trkpt lat="49.01013" lon="1.12762">
        <ele>128</ele>
        <time>2017-04-06T17:41:37Z</time>
      </trkpt>
      <trkpt lat="49.01006" lon="1.12752">
        <ele>128.1</ele>
        <time>2017-04-06T17:41:39Z</time>
      </trkpt>
      <trkpt lat="49.00998" lon="1.1274">
        <ele>128.3</ele>
        <time>2017-04-06T17:41:41Z</time>
      </trkpt>
      <trkpt lat="49.00991" lon="1.12732">
        <ele>128.5</ele>
        <time>2017-04-06T17:41:43Z</time>
      </trkpt>
      <trkpt lat="49.00984" lon="1.12721">
        <ele>128.7</ele>
        <time>2017-04-06T17:41:45Z</time>
      </trkpt>
      <trkpt lat="49.00976" lon="1.12709">
        <ele>128.8</ele>
        <time>2017-04-06T17:41:47Z</time>
      </trkpt>
      <trkpt lat="49.00969" lon="1.12699">
        <ele>129</ele>
        <time>2017-04-06T17:41:49Z</time>
      </trkpt>
      <trkpt lat="49.00961" lon="1.12691">
        <ele>129.2</ele>
        <time>2017-04-06T17:41:51Z</time>
      </trkpt>
      <trkpt lat="49.0095" lon="1.12675">
        <ele>129.4</ele>
        <time>2017-04-06T17:41:54Z</time>
      </trkpt>
      <trkpt lat="49.00943" lon="1.12663">
        <ele>129.5</ele>
        <time>2017-04-06T17:41:56Z</time>
      </trkpt>
      <trkpt lat="49.00935" lon="1.12652">
        <ele>129.6</ele>
        <time>2017-04-06T17:41:58Z</time>
      </trkpt>
      <trkpt lat="49.00926" lon="1.12642">
        <ele>129.7</ele>
        <time>2017-04-06T17:42:00Z</time>
      </trkpt>
      <trkpt lat="49.0092" lon="1.12633">
        <ele>129.8</ele>
        <time>2017-04-06T17:42:02Z</time>
      </trkpt>
      <trkpt lat="49.00911" lon="1.12622">
        <ele>130</ele>
        <time>2017-04-06T17:42:04Z</time>
      </trkpt>
      <trkpt lat="49.00904" lon="1.12611">
        <ele>130.2</ele>
        <time>2017-04-06T17:42:06Z</time>
      </trkpt>
      <trkpt lat="49.00895" lon="1.12597">
        <ele>130.4</ele>
        <time>2017-04-06T17:42:09Z</time>
      </trkpt>
      <trkpt lat="49.00888" lon="1.12586">
        <ele>130.6</ele>
        <time>2017-04-06T17:42:11Z</time>
      </trkpt>
      <trkpt lat="49.00882" lon="1.12576">
        <ele>130.8</ele>
        <time>2017-04-06T17:42:13Z</time>
      </trkpt>
      <trkpt lat="49.00873" lon="1.12563">
        <ele>131.1</ele>
        <time>2017-04-06T17:42:16Z</time>
      </trkpt>
      <trkpt lat="49.00865" lon="1.12553">
        <ele>131.2</ele>
        <time>2017-04-06T17:42:18Z</time>
      </trkpt>
      <trkpt lat="49.00856" lon="1.12543">
        <ele>131.3</ele>
        <time>2017-04-06T17:42:20Z</time>
      </trkpt>
      <trkpt lat="49.00847" lon="1.12533">
        <ele>131.4</ele>
        <time>2017-04-06T17:42:22Z</time>
      </trkpt>
      <trkpt lat="49.00839" lon="1.12523">
        <ele>131.5</ele>
        <time>2017-04-06T17:42:24Z</time>
      </trkpt>
      <trkpt lat="49.0083" lon="1.12514">
        <ele>131.6</ele>
        <time>2017-04-06T17:42:26Z</time>
      </trkpt>
      <trkpt lat="49.00822" lon="1.12505">
        <ele>131.7</ele>
        <time>2017-04-06T17:42:28Z</time>
      </trkpt>
      <trkpt lat="49.00814" lon="1.12498">
        <ele>131.7</ele>
        <time>2017-04-06T17:42:30Z</time>
      </trkpt>
      <trkpt lat="49.00804" lon="1.1249">
        <ele>131.8</ele>
        <time>2017-04-06T17:42:32Z</time>
      </trkpt>
      <trkpt lat="49.00796" lon="1.1248">
        <ele>131.8</ele>
        <time>2017-04-06T17:42:34Z</time>
      </trkpt>
      <trkpt lat="49.00786" lon="1.12471">
        <ele>131.9</ele>
        <time>2017-04-06T17:42:36Z</time>
      </trkpt>
      <trkpt lat="49.00779" lon="1.12462">
        <ele>131.9</ele>
        <time>2017-04-06T17:42:38Z</time>
      </trkpt>
      <trkpt lat="49.00768" lon="1.12454">
        <ele>131.8</ele>
        <time>2017-04-06T17:42:40Z</time>
      </trkpt>
      <trkpt lat="49.00758" lon="1.12448">
        <ele>131.7</ele>
        <time>2017-04-06T17:42:42Z</time>
      </trkpt>
      <trkpt lat="49.00748" lon="1.12443">
        <ele>131.7</ele>
        <time>2017-04-06T17:42:44Z</time>
      </trkpt>
      <trkpt lat="49.00737" lon="1.1244">
        <ele>131.6</ele>
        <time>2017-04-06T17:42:46Z</time>
      </trkpt>
      <trkpt lat="49.00728" lon="1.12436">
        <ele>131.6</ele>
        <time>2017-04-06T17:42:48Z</time>
      </trkpt>
      <trkpt lat="49.00717" lon="1.12432">
        <ele>131.5</ele>
        <time>2017-04-06T17:42:50Z</time>
      </trkpt>
      <trkpt lat="49.00707" lon="1.12428">
        <ele>131.4</ele>
        <time>2017-04-06T17:42:52Z</time>
      </trkpt>
      <trkpt lat="49.00698" lon="1.12423">
        <ele>131.4</ele>
        <time>2017-04-06T17:42:54Z</time>
      </trkpt>
      <trkpt lat="49.00687" lon="1.1242">
        <ele>131.3</ele>
        <time>2017-04-06T17:42:56Z</time>
      </trkpt>
      <trkpt lat="49.00677" lon="1.12417">
        <ele>131.3</ele>
        <time>2017-04-06T17:42:58Z</time>
      </trkpt>
      <trkpt lat="49.00668" lon="1.12413">
        <ele>131.2</ele>
        <time>2017-04-06T17:43:00Z</time>
      </trkpt>
      <trkpt lat="49.00655" lon="1.12411">
        <ele>131</ele>
        <time>2017-04-06T17:43:03Z</time>
      </trkpt>
      <trkpt lat="49.00646" lon="1.12409">
        <ele>130.7</ele>
        <time>2017-04-06T17:43:05Z</time>
      </trkpt>
      <trkpt lat="49.00635" lon="1.12405">
        <ele>130.5</ele>
        <time>2017-04-06T17:43:07Z</time>
      </trkpt>
      <trkpt lat="49.00624" lon="1.124">
        <ele>130.3</ele>
        <time>2017-04-06T17:43:09Z</time>
      </trkpt>
      <trkpt lat="49.00613" lon="1.12395">
        <ele>130.1</ele>
        <time>2017-04-06T17:43:11Z</time>
      </trkpt>
      <trkpt lat="49.00602" lon="1.12387">
        <ele>129.9</ele>
        <time>2017-04-06T17:43:13Z</time>
      </trkpt>
      <trkpt lat="49.00593" lon="1.12377">
        <ele>129.7</ele>
        <time>2017-04-06T17:43:15Z</time>
      </trkpt>
      <trkpt lat="49.00583" lon="1.12366">
        <ele>129.6</ele>
        <time>2017-04-06T17:43:17Z</time>
      </trkpt>
      <trkpt lat="49.00573" lon="1.12355">
        <ele>129.4</ele>
        <time>2017-04-06T17:43:19Z</time>
      </trkpt>
      <trkpt lat="49.00563" lon="1.12343">
        <ele>129.2</ele>
        <time>2017-04-06T17:43:21Z</time>
      </trkpt>
      <trkpt lat="49.00552" lon="1.12331">
        <ele>129</ele>
        <time>2017-04-06T17:43:23Z</time>
      </trkpt>
      <trkpt lat="49.00542" lon="1.1232">
        <ele>128.8</ele>
        <time>2017-04-06T17:43:25Z</time>
      </trkpt>
      <trkpt lat="49.00533" lon="1.1231">
        <ele>128.4</ele>
        <time>2017-04-06T17:43:27Z</time>
      </trkpt>
      <trkpt lat="49.00521" lon="1.12302">
        <ele>128.1</ele>
        <time>2017-04-06T17:43:29Z</time>
      </trkpt>
      <trkpt lat="49.0051" lon="1.12292">
        <ele>127.8</ele>
        <time>2017-04-06T17:43:31Z</time>
      </trkpt>
      <trkpt lat="49.00498" lon="1.12286">
        <ele>127.5</ele>
        <time>2017-04-06T17:43:33Z</time>
      </trkpt>
      <trkpt lat="49.00487" lon="1.12284">
        <ele>127.2</ele>
        <time>2017-04-06T17:43:35Z</time>
      </trkpt>
      <trkpt lat="49.00475" lon="1.1228">
        <ele>126.7</ele>
        <time>2017-04-06T17:43:37Z</time>
      </trkpt>
      <trkpt lat="49.00463" lon="1.12275">
        <ele>126.2</ele>
        <time>2017-04-06T17:43:39Z</time>
      </trkpt>
      <trkpt lat="49.00451" lon="1.12274">
        <ele>125.7</ele>
        <time>2017-04-06T17:43:41Z</time>
      </trkpt>
      <trkpt lat="49.00437" lon="1.12272">
        <ele>125.2</ele>
        <time>2017-04-06T17:43:43Z</time>
      </trkpt>
      <trkpt lat="49.00425" lon="1.1227">
        <ele>124.7</ele>
        <time>2017-04-06T17:43:45Z</time>
      </trkpt>
      <trkpt lat="49.00413" lon="1.12266">
        <ele>124.1</ele>
        <time>2017-04-06T17:43:47Z</time>
      </trkpt>
      <trkpt lat="49.004" lon="1.12258">
        <ele>123.6</ele>
        <time>2017-04-06T17:43:49Z</time>
      </trkpt>
      <trkpt lat="49.00387" lon="1.12246">
        <ele>122.8</ele>
        <time>2017-04-06T17:43:51Z</time>
      </trkpt>
      <trkpt lat="49.00376" lon="1.12237">
        <ele>122</ele>
        <time>2017-04-06T17:43:53Z</time>
      </trkpt>
      <trkpt lat="49.00365" lon="1.12236">
        <ele>121.2</ele>
        <time>2017-04-06T17:43:55Z</time>
      </trkpt>
      <trkpt lat="49.00355" lon="1.12241">
        <ele>120.1</ele>
        <time>2017-04-06T17:43:58Z</time>
      </trkpt>
      <trkpt lat="49.00346" lon="1.12246">
        <ele>119.1</ele>
        <time>2017-04-06T17:44:02Z</time>
      </trkpt>
      <trkpt lat="49.00335" lon="1.12251">
        <ele>118.6</ele>
        <time>2017-04-06T17:44:06Z</time>
      </trkpt>
      <trkpt lat="49.00325" lon="1.12256">
        <ele>118.6</ele>
        <time>2017-04-06T17:44:09Z</time>
      </trkpt>
      <trkpt lat="49.00316" lon="1.12258">
        <ele>118.5</ele>
        <time>2017-04-06T17:44:11Z</time>
      </trkpt>
      <trkpt lat="49.00303" lon="1.12257">
        <ele>118.5</ele>
        <time>2017-04-06T17:44:14Z</time>
      </trkpt>
      <trkpt lat="49.0029" lon="1.12255">
        <ele>118.5</ele>
        <time>2017-04-06T17:44:17Z</time>
      </trkpt>
      <trkpt lat="49.00278" lon="1.12253">
        <ele>118.6</ele>
        <time>2017-04-06T17:44:20Z</time>
      </trkpt>
      <trkpt lat="49.00269" lon="1.12249">
        <ele>118.7</ele>
        <time>2017-04-06T17:44:22Z</time>
      </trkpt>
      <trkpt lat="49.00257" lon="1.1224">
        <ele>118.8</ele>
        <time>2017-04-06T17:44:25Z</time>
      </trkpt>
      <trkpt lat="49.00245" lon="1.12232">
        <ele>118.9</ele>
        <time>2017-04-06T17:44:28Z</time>
      </trkpt>
      <trkpt lat="49.00234" lon="1.12235">
        <ele>118.9</ele>
        <time>2017-04-06T17:44:31Z</time>
      </trkpt>
      <trkpt lat="49.00225" lon="1.12245">
        <ele>118.9</ele>
        <time>2017-04-06T17:44:34Z</time>
      </trkpt>
      <trkpt lat="49.00218" lon="1.12256">
        <ele>118.9</ele>
        <time>2017-04-06T17:44:37Z</time>
      </trkpt>
      <trkpt lat="49.0021" lon="1.12268">
        <ele>119.1</ele>
        <time>2017-04-06T17:44:40Z</time>
      </trkpt>
      <trkpt lat="49.00202" lon="1.1228">
        <ele>119.4</ele>
        <time>2017-04-06T17:44:43Z</time>
      </trkpt>
      <trkpt lat="49.00196" lon="1.12293">
        <ele>119.6</ele>
        <time>2017-04-06T17:44:46Z</time>
      </trkpt>
      <trkpt lat="49.00187" lon="1.12306">
        <ele>119.9</ele>
        <time>2017-04-06T17:44:49Z</time>
      </trkpt>
      <trkpt lat="49.00178" lon="1.12317">
        <ele>120.1</ele>
        <time>2017-04-06T17:44:52Z</time>
      </trkpt>
      <trkpt lat="49.00175" lon="1.12333">
        <ele>120.3</ele>
        <time>2017-04-06T17:44:56Z</time>
      </trkpt>
      <trkpt lat="49.00174" lon="1.12351">
        <ele>120.7</ele>
        <time>2017-04-06T17:45:00Z</time>
      </trkpt>
      <trkpt lat="49.00172" lon="1.12368">
        <ele>121.2</ele>
        <time>2017-04-06T17:45:04Z</time>
      </trkpt>
      <trkpt lat="49.00172" lon="1.12383">
        <ele>121.7</ele>
        <time>2017-04-06T17:45:07Z</time>
      </trkpt>
      <trkpt lat="49.0017" lon="1.12399">
        <ele>122.3</ele>
        <time>2017-04-06T17:45:11Z</time>
      </trkpt>
      <trkpt lat="49.0017" lon="1.12415">
        <ele>122.6</ele>
        <time>2017-04-06T17:45:14Z</time>
      </trkpt>
      <trkpt lat="49.00171" lon="1.1243">
        <ele>123.1</ele>
        <time>2017-04-06T17:45:17Z</time>
      </trkpt>
      <trkpt lat="49.00173" lon="1.12446">
        <ele>123.7</ele>
        <time>2017-04-06T17:45:20Z</time>
      </trkpt>
      <trkpt lat="49.00173" lon="1.12462">
        <ele>124.2</ele>
        <time>2017-04-06T17:45:23Z</time>
      </trkpt>
      <trkpt lat="49.00177" lon="1.1248">
        <ele>124.6</ele>
        <time>2017-04-06T17:45:26Z</time>
      </trkpt>
      <trkpt lat="49.00182" lon="1.12493">
        <ele>124.9</ele>
        <time>2017-04-06T17:45:29Z</time>
      </trkpt>
      <trkpt lat="49.00187" lon="1.12506">
        <ele>125.2</ele>
        <time>2017-04-06T17:45:32Z</time>
      </trkpt>
      <trkpt lat="49.00195" lon="1.12522">
        <ele>125.4</ele>
        <time>2017-04-06T17:45:35Z</time>
      </trkpt>
      <trkpt lat="49.00198" lon="1.12536">
        <ele>125.7</ele>
        <time>2017-04-06T17:45:38Z</time>
      </trkpt>
      <trkpt lat="49.00205" lon="1.12545">
        <ele>126.1</ele>
        <time>2017-04-06T17:45:41Z</time>
      </trkpt>
      <trkpt lat="49.00212" lon="1.12559">
        <ele>126.4</ele>
        <time>2017-04-06T17:45:44Z</time>
      </trkpt>
      <trkpt lat="49.0022" lon="1.12571">
        <ele>126.8</ele>
        <time>2017-04-06T17:45:48Z</time>
      </trkpt>
      <trkpt lat="49.00231" lon="1.1258">
        <ele>127</ele>
        <time>2017-04-06T17:45:51Z</time>
      </trkpt>
      <trkpt lat="49.0024" lon="1.12593">
        <ele>127.3</ele>
        <time>2017-04-06T17:45:54Z</time>
      </trkpt>
      <trkpt lat="49.00244" lon="1.12605">
        <ele>127.5</ele>
        <time>2017-04-06T17:45:56Z</time>
      </trkpt>
      <trkpt lat="49.0025" lon="1.12619">
        <ele>127.7</ele>
        <time>2017-04-06T17:45:59Z</time>
      </trkpt>
      <trkpt lat="49.00255" lon="1.12632">
        <ele>128.1</ele>
        <time>2017-04-06T17:46:07Z</time>
      </trkpt>
      <trkpt lat="49.00256" lon="1.12651">
        <ele>128.3</ele>
        <time>2017-04-06T17:46:11Z</time>
      </trkpt>
      <trkpt lat="49.00256" lon="1.12668">
        <ele>128.4</ele>
        <time>2017-04-06T17:46:14Z</time>
      </trkpt>
      <trkpt lat="49.00257" lon="1.12687">
        <ele>128.4</ele>
        <time>2017-04-06T17:46:17Z</time>
      </trkpt>
      <trkpt lat="49.00257" lon="1.12707">
        <ele>128.5</ele>
        <time>2017-04-06T17:46:20Z</time>
      </trkpt>
      <trkpt lat="49.00256" lon="1.12724">
        <ele>128.5</ele>
        <time>2017-04-06T17:46:23Z</time>
      </trkpt>
      <trkpt lat="49.00255" lon="1.12745">
        <ele>128.6</ele>
        <time>2017-04-06T17:46:26Z</time>
      </trkpt>
      <trkpt lat="49.00254" lon="1.12763">
        <ele>128.8</ele>
        <time>2017-04-06T17:46:29Z</time>
      </trkpt>
      <trkpt lat="49.00252" lon="1.12781">
        <ele>129</ele>
        <time>2017-04-06T17:46:32Z</time>
      </trkpt>
      <trkpt lat="49.0025" lon="1.12799">
        <ele>129.2</ele>
        <time>2017-04-06T17:46:35Z</time>
      </trkpt>
      <trkpt lat="49.00245" lon="1.12812">
        <ele>129.4</ele>
        <time>2017-04-06T17:46:38Z</time>
      </trkpt>
      <trkpt lat="49.0024" lon="1.12827">
        <ele>129.9</ele>
        <time>2017-04-06T17:46:43Z</time>
      </trkpt>
      <trkpt lat="49.0024" lon="1.12842">
        <ele>130.5</ele>
        <time>2017-04-06T17:46:58Z</time>
      </trkpt>
      <trkpt lat="49.00239" lon="1.12856">
        <ele>130.6</ele>
        <time>2017-04-06T17:47:02Z</time>
      </trkpt>
      <trkpt lat="49.00241" lon="1.12873">
        <ele>130.7</ele>
        <time>2017-04-06T17:47:05Z</time>
      </trkpt>
      <trkpt lat="49.00245" lon="1.12887">
        <ele>130.8</ele>
        <time>2017-04-06T17:47:07Z</time>
      </trkpt>
      <trkpt lat="49.00249" lon="1.12905">
        <ele>130.9</ele>
        <time>2017-04-06T17:47:10Z</time>
      </trkpt>
      <trkpt lat="49.00252" lon="1.12921">
        <ele>131</ele>
        <time>2017-04-06T17:47:13Z</time>
      </trkpt>
      <trkpt lat="49.00255" lon="1.12934">
        <ele>131</ele>
        <time>2017-04-06T17:47:16Z</time>
      </trkpt>
      <trkpt lat="49.00259" lon="1.1295">
        <ele>131.1</ele>
        <time>2017-04-06T17:47:19Z</time>
      </trkpt>
      <trkpt lat="49.00263" lon="1.12962">
        <ele>131.1</ele>
        <time>2017-04-06T17:47:22Z</time>
      </trkpt>
      <trkpt lat="49.00267" lon="1.12976">
        <ele>131.1</ele>
        <time>2017-04-06T17:47:25Z</time>
      </trkpt>
      <trkpt lat="49.00269" lon="1.12993">
        <ele>131.2</ele>
        <time>2017-04-06T17:47:28Z</time>
      </trkpt>
      <trkpt lat="49.00267" lon="1.13012">
        <ele>131.2</ele>
        <time>2017-04-06T17:47:31Z</time>
      </trkpt>
      <trkpt lat="49.0026" lon="1.13021">
        <ele>131.2</ele>
        <time>2017-04-06T17:47:34Z</time>
      </trkpt>
      <trkpt lat="49.0025" lon="1.13026">
        <ele>131.2</ele>
        <time>2017-04-06T17:47:38Z</time>
      </trkpt>
      <trkpt lat="49.00239" lon="1.13031">
        <ele>131.3</ele>
        <time>2017-04-06T17:47:42Z</time>
      </trkpt>
      <trkpt lat="49.0023" lon="1.13025">
        <ele>131.5</ele>
        <time>2017-04-06T17:47:46Z</time>
      </trkpt>
      <trkpt lat="49.0022" lon="1.13017">
        <ele>131.7</ele>
        <time>2017-04-06T17:47:50Z</time>
      </trkpt>
      <trkpt lat="49.00214" lon="1.13005">
        <ele>132.1</ele>
        <time>2017-04-06T17:47:55Z</time>
      </trkpt>
      <trkpt lat="49.00213" lon="1.12995">
        <ele>133.1</ele>
        <time>2017-04-06T17:48:24Z</time>
      </trkpt>
    </trkseg>
  </trk>
</gpx>